GFSMA_con_mucape_000.txt.gz
CAPE
22 69 18 81 1 1 0 0 0 0 0 0 0 0 0 0 0 0 0 0 0 0 0 0 0 0 0 0 5 1 0 0 0 0 0 0 0 0 0 1 72 111 102
74 99 66 3 2 0 0 0 0 0 0 0 0 0 0 0 0 0 0 0 0 0 0 0 0 0 0 0 0 0 0 0 0 0 1 0 0 0 0 0 0 1 1
104 1 2 2 0 0 0 0 0 0 0 0 0 0 0 0 0 0 0 0 0 0 0 0 0 0 0 0 0 0 0 0 0 0 0 0 0 0 0 0 0 0 1
21 41 0 0 0 0 0 0 0 0 0 0 0 0 0 0 0 0 0 0 0 0 0 0 0 0 0 0 0 0 0 0 0 0 0 0 0 0 0 0 0 0 0
0 0 0 0 0 0 0 0 0 0 0 0 0 0 0 0 0 0 0 0 0 0 0 0 0 0 0 0 0 0 0 0 0 0 0 0 0 0 0 0 0 0 0
0 0 0 0 0 0 0 0 0 0 0 0 0 0 0 0 0 0 0 0 0 0 0 0 0 0 0 0 0 0 0 0 0 0 0 0 0 2 6 6 8 9 7
0 0 0 0 0 0 0 0 0 0 0 0 0 0 0 0 0 0 0 0 0 0 0 0 0 0 0 0 0 0 0 0 0 0 0 0 1 5 11 11 15 15 14
0 0 0 0 0 0 0 0 0 0 0 0 0 0 0 0 0 0 0 0 0 0 0 0 0 0 0 0 0 0 0 0 0 0 1 5 13 17 19 20 20 25 23
0 0 0 0 0 0 0 0 0 0 0 0 0 0 0 0 0 0 0 0 0 0 0 0 0 0 0 0 0 0 0 0 0 0 6 16 22 27 32 31 31 33 31
0 0 0 0 0 0 0 0 0 0 0 0 0 0 0 0 0 0 0 0 0 0 0 0 0 0 0 0 0 0 0 0 0 0 11 23 34 46 51 47 52 53 54
0 0 0 0 0 0 0 0 0 0 0 0 0 0 0 0 0 0 0 0 0 0 0 0 0 0 0 0 0 0 0 0 0 0 25 41 50 55 61 72 68 69 60
0 0 0 0 0 0 0 0 0 0 0 0 0 0 0 0 0 0 0 0 0 0 0 0 0 0 0 0 0 0 0 0 0 0 0 56 65 72 80 85 82 80 74
0 0 0 0 0 0 0 0 0 0 0 0 0 0 0 0 0 0 0 0 0 0 0 0 0 0 0 0 0 0 0 0 0 0 0 0 39 67 75 84 90 88 85
0 0 0 0 0 0 0 0 0 0 0 0 0 0 0 0 0 0 0 0 0 0 0 0 0 0 0 0 0 0 0 0 0 0 0 0 0 8 0 1 79 76 74
0 0 0 0 0 0 0 0 0 0 0 0 0 0 0 0 0 0 0 0 0 0 0 0 0 0 0 0 0 0 0 0 56 32 9 11 63 0 0 0 0 0 0
0 0 0 0 0 0 0 0 0 0 0 0 0 0 0 0 0 0 0 0 0 0 0 0 0 0 0 0 0 0 0 58 50 59 74 74 57 0 0 0 0 0 0
0 0 0 0 0 0 0 0 0 0 0 0 0 0 0 0 0 0 0 0 0 0 0 0 0 0 0 0 0 0 7 10 10 88 69 49 55 63 46 0 65 85 102
0 0 0 0 0 0 0 0 0 0 0 0 0 0 0 0 0 0 0 0 0 0 0 0 0 0 0 0 0 0 0 8 9 1 23 57 67 59 64 69 84 72 75
0 0 0 0 0 0 0 0 0 0 0 0 0 0 0 0 0 0 0 0 0 0 0 0 0 0 0 0 0 0 0 0 0 0 30 0 0 0 0 0 0 0 0
0 0 0 0 0 0 0 0 0 0 0 0 0 0 0 0 0 0 0 0 0 0 0 0 0 0 0 0 0 0 0 0 0 0 0 0 0 0 0 0 0 0 0
0 0 0 0 0 0 0 0 0 0 0 0 0 0 0 0 0 0 0 0 0 0 0 0 0 0 0 0 0 0 0 0 0 0 0 0 0 0 0 0 0 0 0
0 0 0 0 0 0 0 0 0 0 0 0 0 0 0 0 0 0 0 0 0 0 0 0 0 0 0 0 0 0 0 0 0 0 0 0 0 0 0 0 0 0 0
0 0 0 0 0 0 0 0 0 0 0 0 0 0 0 0 0 0 0 0 0 0 0 0 0 0 0 0 0 0 0 0 0 0 0 0 0 0 0 0 0 0 0
0 0 0 0 0 0 0 0 0 0 0 0 0 0 0 0 0 0 0 0 0 0 0 0 0 0 0 0 0 0 0 0 0 0 0 0 0 0 0 0 0 0 0
0 0 0 0 0 0 0 0 0 0 0 0 0 0 0 0 0 0 0 0 0 0 0 0 0 0 0 0 0 0 0 0 0 0 0 0 0 0 0 0 0 0 0
0 0 0 0 0 0 0 0 0 0 0 0 0 0 0 0 0 0 0 0 0 0 0 0 0 0 0 0 0 0 0 0 0 0 0 0 0 0 0 0 0 0 0

GFSMA_con_mucape_003.txt.gz
CAPE
28 91 14 9 0 0 0 0 0 0 0 0 0 0 0 0 0 0 0 0 0 0 0 0 0 0 3 1 0 1 0 0 0 1 0 0 0 0 0 0 0 19 95
60 106 110 15 2 0 0 0 0 0 0 0 0 0 0 0 0 0 0 0 0 0 0 0 0 0 0 0 0 0 0 0 0 0 0 0 0 0 0 0 0 0 0
168 54 1 0 0 0 0 0 0 0 0 0 0 0 0 0 0 0 0 0 0 0 0 0 0 0 0 0 0 0 0 0 0 0 0 0 0 0 0 0 0 0 0
49 41 5 0 0 0 0 0 0 0 0 0 0 0 0 0 0 0 0 0 0 0 0 0 0 0 0 0 0 0 0 0 0 0 0 0 0 0 0 0 0 0 0
5 0 0 0 0 0 0 0 0 0 0 0 0 0 0 0 0 0 0 0 0 0 0 0 0 0 0 0 0 0 0 0 0 0 0 0 0 0 0 1 1 2 1
0 0 0 0 0 0 0 0 0 0 0 0 0 0 0 0 0 0 0 0 0 0 0 0 0 0 0 0 0 0 0 0 0 0 0 0 0 1 4 7 7 12 11
0 0 0 0 0 0 0 0 0 0 0 0 0 0 0 0 0 0 0 0 0 0 0 0 0 0 0 0 0 0 0 0 0 0 0 1 3 6 9 14 15 17 18
0 0 0 0 0 0 0 0 0 0 0 0 0 0 0 0 0 0 0 0 0 0 0 0 0 0 0 0 0 0 0 0 0 0 0 3 10 18 27 27 27 27 30
0 0 0 0 0 0 0 0 0 0 0 0 0 0 0 0 0 0 0 0 0 0 0 0 0 0 0 0 0 0 0 0 0 0 0 7 16 23 34 43 49 52 48
0 0 0 0 0 0 0 0 0 0 0 0 0 0 0 0 0 0 0 0 0 0 0 0 0 0 0 0 0 0 0 0 0 0 9 21 30 41 55 62 65 74 72
0 0 0 0 0 0 0 0 0 0 0 0 0 0 0 0 0 0 0 0 0 0 0 0 0 0 0 0 0 0 0 0 0 0 16 30 50 72 83 88 93 95 90
0 0 0 0 0 0 0 0 0 0 0 0 0 0 0 0 0 0 0 0 0 0 0 0 0 0 0 0 0 0 0 0 0 0 60 87 94 91 99 118 128 114 134
0 0 0 0 0 0 0 0 0 0 0 0 0 0 0 0 0 0 0 0 0 0 0 0 0 0 0 0 0 0 0 0 0 0 68 91 91 74 84 107 113 135 124
0 0 0 0 0 0 0 0 0 0 0 0 0 0 0 0 0 0 0 0 0 0 0 0 0 0 0 0 0 0 0 0 0 0 62 71 67 58 76 91 113 113 105
0 0 0 0 0 0 0 0 0 0 0 0 0 0 0 0 0 0 0 0 0 0 0 0 0 0 0 0 0 0 0 0 0 52 47 50 57 81 93 88 80 83 87
0 0 0 0 0 0 0 0 0 0 0 0 0 0 0 0 0 0 0 0 0 0 0 0 0 0 0 0 0 0 0 0 0 46 64 73 74 81 84 98 101 99 100
0 0 0 0 0 0 0 0 0 0 0 0 0 0 0 0 0 0 0 0 0 0 0 0 0 0 0 0 0 0 0 0 13 0 0 63 67 73 93 112 96 96 106
0 0 0 0 0 0 0 0 0 0 0 0 0 0 0 0 0 0 0 0 0 0 0 0 0 0 0 0 0 0 0 0 0 0 0 0 0 0 4 73 80 84 86
0 0 0 0 0 0 0 0 0 0 0 0 0 0 0 0 0 0 0 0 0 0 0 0 0 0 0 0 0 0 0 0 0 0 0 0 0 0 0 0 0 56 50
0 0 0 0 0 0 0 0 0 0 0 0 0 0 0 0 0 0 0 0 0 0 0 0 0 0 0 0 0 0 0 0 0 0 0 0 0 0 0 0 0 0 0
0 0 0 0 0 0 0 0 0 0 0 0 0 0 0 0 0 0 0 0 0 0 0 0 0 0 0 0 0 0 0 0 0 0 0 0 0 0 0 0 0 0 0
0 0 0 0 0 0 0 0 0 0 0 0 0 0 0 0 0 0 0 0 0 0 0 0 0 0 0 0 0 0 0 0 0 0 0 0 0 0 0 0 0 0 0
0 0 0 0 0 0 0 0 0 0 0 0 0 0 0 0 0 0 0 0 0 0 0 0 0 0 0 0 0 0 0 0 0 0 0 0 0 0 0 0 0 0 0
0 0 0 0 0 0 0 0 0 0 0 0 0 0 0 0 0 0 0 0 0 0 0 0 0 0 0 0 0 0 0 0 0 0 0 0 0 0 0 0 0 0 0
0 0 0 0 0 0 0 0 0 0 0 0 0 0 0 0 0 0 0 0 0 0 0 0 0 0 0 0 0 0 0 0 0 0 0 0 0 0 0 0 0 0 0
0 0 0 0 0 0 0 0 0 0 0 0 0 0 0 0 0 0 0 0 0 0 0 0 0 0 0 0 0 0 0 0 0 0 0 0 0 0 0 0 0 0 0

GFSMA_con_mucape_006.txt.gz
CAPE
228 1 0 0 0 0 0 0 0 0 0 0 0 0 0 0 0 0 0 0 0 0 0 0 0 0 0 0 2 0 0 0 0 0 0 0 0 0 0 0 0 0 1
82 47 1 1 1 0 0 0 0 0 0 0 0 0 0 0 0 0 0 0 0 0 0 0 0 0 0 0 0 0 0 0 0 0 0 0 0 0 0 0 0 0 0
22 42 6 3 0 0 0 0 0 0 0 0 0 0 0 0 0 0 0 0 0 0 0 0 0 0 0 0 0 0 0 0 0 0 0 0 0 0 0 0 0 0 0
69 32 1 1 0 0 0 0 0 0 0 0 0 0 0 0 0 0 0 0 0 0 0 0 0 0 0 0 0 0 0 0 0 0 0 0 0 0 0 0 0 0 0
153 3 0 0 0 0 0 0 0 0 0 0 0 0 0 0 0 0 0 0 0 0 0 0 0 0 0 0 0 0 0 0 0 0 0 0 0 0 0 0 1 3 4
135 0 0 0 0 0 0 0 0 0 0 0 0 0 0 0 0 0 0 0 0 0 0 0 0 0 0 0 0 0 0 0 0 0 0 0 4 4 3 3 7 11 11
24 0 0 0 0 0 0 0 0 0 0 0 0 0 0 0 0 0 0 0 0 0 0 0 0 0 0 0 0 0 0 0 0 0 0 0 1 6 7 13 18 23 25
37 0 0 0 0 0 0 0 0 0 0 0 0 0 0 0 0 0 0 0 0 0 0 0 0 0 0 0 0 0 0 0 0 0 0 0 0 8 16 24 31 34 37
34 0 0 0 0 0 0 0 0 0 0 0 0 0 0 0 0 0 0 0 0 0 0 0 0 0 0 0 0 0 0 0 0 0 0 0 11 18 26 34 41 45 53
3 0 0 0 0 0 0 0 0 0 0 0 0 0 0 0 0 0 0 0 0 0 0 0 0 0 0 0 0 0 0 0 0 0 0 7 21 35 51 59 73 87 71
0 0 0 0 0 0 0 0 0 0 0 0 0 0 0 0 0 0 0 0 0 0 0 0 0 0 0 0 0 0 0 0 0 0 0 33 42 57 75 79 79 92 130
0 0 0 0 0 0 0 0 0 0 0 0 0 0 0 0 0 0 0 0 0 0 0 0 0 0 0 0 0 0 0 0 0 0 0 1 67 84 104 104 122 115 115
0 0 0 0 0 0 0 0 0 0 0 0 0 0 0 0 0 0 0 0 0 0 0 0 0 0 0 0 0 0 0 0 0 0 0 0 57 64 67 85 99 115 108
0 0 0 0 0 0 0 0 0 0 0 0 0 0 0 0 0 0 0 0 0 0 0 0 0 0 0 0 0 0 0 0 0 0 0 0 0 0 0 61 86 93 125
0 0 0 0 0 0 0 0 0 0 0 0 0 0 0 0 0 0 0 0 0 0 0 0 0 0 0 0 0 0 0 0 0 0 0 0 0 6 63 80 76 98 109
0 0 0 0 0 0 0 0 0 0 0 0 0 0 0 0 0 0 0 0 0 0 0 0 0 0 0 0 0 0 0 0 0 0 0 0 0 38 6 42 44 75 81
0 0 0 0 0 0 0 0 0 0 0 0 0 0 0 0 0 0 0 0 0 0 0 0 0 0 0 0 0 0 0 0 0 0 0 0 0 0 0 0 0 0 79
0 0 0 0 0 0 0 0 0 0 0 0 0 0 0 0 0 0 0 0 0 0 0 0 0 0 0 0 0 0 0 0 0 0 0 0 0 0 0 0 0 0 0
0 0 0 0 0 0 0 0 0 0 0 0 0 0 0 0 0 0 0 0 0 0 0 0 0 0 0 0 0 0 0 0 0 0 0 0 0 0 0 0 0 0 0
0 0 0 0 0 0 0 0 0 0 0 0 0 0 0 0 0 0 0 0 0 0 0 0 0 0 0 0 0 0 0 0 0 0 0 0 0 0 0 0 0 0 0
0 0 0 0 0 0 0 0 0 0 0 0 0 0 0 0 0 0 0 0 0 0 0 0 0 0 0 0 0 0 0 0 0 0 0 0 0 0 0 0 0 0 0
0 0 0 0 0 0 0 0 0 0 0 0 0 0 0 0 0 0 0 0 0 0 0 0 0 0 0 0 0 0 0 0 0 0 0 0 0 0 0 0 0 0 0
0 0 0 0 0 0 0 0 0 0 0 0 0 0 0 0 0 0 0 0 0 0 0 0 0 0 0 0 0 0 0 0 0 0 0 0 0 0 0 0 0 0 0
0 0 0 0 0 0 0 0 0 0 0 0 0 0 0 0 0 0 0 0 0 0 0 0 0 0 0 0 0 0 0 0 0 0 0 0 0 0 0 0 0 0 0
0 0 0 0 0 0 0 0 0 0 0 0 0 0 0 0 0 0 0 0 0 0 0 0 0 0 0 0 0 0 0 0 0 0 0 0 0 0 0 0 0 0 0
0 0 0 0 0 0 0 0 0 0 0 0 0 0 0 0 0 0 0 0 0 0 0 0 0 0 0 0 0 0 0 0 0 0 0 0 0 0 0 0 0 0 0

GFSMA_con_mucape_009.txt.gz
CAPE
77 63 0 0 0 0 0 0 0 0 0 0 0 0 0 0 0 0 0 0 0 0 0 0 0 0 0 0 0 0 0 0 0 0 0 4 0 0 0 0 0 0 0
166 0 0 0 0 0 0 0 0 0 0 0 0 0 0 0 0 0 0 0 0 0 0 0 0 0 0 0 0 0 0 0 0 0 0 0 0 0 0 0 0 0 0
38 0 0 0 0 0 0 0 0 0 0 0 0 0 0 0 0 0 0 0 0 0 0 0 0 0 0 0 0 0 0 0 0 0 0 0 0 0 0 0 0 0 0
0 11 1 1 0 0 0 0 0 0 0 0 0 0 0 0 0 0 0 0 0 0 0 0 0 0 0 0 0 0 0 0 0 0 0 0 0 0 1 0 0 0 0
19 60 1 0 0 0 0 0 0 0 0 0 0 0 0 0 0 0 0 0 0 0 0 0 0 0 0 0 0 0 0 0 0 0 0 0 0 0 4 4 1 1 2
97 80 0 0 0 0 0 0 0 0 0 0 0 0 0 0 0 0 0 0 0 0 0 0 0 0 0 0 0 0 0 0 0 0 0 0 0 0 1 11 8 11 12
99 38 0 0 0 0 0 0 0 0 0 0 0 0 0 0 0 0 0 0 0 0 0 0 0 0 0 0 0 0 0 0 0 0 0 0 0 0 3 10 17 24 25
96 183 0 0 0 0 0 0 0 0 0 0 0 0 0 0 0 0 0 0 0 0 0 0 0 0 0 0 0 0 0 0 0 0 0 0 0 9 13 19 26 32 35
189 67 1 0 0 0 0 0 0 0 0 0 0 0 0 0 0 0 0 0 0 0 0 0 0 0 0 0 0 0 0 0 0 0 0 0 0 0 18 28 36 45 54
313 117 2 0 0 0 0 0 0 0 0 0 0 0 0 0 0 0 0 0 0 0 0 0 0 0 0 0 0 0 0 0 0 0 0 0 0 0 35 46 55 65 64
319 38 1 0 0 0 0 0 0 0 0 0 0 0 0 0 0 0 0 0 0 0 0 0 0 0 0 0 0 0 0 0 0 0 0 0 0 30 41 54 62 73 78
241 177 0 0 0 0 0 0 0 0 0 0 0 0 0 0 0 0 0 0 0 0 0 0 0 0 0 0 0 0 0 0 0 0 0 0 0 58 69 83 82 88 99
194 13 0 0 0 0 0 0 0 0 0 0 0 0 0 0 0 0 0 0 0 0 0 0 0 0 0 0 0 0 0 0 0 0 0 0 0 0 23 74 82 88 80
98 3 0 0 0 0 0 0 0 0 0 0 0 0 0 0 0 0 0 0 0 0 0 0 0 0 0 0 0 0 0 0 0 0 0 0 0 0 0 18 69 76 91
16 0 0 0 0 0 0 0 0 0 0 0 0 0 0 0 0 0 0 0 0 0 0 0 0 0 0 0 0 0 0 0 0 0 0 0 0 0 0 0 0 0 0
13 0 0 0 0 0 0 0 0 0 0 0 0 0 0 0 0 0 0 0 0 0 0 0 0 0 0 0 0 0 0 0 0 0 0 0 0 0 0 0 0 0 0
0 0 0 0 0 0 0 0 0 0 0 0 0 0 0 0 0 0 0 0 0 0 0 0 0 0 0 0 0 0 0 0 0 0 0 0 0 0 0 0 0 0 0
0 0 0 0 0 0 0 0 0 0 0 0 0 0 0 0 0 0 0 0 0 0 0 0 0 0 0 0 0 0 0 0 0 0 0 0 0 0 0 0 0 0 0
0 0 0 0 0 0 0 0 0 0 0 0 0 0 0 0 0 0 0 0 0 0 0 0 0 0 0 0 0 0 0 0 0 0 0 0 0 0 0 0 0 0 0
0 0 0 0 0 0 0 0 0 0 0 0 0 0 0 0 0 0 0 0 0 0 0 0 0 0 0 0 0 0 0 0 0 0 0 0 0 0 0 0 0 0 0
0 0 0 0 0 0 0 0 0 0 0 0 0 0 0 0 0 0 0 0 0 0 0 0 0 0 0 0 0 0 0 0 0 0 0 0 0 0 0 0 0 0 0
0 0 0 0 0 0 0 0 0 0 0 0 0 0 0 0 0 0 0 0 0 0 0 0 0 0 0 0 0 0 0 0 0 0 0 0 0 0 0 0 0 0 0
0 0 0 0 0 0 0 0 0 0 0 0 0 0 0 0 0 0 0 0 0 0 0 0 0 0 0 0 0 0 0 0 0 0 0 0 0 0 0 0 0 0 0
0 0 0 0 0 0 0 0 0 0 0 0 0 0 0 0 0 0 0 0 0 0 0 0 0 0 0 0 0 0 0 0 0 0 0 0 0 0 0 0 0 0 0
0 0 0 0 0 0 0 0 0 0 0 0 0 0 0 0 0 0 0 0 0 0 0 0 0 0 0 0 0 0 0 0 0 0 0 0 0 0 0 0 0 0 0
0 0 0 0 0 0 0 0 0 0 0 0 0 0 0 0 0 0 0 0 0 0 0 0 0 0 0 0 0 0 0 0 0 0 0 0 0 0 0 0 0 0 0

GFSMA_con_mucape_012.txt.gz
CAPE
2 0 12 2 0 0 0 0 0 0 0 0 0 0 0 0 0 0 0 0 0 0 0 0 0 0 0 0 0 0 0 0 0 0 0 0 0 0 0 0 0 0 0
34 52 18 0 0 0 0 0 0 0 0 0 0 0 0 0 0 0 0 0 0 0 0 0 0 0 0 0 0 0 0 0 0 0 0 0 0 0 0 0 0 0 0
37 25 0 0 0 0 0 0 0 0 0 0 0 0 0 0 0 0 0 0 0 0 0 0 0 0 0 0 0 0 0 0 0 0 0 0 0 0 0 0 0 0 0
117 51 0 0 0 0 0 0 0 0 0 0 0 0 0 0 0 0 0 0 0 0 0 0 0 0 0 0 0 0 0 0 0 0 0 0 0 0 0 0 2 1 0
238 0 5 1 0 0 0 0 0 0 0 0 0 0 0 0 0 0 0 0 0 0 0 0 0 0 0 0 0 0 0 0 0 0 0 0 0 0 0 0 7 9 4
120 55 27 1 0 0 0 0 0 0 0 0 0 0 0 0 0 0 0 0 0 0 0 0 0 0 0 0 0 0 0 0 0 0 0 0 0 0 0 2 5 12 12
138 97 34 2 0 0 0 0 0 0 0 0 0 0 0 0 0 0 0 0 0 0 0 0 0 0 0 0 0 0 0 0 0 0 0 0 0 0 9 14 15 18 24
191 171 70 36 0 0 0 0 0 0 0 0 0 0 0 0 0 0 0 0 0 0 0 0 0 0 0 0 0 0 0 0 0 0 0 0 0 0 0 18 20 25 34
250 233 119 89 5 0 0 0 0 0 0 0 0 0 0 0 0 0 0 0 0 0 0 0 0 0 0 0 0 0 0 0 0 0 0 0 0 0 0 2 33 40 45
322 293 135 16 73 0 0 0 0 0 0 0 0 0 0 0 0 0 0 0 0 0 0 0 0 0 0 0 0 0 0 0 0 0 0 0 0 0 0 44 51 55 57
362 312 161 100 86 0 0 0 0 0 0 0 0 0 0 0 0 0 0 0 0 0 0 0 0 0 0 0 0 0 0 0 0 0 0 0 0 0 47 54 68 57 65
298 336 246 161 4 0 0 0 0 0 0 0 0 0 0 0 0 0 0 0 0 0 0 0 0 0 0 0 0 0 0 0 0 0 0 0 0 23 73 76 70 68 74
172 25 269 112 14 0 0 0 0 0 0 0 0 0 0 0 0 0 0 0 0 0 0 0 0 0 0 0 0 0 0 0 0 0 0 33 53 54 66 75 91 85 83
101 144 244 175 0 0 0 0 0 0 0 0 0 0 0 0 0 0 0 0 0 0 0 0 0 0 0 0 0 0 0 0 0 0 0 42 28 5 7 65 74 69 76
202 259 38 57 0 0 0 0 0 0 0 0 0 0 0 0 0 0 0 0 0 0 0 0 0 0 0 0 0 0 0 0 0 0 0 0 0 0 0 52 53 57 45
250 2 21 2 0 0 0 0 0 0 0 0 0 0 0 0 0 0 0 0 0 0 0 0 0 0 0 0 0 0 0 0 0 0 0 0 0 0 0 0 0 0 0
61 4 10 0 0 0 0 0 0 0 0 0 0 0 0 0 0 0 0 0 0 0 0 0 0 0 0 0 0 0 0 0 0 0 0 0 0 0 0 0 0 0 0
5 5 8 0 0 0 0 0 0 0 0 0 0 0 0 0 0 0 0 0 0 0 0 0 0 0 0 0 0 0 0 0 0 0 0 0 0 0 0 0 0 0 0
6 10 0 0 0 0 0 0 0 0 0 0 0 0 0 0 0 0 0 0 0 0 0 0 0 0 0 0 0 0 0 0 0 0 0 0 0 0 0 0 0 0 0
11 2 0 0 0 0 0 0 0 0 0 0 0 0 0 0 0 0 0 0 0 0 0 0 0 0 0 0 0 0 0 0 0 0 0 0 0 0 0 0 0 0 0
6 0 0 0 0 0 0 0 0 0 0 0 0 0 0 0 0 0 0 0 0 0 0 0 0 0 0 0 0 0 0 0 0 0 0 0 0 0 0 0 0 0 0
0 0 0 0 0 0 0 0 0 0 0 0 0 0 0 0 0 0 0 0 0 0 0 0 0 0 0 0 0 0 0 0 0 0 0 0 0 0 0 0 0 0 0
0 0 0 0 0 0 0 0 0 0 0 0 0 0 0 0 0 0 0 0 0 0 0 0 0 0 0 0 0 0 0 0 0 0 0 0 0 0 0 0 0 0 0
0 0 0 0 0 0 0 0 0 0 0 0 0 0 0 0 0 0 0 0 0 0 0 0 0 0 0 0 0 0 0 0 0 0 0 0 0 0 0 0 0 0 0
0 0 0 0 0 0 0 0 0 0 0 0 0 0 0 0 0 0 0 0 0 0 0 0 0 0 0 0 0 0 0 0 0 0 0 0 0 0 0 0 0 0 0
0 0 0 0 0 0 0 0 0 0 0 0 0 0 0 0 0 0 0 0 0 0 0 0 0 0 0 0 0 0 0 0 0 0 0 0 0 0 0 0 0 0 0

GFSMA_con_mucape_015.txt.gz
CAPE
0 0 27 32 0 0 0 0 0 0 0 0 0 0 0 0 0 0 0 0 0 0 0 0 0 0 0 0 0 0 0 0 0 0 0 0 0 0 0 0 0 0 0
0 2 1 3 0 0 0 0 0 0 0 0 0 0 0 0 0 0 0 0 0 0 0 0 0 0 0 0 0 0 0 0 0 0 0 0 0 0 0 0 0 0 0
16 8 40 48 0 0 0 0 0 0 0 0 0 0 0 0 0 0 0 0 0 0 0 0 0 0 0 0 0 0 0 0 0 0 0 0 0 0 0 0 0 2 2
104 57 93 0 0 0 0 0 0 0 0 0 0 0 0 0 0 0 0 0 0 0 0 0 0 0 0 0 0 0 0 0 0 0 0 0 0 0 0 0 0 1 7
154 188 144 11 0 0 0 0 0 0 0 0 0 0 0 0 0 0 0 0 0 0 0 0 0 0 0 0 0 0 0 0 0 0 0 0 0 0 0 0 4 4 8
204 205 136 34 10 0 0 0 0 0 0 0 0 0 0 0 0 0 0 0 0 0 0 0 0 0 0 0 0 0 0 0 0 0 0 0 0 0 0 0 1 12 16
296 334 77 68 53 2 0 0 0 0 0 0 0 0 0 0 0 0 0 0 0 0 0 0 0 0 0 0 0 0 0 0 0 0 0 0 0 0 0 0 14 16 19
407 344 128 81 46 16 0 0 0 0 0 0 0 0 0 0 0 0 0 0 0 0 0 0 0 0 0 0 0 0 0 0 0 0 0 0 0 0 0 0 0 16 24
661 267 165 101 24 27 9 0 0 0 0 0 0 0 0 0 0 0 0 0 0 0 0 0 0 0 0 0 0 0 0 0 0 0 0 0 0 0 0 0 0 40 44
734 281 208 83 148 0 6 8 0 0 0 0 0 0 0 0 0 0 0 0 0 0 0 0 0 0 0 0 0 0 0 0 0 0 0 0 0 0 0 0 15 55 47
611 321 213 134 206 1 20 0 0 0 0 0 0 0 0 0 0 0 0 0 0 0 0 0 0 0 0 0 0 0 0 0 0 0 0 0 0 0 0 0 2 51 0
549 304 253 158 7 44 17 0 0 0 0 0 0 0 0 0 0 0 0 0 0 0 0 0 0 0 0 0 0 0 0 0 0 0 0 0 0 0 68 72 66 75 69
398 348 311 123 139 17 15 0 0 0 0 0 0 0 0 0 0 0 0 0 0 0 0 0 0 0 0 0 0 0 0 0 0 0 0 0 0 0 0 66 69 83 82
258 244 140 46 5 54 3 3 0 0 0 0 0 0 0 0 0 0 0 0 0 0 0 0 0 0 0 0 0 0 0 0 0 0 0 0 0 0 0 56 70 69 78
236 171 117 197 24 28 9 0 0 0 0 0 0 0 0 0 0 0 0 0 0 0 0 0 0 0 0 0 0 0 0 0 0 0 0 0 0 0 0 39 54 53 58
155 227 132 60 52 21 35 0 0 0 0 0 0 0 0 0 0 0 0 0 0 0 0 0 0 0 0 0 0 0 0 0 0 0 0 0 0 0 0 0 0 0 0
194 219 112 88 22 13 0 0 0 0 0 0 0 0 0 0 0 0 0 0 0 0 0 0 0 0 0 0 0 0 0 0 0 0 0 0 0 0 0 0 0 0 0
268 304 42 6 13 11 0 0 0 0 0 0 0 0 0 0 0 0 0 0 0 0 0 0 0 0 0 0 0 0 0 0 0 0 0 0 0 0 0 0 0 0 0
198 131 57 7 15 10 0 0 0 0 0 0 0 0 0 0 0 0 0 0 0 0 0 0 0 0 0 0 0 0 0 0 0 0 0 0 0 0 0 0 0 0 0
148 25 27 16 21 0 0 0 0 0 0 0 0 0 0 0 0 0 0 0 0 0 0 0 0 0 0 0 0 0 0 0 0 0 0 0 0 0 0 0 0 0 0
20 0 10 15 5 0 0 0 0 0 0 0 0 0 0 0 0 0 0 0 0 0 0 0 0 0 0 0 0 0 0 0 0 0 0 0 0 0 0 0 0 0 0
55 1 10 2 0 0 0 0 0 0 0 0 0 0 0 0 0 0 0 0 0 0 0 0 0 0 0 0 0 0 0 0 0 0 0 0 0 0 0 0 0 0 0
1 4 0 0 0 0 0 0 0 0 0 0 0 0 0 0 0 0 0 0 0 0 0 0 0 0 0 0 0 0 0 0 0 0 0 0 0 0 0 0 0 0 0
0 0 0 4 0 0 0 0 0 0 0 0 0 0 0 0 0 0 0 0 0 0 0 0 0 0 0 0 0 0 0 0 0 0 0 0 0 0 0 0 0 0 0
0 0 0 0 0 0 0 0 0 0 0 0 0 0 0 0 0 0 0 0 0 0 0 0 0 0 0 0 0 0 0 0 0 0 0 0 0 0 0 0 0 0 0
0 0 0 0 0 0 0 0 0 0 0 0 0 0 0 0 0 0 0 0 0 0 0 0 0 0 0 0 0 0 0 0 0 0 0 0 0 0 0 0 0 0 0

GFSMA_con_mucape_018.txt.gz
CAPE
38 86 0 3 0 0 0 0 0 0 0 0 0 0 0 0 0 0 0 0 0 0 0 0 0 0 0 0 0 0 0 0 0 0 0 0 0 0 0 0 0 0 0
80 84 18 39 0 0 0 0 0 0 0 0 0 0 0 0 0 0 0 0 0 0 0 0 0 0 0 0 0 0 0 0 0 0 0 0 0 0 0 0 0 0 0
2 0 35 25 3 0 0 0 0 0 0 0 0 0 0 0 0 0 0 0 0 0 0 0 0 0 0 0 0 0 0 0 0 0 0 0 0 0 0 0 0 0 4
1 18 48 22 56 0 0 0 0 0 0 0 0 0 0 0 0 0 0 0 0 0 0 0 0 0 0 0 0 0 0 0 0 0 0 0 0 0 0 0 0 5 3
110 21 44 98 110 0 0 0 0 0 0 0 0 0 0 0 0 0 0 0 0 0 0 0 0 0 0 0 0 0 0 0 0 0 0 0 0 0 0 0 0 0 12
308 78 79 99 83 7 1 0 0 0 0 0 0 0 0 0 0 0 0 0 0 0 0 0 0 0 0 0 0 0 0 0 0 0 0 0 0 0 0 0 0 0 3
347 84 98 188 113 9 16 0 0 0 0 0 0 0 0 0 0 0 0 0 0 0 0 0 0 0 0 0 0 0 0 0 0 0 0 0 0 0 0 0 0 0 0
527 211 254 251 102 13 0 0 0 0 0 0 0 0 0 0 0 0 0 0 0 0 0 0 0 0 0 0 0 0 0 0 0 0 0 0 0 0 0 0 0 0 0
608 686 594 377 89 8 0 0 0 0 0 0 0 0 0 0 0 0 0 0 0 0 0 0 0 0 0 0 0 0 0 0 0 0 0 0 0 0 0 0 0 0 33
835 741 604 451 144 46 6 0 0 0 0 0 0 0 0 0 0 0 0 0 0 0 0 0 0 0 0 0 0 0 0 0 0 0 0 0 0 0 0 0 0 0 0
349 466 387 545 221 111 6 3 5 4 0 0 0 0 0 0 0 0 0 0 0 0 0 0 0 0 0 0 0 0 0 0 0 0 0 0 0 0 0 0 0 0 0
451 337 492 558 274 160 77 25 28 11 0 0 0 0 0 0 0 0 0 0 0 0 0 0 0 0 0 0 0 0 0 0 0 0 0 0 0 0 0 0 0 0 0
418 381 292 585 349 214 8 8 16 3 0 0 0 0 0 0 0 0 0 0 0 0 0 0 0 0 0 0 0 0 0 0 0 0 0 0 0 0 0 0 0 0 66
270 284 134 601 344 80 72 23 1 3 2 0 0 0 0 0 0 0 0 0 0 0 0 0 0 0 0 0 0 0 0 0 0 0 0 0 0 0 0 0 0 0 63
192 286 119 296 162 180 79 22 6 17 1 0 0 0 0 0 0 0 0 0 0 0 0 0 0 0 0 0 0 0 0 0 0 0 0 0 0 0 0 0 0 0 39
278 225 114 233 206 127 67 73 23 3 1 0 0 0 0 0 0 0 0 0 0 0 0 0 0 0 0 0 0 0 0 0 0 0 0 0 0 0 0 0 0 0 0
202 139 195 356 145 88 31 35 4 0 2 0 0 0 0 0 0 0 0 0 0 0 0 0 0 0 0 0 0 0 0 0 0 0 0 0 0 0 0 0 0 0 0
185 162 184 269 148 67 5 12 7 6 0 0 0 0 0 0 0 0 0 0 0 0 0 0 0 0 0 0 0 0 0 0 0 0 0 0 0 0 0 0 0 0 0
71 120 116 203 147 32 4 9 26 3 0 0 0 0 0 0 0 0 0 0 0 0 0 0 0 0 0 0 0 0 0 0 0 0 0 0 0 0 0 0 0 0 0
140 133 165 149 25 0 2 9 14 1 0 0 0 0 0 0 0 0 0 0 0 0 0 0 0 0 0 0 0 0 0 0 0 0 0 0 0 0 0 0 0 0 0
85 73 54 19 4 2 4 5 1 0 0 0 0 0 0 0 0 0 0 0 0 0 0 0 0 0 0 0 0 0 0 0 0 0 0 0 0 0 0 0 0 0 0
66 118 39 1 0 0 5 0 0 0 0 0 0 0 0 0 0 0 0 0 0 0 0 0 0 0 0 0 0 0 0 0 0 0 0 0 0 0 0 0 0 0 0
97 85 0 1 0 0 0 0 2 0 0 0 0 0 0 0 0 0 0 0 0 0 0 0 0 0 0 0 0 0 0 0 0 0 0 0 0 0 0 0 0 0 0
6 0 0 0 0 0 0 0 0 2 0 0 0 0 0 0 0 0 0 0 0 0 0 0 0 0 0 0 0 0 0 0 0 0 0 0 0 0 0 0 0 0 0
0 0 0 0 0 0 0 5 0 0 0 0 0 0 0 0 0 0 0 0 0 0 0 0 0 0 0 0 0 0 0 0 0 0 0 0 0 0 0 0 0 0 0
0 0 0 0 3 0 0 0 0 0 0 0 0 0 0 0 0 0 0 0 0 0 0 0 0 0 0 0 0 0 0 0 0 0 0 0 0 0 0 0 0 0 0

GFSMA_con_mucape_021.txt.gz
CAPE
169 205 213 36 16 0 0 0 0 0 0 0 0 0 0 0 0 0 0 0 0 0 0 0 0 0 0 0 0 0 0 0 0 0 0 0 0 0 0 0 0 0 1
33 93 106 0 11 0 0 0 0 0 0 0 0 0 0 0 0 0 0 0 0 0 0 0 0 0 0 0 0 0 0 0 0 0 0 0 0 0 0 0 0 0 0
0 8 89 6 11 0 0 0 0 0 0 0 0 0 0 0 0 0 0 0 0 0 0 0 0 0 0 0 0 0 0 0 0 0 0 0 0 0 0 0 0 3 1
6 36 67 38 24 1 7 0 0 0 0 0 0 0 0 0 0 0 0 0 0 0 0 0 0 0 0 0 0 0 0 0 0 0 0 0 0 0 0 0 0 0 0
128 106 2 25 55 13 47 0 0 0 0 0 0 0 0 0 0 0 0 0 0 0 0 0 0 0 0 0 0 0 0 0 0 0 0 0 0 0 0 0 0 0 0
172 163 49 35 14 57 10 0 0 0 0 0 0 0 0 0 0 0 0 0 0 0 0 0 0 0 0 0 0 0 0 0 0 0 0 0 0 0 0 0 0 0 0
281 285 206 89 44 74 56 0 0 0 0 0 0 0 0 0 0 0 0 0 0 0 0 0 0 0 0 0 0 0 0 0 0 0 0 0 0 0 0 0 0 0 0
286 329 429 110 47 313 88 0 0 0 0 0 0 0 0 0 0 0 0 0 0 0 0 0 0 0 0 0 0 0 0 0 0 0 0 0 0 0 0 0 0 0 0
453 410 454 413 175 349 130 1 0 0 0 0 0 0 0 0 0 0 0 0 0 0 0 0 0 0 0 0 0 0 0 0 0 0 0 0 0 0 0 0 0 0 0
402 407 666 521 314 340 199 9 0 0 0 0 0 0 0 0 0 0 0 0 0 0 0 0 0 0 0 0 0 0 0 0 0 0 0 0 0 0 0 0 0 0 0
423 405 308 601 310 304 245 104 0 1 0 1 0 0 0 0 0 0 0 0 0 0 0 0 0 0 0 0 0 0 0 0 0 0 0 0 0 0 0 0 0 0 0
439 416 304 319 367 299 243 205 30 7 6 8 21 6 0 0 0 0 0 0 0 0 0 0 0 0 0 0 0 0 0 0 0 0 0 0 0 0 0 0 0 0 0
369 378 328 263 343 362 361 219 53 9 15 11 26 0 0 0 0 0 0 0 0 0 0 0 0 0 0 0 0 0 0 0 0 0 0 0 0 0 0 0 0 0 0
392 188 283 292 228 298 279 220 121 18 15 16 21 0 0 0 0 0 0 0 0 0 0 0 0 0 0 0 0 0 0 0 0 0 0 0 0 0 0 0 0 0 0
411 344 112 205 73 256 238 124 114 55 45 9 13 1 0 0 0 0 0 0 0 0 0 0 0 0 0 0 0 0 0 0 0 0 0 0 0 0 0 0 0 0 0
185 125 60 81 69 113 126 102 65 13 67 41 29 2 0 0 0 0 0 0 0 0 0 0 0 0 0 0 0 0 0 0 0 0 0 0 0 0 0 0 0 0 0
287 134 114 81 93 159 122 53 58 4 49 9 3 2 0 0 0 0 0 0 0 0 0 0 0 0 0 0 0 0 0 0 0 0 0 0 0 0 0 0 0 0 0
215 129 99 139 107 244 99 68 148 48 1 0 0 0 0 0 0 0 0 0 0 0 0 0 0 0 0 0 0 0 0 0 0 0 0 0 0 0 0 0 0 0 0
272 258 98 55 290 166 63 47 8 34 0 1 3 0 0 0 0 2 0 0 0 0 0 0 0 0 0 0 0 0 0 0 0 0 0 0 0 0 0 0 0 0 0
332 101 7 69 21 27 74 54 16 6 2 4 2 0 0 0 1 0 0 0 0 0 0 0 0 0 0 0 0 0 0 0 0 0 0 0 0 0 0 0 0 0 0
214 53 7 17 21 46 35 5 0 0 0 1 0 0 0 0 0 0 0 0 0 0 0 0 0 0 0 0 0 0 0 0 0 0 0 0 0 0 0 0 0 0 0
19 56 14 27 45 60 42 1 0 0 0 0 0 0 0 0 0 0 0 0 0 0 0 0 0 0 0 0 0 0 0 0 0 0 0 0 0 0 0 0 0 0 0
0 13 30 52 69 18 1 0 0 0 0 0 0 0 0 0 0 0 0 0 0 0 0 0 0 0 0 0 0 0 0 0 0 0 0 0 0 0 0 0 0 0 0
30 39 33 22 2 0 0 0 0 0 0 0 0 0 0 0 0 0 0 0 0 0 0 0 0 0 0 0 0 0 0 0 0 0 0 0 0 0 0 0 0 0 0
4 0 14 0 0 0 0 0 0 0 0 0 0 0 0 0 0 0 0 0 0 0 0 0 0 0 0 0 0 0 0 0 0 0 0 0 0 0 0 0 0 0 0
0 0 0 0 0 0 0 0 0 0 0 0 0 0 0 0 0 0 0 0 0 0 0 0 0 0 0 0 0 0 0 0 0 0 0 0 0 0 0 0 0 0 0

GFSMA_con_mucape_024.txt.gz
CAPE
414 438 346 243 108 0 0 0 0 0 0 0 0 0 0 0 0 0 0 0 0 0 0 0 0 0 0 0 0 0 0 0 0 0 0 0 0 0 0 0 0 0 0
125 258 257 188 54 0 0 0 0 0 0 0 0 0 0 0 0 0 0 0 0 0 0 0 0 0 0 0 0 0 0 0 0 0 0 0 0 0 0 0 1 2 1
2 88 125 115 4 0 0 0 0 0 0 0 0 0 0 0 0 0 0 0 0 0 0 0 0 0 0 0 0 0 0 0 0 0 0 0 0 0 0 0 0 0 0
26 6 55 72 2 2 0 0 0 0 0 0 0 0 0 0 0 0 0 0 0 0 0 0 0 0 0 0 0 0 0 0 0 0 0 0 0 0 0 0 0 0 0
26 0 0 40 10 33 0 1 0 0 0 0 0 0 0 0 0 0 0 0 0 0 0 0 0 0 0 0 0 0 0 0 0 0 0 0 0 0 0 0 0 0 0
95 14 14 43 9 53 8 23 0 0 0 0 0 0 0 0 0 0 0 0 0 0 0 0 0 0 0 0 0 0 0 0 0 0 0 0 0 0 0 0 0 0 0
362 165 103 49 0 27 6 44 0 0 0 0 0 0 0 0 0 0 0 0 0 0 0 0 0 0 0 0 0 0 0 0 0 0 0 0 0 0 0 0 0 0 18
530 299 216 143 56 32 45 98 14 0 0 0 0 0 0 0 0 0 0 0 0 0 0 0 0 0 0 0 0 0 0 0 0 0 0 0 0 0 0 0 0 0 0
737 458 293 205 121 182 72 376 47 0 0 0 0 0 0 0 0 0 0 0 0 0 0 0 0 0 0 0 0 0 0 0 0 0 0 0 0 0 0 0 0 0 0
738 700 499 251 222 290 211 45 126 21 0 0 0 0 0 0 0 0 0 0 0 0 0 0 0 0 0 0 0 0 0 0 0 0 0 0 0 0 0 0 0 0 0
710 726 654 303 290 237 374 113 166 87 7 0 0 0 0 0 0 0 0 0 0 0 0 0 0 0 0 0 0 0 0 0 0 0 0 0 0 0 0 0 0 0 0
608 610 670 341 363 258 325 269 256 186 91 13 4 11 5 1 0 0 0 0 0 0 0 0 0 0 0 0 0 0 0 0 0 0 0 0 0 0 0 0 0 0 0
514 481 475 324 368 271 314 329 255 168 88 12 24 12 15 29 6 0 0 0 0 0 0 0 0 0 0 0 0 0 0 0 0 0 0 0 0 0 0 0 0 0 0
517 469 403 286 293 344 298 261 299 164 124 37 14 25 8 32 14 4 7 0 0 0 0 0 0 0 0 0 0 0 0 0 0 0 0 0 0 0 0 0 0 0 0
315 446 359 250 218 289 245 154 139 128 111 82 9 52 10 17 13 14 11 1 0 0 0 0 0 0 0 0 0 0 0 0 0 0 0 0 0 0 0 0 0 0 0
150 222 397 344 224 203 162 95 69 97 112 49 38 2 0 0 7 5 0 0 0 0 0 0 0 0 0 0 0 0 0 0 0 0 0 0 0 0 0 0 0 0 0
205 159 194 279 292 151 54 84 53 103 127 61 6 3 13 0 2 0 2 0 0 0 0 0 0 0 0 0 0 0 0 0 0 0 0 0 0 0 0 0 0 0 0
109 199 142 324 240 176 51 89 63 62 82 122 20 0 7 11 0 0 0 0 0 0 0 0 0 0 0 0 0 0 0 0 0 0 0 0 0 0 0 0 0 0 0
108 95 149 140 176 97 42 50 55 25 58 51 26 12 0 4 0 0 0 0 0 0 0 0 0 0 0 0 0 0 0 0 0 0 0 0 0 0 0 0 0 0 0
36 43 26 52 158 132 39 24 14 81 51 30 20 2 0 0 0 0 0 0 0 0 0 0 0 0 0 0 0 0 0 0 0 0 0 0 0 0 0 0 0 0 0
44 62 70 90 145 19 0 19 62 2 26 60 23 0 0 0 0 0 0 0 0 0 0 0 0 0 0 0 0 0 0 0 0 0 0 0 0 0 0 0 0 0 0
84 128 197 94 67 0 0 4 22 21 36 20 0 0 0 0 0 0 0 0 0 0 0 0 0 0 0 0 0 0 0 0 0 0 0 0 0 0 0 0 0 0 0
137 249 89 69 8 0 6 29 25 27 0 0 0 0 0 0 0 0 0 0 0 0 0 0 0 0 0 0 0 0 0 0 0 0 0 0 0 0 0 0 0 0 0
124 36 33 2 0 10 8 6 0 0 0 0 0 0 0 0 0 0 0 0 0 0 0 0 0 0 0 0 0 0 0 0 0 0 0 0 0 0 0 0 0 0 0
0 0 0 1 21 0 0 0 0 0 0 0 0 0 0 0 0 0 0 0 0 0 0 0 0 0 0 0 0 0 0 0 0 0 0 0 0 0 0 0 0 0 0
0 0 0 0 0 0 0 0 0 0 0 0 0 0 0 0 0 0 0 0 0 0 0 0 0 0 0 0 0 0 0 0 0 0 0 0 0 0 0 0 0 0 0

GFSMA_con_mucape_027.txt.gz
CAPE
223 260 403 234 136 78 0 0 0 0 0 0 0 0 0 0 0 0 0 0 0 0 0 0 0 0 0 0 0 0 0 0 0 0 1 2 2 1 1 3 4 4 1
254 200 278 295 151 82 0 0 0 0 0 0 0 0 0 0 0 0 0 0 0 0 0 0 0 0 0 0 0 0 0 0 0 0 0 0 0 0 0 0 0 0 1
64 199 241 224 144 53 0 0 0 0 0 0 0 0 0 0 0 0 0 0 0 0 0 0 0 0 0 0 0 0 0 0 0 0 0 0 0 0 0 0 0 0 0
79 44 86 120 91 32 0 0 0 0 0 0 0 0 0 0 0 0 0 0 0 0 0 0 0 0 0 0 0 0 0 0 0 0 0 0 0 0 0 0 0 0 0
269 166 80 38 55 28 0 0 0 0 0 0 0 0 0 0 0 0 0 0 0 0 0 0 0 0 0 0 0 0 0 0 0 0 0 0 0 0 0 0 0 0 0
516 306 112 12 39 18 0 0 0 0 0 0 0 0 0 0 0 0 0 0 0 0 0 0 0 0 0 0 0 0 0 0 0 0 0 0 0 0 0 0 0 0 0
720 478 183 24 0 18 3 0 0 0 0 0 0 0 0 0 0 0 0 0 0 0 0 0 0 0 0 0 0 0 0 0 0 0 0 0 0 0 0 0 0 0 10
832 660 394 114 78 51 4 0 4 26 0 0 0 0 0 0 0 0 0 0 0 0 0 0 0 0 0 0 0 0 0 0 0 0 0 0 0 0 0 0 0 0 0
975 771 597 247 180 121 59 4 3 59 13 0 0 0 0 0 0 0 0 0 0 0 0 0 0 0 0 0 0 0 0 0 0 0 0 0 0 0 0 0 0 0 0
902 828 730 460 253 227 64 30 58 16 81 4 0 0 0 0 0 0 0 0 0 0 0 0 0 0 0 0 0 0 0 0 0 0 0 0 0 0 0 0 0 0 0
734 760 770 694 430 296 185 83 53 27 77 73 0 0 0 0 0 0 0 0 0 0 0 0 0 0 0 0 0 0 0 0 0 0 0 0 0 0 0 0 0 0 0
601 590 631 704 686 349 206 127 114 55 65 114 56 24 1 0 0 0 0 0 0 0 0 0 0 0 0 0 0 0 0 0 0 0 0 0 0 0 0 0 0 0 0
419 629 615 608 665 515 340 274 238 197 167 160 134 77 14 2 8 10 19 11 5 1 0 0 0 0 0 0 0 0 0 0 0 0 0 0 0 0 0 0 0 0 0
340 430 522 582 542 425 386 300 279 235 187 177 140 139 97 25 11 22 2 1 0 1 3 5 0 0 0 0 0 0 0 0 0 0 0 0 0 0 0 0 0 0 0
242 281 315 420 459 414 327 286 271 262 172 172 155 92 58 34 13 10 14 1 2 1 0 0 0 0 0 0 0 0 0 0 0 0 0 0 0 0 0 0 0 0 0
209 236 219 169 320 482 358 256 159 207 199 157 167 102 61 58 16 0 1 0 0 0 0 0 0 0 0 0 0 0 0 0 0 0 0 0 0 0 0 0 0 0 0
132 154 201 226 171 305 365 244 169 99 145 137 95 84 70 7 15 0 0 0 3 0 0 0 0 0 0 0 0 0 0 0 0 0 0 0 0 0 0 0 0 0 0
88 99 106 97 198 209 169 225 242 194 70 92 83 46 33 4 0 0 0 0 0 0 0 0 0 0 0 0 0 0 0 0 0 0 0 0 0 0 0 0 0 0 0
58 57 112 97 92 97 159 101 141 195 89 57 41 24 0 4 0 10 1 6 0 0 0 0 0 0 0 0 0 0 0 0 0 0 0 0 0 0 0 0 0 0 0
59 102 128 59 80 116 138 122 149 102 118 50 18 6 0 4 0 0 0 0 0 0 0 0 0 0 0 0 0 0 0 0 0 0 0 0 0 0 0 0 0 0 0
230 265 177 40 87 116 111 119 104 25 20 19 1 1 0 0 0 0 0 0 0 0 0 0 0 0 0 0 0 0 0 0 0 0 0 0 0 0 0 0 0 0 0
513 263 175 116 116 134 49 21 2 0 0 0 0 0 0 0 0 0 0 0 0 0 0 0 0 0 0 0 0 0 0 0 0 0 0 0 0 0 0 0 0 0 0
175 279 66 51 72 30 28 0 0 1 4 4 0 0 0 0 0 0 0 0 0 0 0 0 0 0 0 0 0 0 0 0 0 0 0 0 0 0 0 0 0 0 0
14 20 72 95 49 10 1 8 1 1 2 0 0 0 0 0 0 0 0 0 0 0 0 0 0 0 0 0 0 0 0 0 0 0 0 0 0 0 0 0 0 0 0
9 31 9 4 0 0 0 0 0 0 0 0 0 0 0 0 0 0 0 0 0 0 0 0 0 0 0 0 0 0 0 0 0 0 0 0 0 0 0 0 0 0 0
1 4 0 0 0 0 0 0 0 0 0 0 0 0 0 0 0 0 0 0 0 0 0 0 0 0 0 0 0 0 0 0 0 0 0 0 0 0 0 0 0 0 0

GFSMA_con_mucape_030.txt.gz
CAPE
217 278 312 462 301 148 0 0 0 0 0 0 0 0 0 0 0 0 2 0 0 0 0 0 0 0 0 0 0 0 0 0 0 1 1 0 0 0 1 1 1 0 0
173 262 397 330 374 152 41 0 0 0 0 0 0 0 0 0 0 0 0 0 0 0 0 0 0 0 0 0 0 0 0 0 0 0 0 0 0 0 0 0 0 0 0
126 217 232 250 359 149 64 8 0 0 0 0 0 0 0 0 0 0 0 0 0 0 0 0 0 0 0 0 0 0 0 0 0 0 0 0 0 0 0 0 0 0 0
102 147 252 199 249 138 52 10 0 0 0 0 0 0 0 0 0 0 0 0 0 0 0 0 0 0 0 0 0 0 0 0 0 0 0 0 0 0 0 0 0 0 0
332 156 137 312 265 53 9 0 0 0 0 0 0 0 0 0 0 0 0 0 0 0 0 0 0 0 0 0 0 0 0 0 0 0 0 0 0 0 0 0 0 0 0
526 350 187 159 168 33 0 0 0 0 0 0 0 0 0 0 0 0 0 0 0 0 0 0 0 0 0 0 0 0 0 0 0 0 0 0 0 0 0 0 0 0 0
562 366 406 234 160 100 0 2 0 0 0 0 0 0 0 0 0 0 0 0 0 0 0 0 0 0 0 0 0 0 0 0 0 0 0 0 0 0 0 0 0 0 13
688 513 404 377 194 143 31 7 4 0 0 0 0 0 0 0 0 0 0 0 0 0 0 0 0 0 0 0 0 0 0 0 0 0 0 0 0 0 0 0 0 0 0
712 588 403 439 409 325 82 72 48 8 1 0 0 0 0 0 0 0 0 0 0 0 0 0 0 0 0 0 0 0 0 0 0 0 0 0 0 0 0 0 0 0 0
1030 702 481 458 490 417 90 118 92 47 10 0 13 0 0 0 0 0 0 0 0 0 0 0 0 0 0 0 0 0 0 0 0 0 0 0 0 0 0 0 0 0 0
348 936 319 381 468 438 266 182 191 54 13 5 11 31 3 0 0 0 0 0 0 0 0 0 0 0 0 0 0 0 0 0 0 0 0 0 0 0 0 0 0 0 0
642 627 496 205 408 529 447 289 306 114 59 38 24 42 61 25 3 0 0 0 0 0 0 0 0 0 0 0 0 0 0 0 0 0 0 0 0 0 0 0 0 0 0
352 531 478 300 275 395 531 381 349 325 126 68 35 41 89 74 24 7 0 0 0 0 0 0 0 0 0 0 0 0 0 0 0 0 0 0 0 0 0 0 0 0 0
231 145 194 239 279 232 403 360 280 253 271 171 75 80 80 150 92 22 27 14 5 0 3 0 0 0 0 0 0 0 0 0 0 0 0 0 0 0 0 0 0 0 0
218 522 364 344 317 296 290 320 310 284 247 260 257 190 127 122 117 105 40 7 4 11 5 5 0 0 0 0 0 0 0 0 0 0 0 0 0 0 0 0 0 0 0
206 252 122 162 201 250 268 255 275 294 240 245 268 263 130 66 149 64 53 15 0 4 0 0 1 0 3 0 0 0 0 0 0 0 0 0 0 0 0 0 0 0 0
94 106 83 108 90 131 135 188 176 227 205 210 233 132 41 20 97 86 16 68 0 0 0 0 0 0 1 0 0 0 0 0 0 0 0 0 0 0 0 0 0 0 0
18 38 118 102 227 206 182 130 97 152 241 245 144 52 0 0 87 6 63 9 2 5 0 3 0 0 0 0 0 0 0 0 0 0 0 0 0 0 0 0 0 0 0
5 22 81 55 140 177 213 171 197 194 257 260 217 194 94 4 0 2 3 2 0 0 0 0 0 0 0 0 0 0 0 0 0 0 0 0 0 0 0 0 0 0 0
10 24 47 44 141 271 153 178 242 215 273 194 124 184 35 4 3 26 0 11 0 0 0 0 0 0 0 0 0 0 0 0 0 0 0 0 0 0 0 0 0 0 0
0 18 83 139 257 236 136 251 215 292 212 182 140 81 18 14 13 1 0 0 0 0 0 0 0 0 1 0 0 0 0 0 0 0 0 0 0 0 0 0 0 0 0
32 128 278 255 299 205 290 176 100 153 112 106 11 7 0 0 0 0 0 0 0 0 0 0 0 0 0 0 0 0 0 0 0 0 0 0 0 0 0 0 0 0 0
148 182 211 228 86 70 169 131 74 24 0 1 2 2 4 0 0 0 0 0 0 0 0 0 0 0 0 0 0 0 0 0 0 0 0 0 0 0 0 0 0 0 0
9 17 70 213 140 140 94 54 10 8 0 1 0 0 0 0 0 8 5 2 0 0 0 0 0 0 0 0 0 0 0 0 0 0 0 0 0 0 0 0 0 0 0
5 2 33 16 30 11 6 5 0 5 1 0 0 0 0 0 0 0 0 0 0 0 0 0 0 0 0 0 0 0 0 0 0 0 0 0 0 0 0 0 0 0 0
0 0 0 0 0 0 0 0 0 3 0 0 0 0 0 0 0 0 0 0 0 0 0 0 0 0 0 0 0 0 0 0 0 0 0 0 0 0 0 0 0 0 0

GFSMA_con_mucape_033.txt.gz
CAPE
365 330 397 270 186 123 31 0 0 0 0 0 0 0 0 0 0 0 0 0 0 0 0 0 0 0 0 0 0 0 0 0 1 1 0 0 0 2 2 2 1 2 2
241 193 208 420 435 266 115 4 0 0 0 0 0 0 0 0 0 0 0 0 0 0 0 0 0 0 0 0 0 0 0 0 0 0 0 0 0 0 0 0 0 0 1
136 113 179 276 310 413 131 30 0 0 0 0 0 0 0 0 0 0 0 0 0 0 0 0 0 0 0 0 0 0 0 0 0 0 0 0 0 0 0 0 0 0 0
152 123 193 364 142 324 256 57 0 0 0 0 0 0 0 0 0 0 0 0 0 0 0 0 0 0 0 0 0 0 0 0 0 0 0 0 0 0 0 0 0 0 0
273 188 238 353 171 208 285 45 0 0 0 0 0 0 0 0 0 0 0 0 0 0 0 0 0 0 0 0 0 0 0 0 0 0 0 0 0 0 0 0 0 0 0
711 522 341 319 320 363 170 8 1 0 0 0 0 0 0 0 0 0 0 0 0 0 0 0 0 0 0 0 0 0 0 0 0 0 0 0 0 0 0 0 0 0 0
984 873 648 429 295 213 182 78 33 3 0 0 0 0 0 0 0 0 0 0 0 0 0 0 0 0 0 0 0 0 0 0 0 0 0 0 0 0 0 0 0 0 0
1187 1016 852 656 508 405 198 76 73 28 0 0 0 0 0 0 0 0 0 0 0 0 0 0 0 0 0 0 0 0 0 0 0 0 0 0 0 0 0 0 0 0 0
1130 1031 1083 758 688 570 313 118 83 61 46 11 7 0 0 0 0 0 0 0 0 0 0 0 0 0 0 0 0 0 0 0 0 0 0 0 0 0 0 0 0 0 0
526 1014 1140 789 618 516 276 198 128 99 56 67 52 0 0 0 0 0 0 0 0 0 0 0 0 0 0 0 0 0 0 0 0 0 0 0 0 0 0 0 0 0 0
583 610 770 801 831 569 330 230 124 132 92 86 124 37 31 20 13 2 0 0 0 0 0 0 0 0 0 0 0 0 0 0 0 0 0 0 0 0 0 0 0 0 0
742 647 856 756 970 732 322 191 168 130 155 137 172 71 37 22 41 27 8 0 13 10 0 0 0 0 0 0 0 0 0 0 0 0 0 0 0 0 0 0 0 0 0
320 602 646 677 508 828 811 493 172 154 177 179 240 150 79 55 42 94 89 35 10 2 0 0 0 0 0 0 0 0 0 0 0 0 0 0 0 0 0 0 0 0 0
25 176 454 516 455 548 690 632 440 205 170 163 246 260 133 135 92 68 53 42 40 3 0 0 0 1 0 0 0 0 0 0 0 0 0 0 0 0 0 0 0 0 0
68 127 269 429 413 376 380 289 433 388 214 238 248 188 255 214 171 64 17 45 82 8 0 0 2 1 5 1 2 0 0 0 0 2 0 0 0 0 0 0 0 0 0
5 16 221 208 412 457 367 329 242 115 134 160 176 204 166 188 257 165 163 91 0 1 35 3 0 1 4 0 1 3 1 0 0 0 0 0 0 0 0 0 0 0 0
13 40 77 198 261 230 295 445 227 159 146 157 121 168 178 179 205 50 46 72 0 0 0 0 0 22 2 0 0 0 0 0 0 0 0 0 0 0 0 0 0 0 0
2 11 32 55 103 81 149 180 141 143 113 133 125 235 338 286 193 127 7 1 0 0 0 0 6 0 0 0 0 0 0 0 0 0 0 0 0 0 0 0 0 0 0
0 0 0 0 21 41 65 107 153 179 248 113 136 149 227 155 65 31 3 4 0 0 0 0 2 0 0 0 0 0 0 0 0 0 0 0 0 0 0 0 0 0 0
0 0 0 0 2 14 64 82 113 189 183 286 405 296 267 161 100 1 0 0 0 7 1 3 0 0 0 0 0 0 0 0 0 0 0 0 0 0 0 0 0 0 0
0 0 0 0 0 12 87 142 132 170 257 315 330 275 228 135 34 10 4 7 0 0 0 0 0 0 0 0 0 0 0 0 0 0 0 0 0 0 0 0 0 0 0
0 0 4 2 84 83 108 94 94 138 152 369 321 210 72 10 0 3 0 0 0 2 5 6 0 0 0 0 0 0 0 0 0 0 0 0 0 0 0 0 0 0 0
3 5 1 5 28 102 63 50 109 124 180 137 106 113 45 16 1 0 0 10 4 0 0 1 0 0 0 0 0 0 0 0 0 0 0 0 0 0 0 0 0 0 0
4 5 4 3 9 17 13 14 24 15 61 9 25 2 0 0 4 12 4 1 0 0 0 0 0 0 0 0 0 0 0 0 0 0 0 0 0 0 0 0 0 0 0
1 0 0 2 1 6 1 6 4 2 1 2 1 0 0 2 0 1 0 0 0 0 0 0 0 0 0 0 0 0 0 0 0 0 0 0 0 0 0 0 0 0 0
0 0 0 0 0 0 1 0 0 0 0 0 0 0 0 0 0 0 0 0 0 0 0 0 0 0 0 0 0 0 0 0 0 0 0 0 0 0 0 0 0 0 0

GFSMA_con_mucape_036.txt.gz
CAPE
96 126 138 66 35 33 8 0 0 0 0 0 0 0 0 0 0 0 0 0 0 0 0 1 0 0 1 0 0 0 0 1 1 0 0 0 1 1 1 2 1 2 2
120 135 173 226 151 69 84 20 8 0 0 0 0 0 0 0 0 0 0 0 0 0 0 0 0 0 2 0 0 0 0 0 0 0 0 0 0 0 0 0 0 0 0
138 159 119 166 224 195 115 121 30 0 0 0 0 0 0 0 0 0 0 0 0 0 0 0 0 0 0 0 0 0 0 0 0 0 0 0 0 0 0 0 0 0 0
94 84 53 129 149 256 301 147 44 0 0 0 0 0 0 0 0 0 0 0 0 0 0 0 0 0 0 0 0 0 0 0 0 0 0 0 0 0 0 0 0 0 0
194 121 71 64 198 162 239 155 60 45 0 0 0 0 0 0 0 0 0 0 0 0 0 0 0 0 0 0 0 0 0 0 0 0 0 0 0 0 0 0 0 0 0
427 248 207 103 196 172 233 183 105 80 17 0 0 0 0 0 0 0 0 0 0 0 0 0 0 0 0 0 0 0 0 0 0 0 0 0 0 0 0 0 0 0 0
619 523 310 253 126 235 233 190 127 59 45 25 7 0 0 0 0 0 0 0 0 0 0 0 0 0 0 0 0 0 0 0 0 0 0 0 0 0 0 0 0 0 0
879 790 597 487 277 246 342 267 119 124 130 50 35 16 0 0 0 0 0 0 0 0 0 0 0 0 0 0 0 0 0 0 0 0 0 0 0 0 0 0 0 0 0
670 1051 849 679 682 345 354 305 231 178 151 58 45 38 12 1 3 2 0 0 0 0 0 0 0 0 0 0 0 0 0 0 0 0 0 0 0 0 0 0 0 0 0
447 501 652 805 656 706 877 394 295 224 153 109 67 60 39 17 24 12 0 0 16 6 1 0 0 0 0 0 0 0 0 0 0 0 0 0 0 0 0 0 0 0 0
551 581 463 384 706 696 684 653 492 242 139 131 120 124 79 51 53 35 9 13 30 37 25 0 0 0 0 0 0 0 0 0 0 0 0 0 0 0 0 0 0 0 0
321 615 588 708 782 680 755 765 570 553 177 126 94 140 158 141 132 106 52 7 27 43 27 1 0 0 0 0 0 0 0 0 0 0 0 0 0 0 0 0 0 0 0
197 298 324 371 642 555 601 744 707 603 566 373 220 150 148 182 139 222 80 54 135 79 66 15 2 6 3 0 0 0 0 0 0 0 0 0 0 0 0 0 0 0 0
23 93 105 119 234 359 427 448 623 604 626 401 505 431 186 125 72 168 231 124 69 86 60 8 0 6 0 2 4 2 0 1 0 0 1 4 2 0 0 0 0 0 0
2 12 18 35 75 140 460 376 381 512 555 438 449 475 172 104 122 96 202 150 85 84 15 12 1 10 5 3 2 4 2 1 2 3 1 4 3 0 0 0 0 0 1
0 0 0 0 2 75 194 219 325 411 451 430 414 416 333 126 128 110 134 177 40 56 19 11 7 0 3 1 3 0 1 0 3 1 1 4 0 0 0 0 0 0 0
0 0 0 0 1 4 26 91 133 176 246 279 351 173 230 164 150 134 86 122 26 58 0 0 0 0 0 0 0 1 0 1 2 3 6 0 0 0 0 0 0 0 0
0 0 0 0 0 0 5 29 61 75 130 143 87 152 92 95 96 126 243 227 31 1 1 0 0 0 0 0 7 1 0 0 0 0 0 0 0 0 0 0 0 0 0
0 0 0 0 0 0 1 3 0 8 21 70 80 208 177 154 131 57 65 53 33 2 0 0 2 2 0 0 0 3 1 0 0 0 0 0 0 0 0 0 0 0 0
0 0 0 0 0 0 0 0 0 1 15 51 135 208 342 276 271 94 0 7 1 0 0 0 9 0 0 0 0 0 0 0 0 0 0 0 0 0 0 0 0 0 0
0 0 0 0 0 0 0 0 0 7 11 46 127 164 176 134 119 54 43 6 1 0 0 1 2 2 1 0 0 0 0 0 0 0 0 0 0 0 0 0 0 0 0
0 0 0 0 1 1 1 2 1 20 24 30 98 69 129 188 88 24 3 1 7 0 0 0 0 0 0 0 0 0 0 0 0 0 0 0 0 0 0 0 0 0 0
0 1 4 4 1 4 3 1 0 2 7 19 21 37 105 79 43 2 6 4 4 5 0 0 0 0 0 0 0 0 0 0 0 0 0 0 0 0 0 0 0 0 0
0 0 0 0 0 0 0 7 0 0 3 1 5 0 1 5 0 0 0 0 0 0 0 0 0 0 0 0 0 0 0 0 0 0 0 0 0 0 0 0 0 0 0
0 0 0 0 0 0 1 0 0 0 0 0 0 0 1 0 0 0 0 0 0 0 0 0 0 0 0 0 0 0 0 0 0 0 0 0 0 0 0 0 0 0 0
0 0 0 0 0 0 0 0 0 0 0 0 0 0 0 0 0 0 0 0 0 0 0 0 0 0 0 0 0 0 0 0 0 0 0 0 0 0 0 0 0 0 0

GFSMA_con_mucape_039.txt.gz
CAPE
0 6 16 13 29 33 22 9 1 0 0 0 0 0 0 0 0 0 0 0 0 0 0 2 2 5 1 0 1 0 1 2 0 1 1 0 0 0 0 1 1 3 3
59 0 34 44 60 67 50 31 18 2 0 0 0 0 0 0 0 0 0 0 0 0 0 0 1 5 1 0 0 0 0 0 0 0 0 0 0 0 0 0 0 0 0
89 102 114 107 104 116 58 27 36 13 8 0 0 0 0 0 0 0 0 0 0 0 0 0 0 5 4 0 0 0 0 0 0 0 0 0 0 0 0 0 0 0 0
37 87 128 148 169 240 152 81 40 65 0 0 0 0 0 0 0 0 0 0 0 0 0 0 0 0 3 0 0 0 0 0 0 0 0 0 0 0 0 0 0 0 0
116 61 101 153 141 195 297 258 169 65 58 0 0 0 0 0 0 0 0 0 0 0 0 0 0 0 0 0 0 0 0 0 0 0 0 0 0 0 0 0 0 0 0
291 256 241 137 110 155 166 332 276 148 100 20 26 20 0 0 0 0 0 0 0 0 0 0 0 0 0 0 0 0 0 0 0 0 0 0 0 0 0 0 0 0 0
626 530 286 243 197 162 194 228 221 198 190 114 25 23 0 0 0 0 0 0 0 0 0 0 0 0 0 0 0 0 0 0 0 0 0 0 0 0 0 0 0 0 0
701 509 425 491 277 244 217 257 271 207 194 121 138 80 3 1 0 3 0 0 0 0 0 0 0 0 0 0 0 0 0 0 0 0 0 0 0 0 0 0 0 0 0
264 252 341 345 453 450 308 234 207 202 216 139 79 86 25 6 18 20 10 8 16 1 0 0 0 0 0 0 0 0 0 0 0 0 0 0 0 0 0 0 0 0 0
335 306 213 211 388 467 438 488 496 303 418 196 109 95 90 43 49 22 39 39 40 30 4 0 19 7 0 0 0 0 0 0 0 0 0 0 0 0 0 0 0 0 0
463 473 415 376 323 297 466 535 444 445 412 324 267 171 77 78 42 38 39 46 42 60 43 22 18 14 20 3 0 0 0 0 0 0 0 0 0 0 0 0 0 0 0
0 200 366 486 553 258 272 366 462 452 464 463 393 427 285 189 137 62 48 64 78 97 102 39 17 32 20 4 0 0 0 0 0 0 0 0 0 0 0 0 0 0 0
0 36 183 278 250 243 188 228 282 338 339 398 462 379 195 101 82 221 328 146 57 77 95 37 43 46 41 17 0 0 0 0 0 0 0 3 4 2 0 0 2 9 0
0 0 9 18 13 20 40 48 71 115 195 259 228 369 209 137 189 215 215 354 71 50 45 17 3 27 25 21 30 0 3 5 0 1 1 1 4 0 0 1 10 2 0
0 0 0 0 0 24 38 64 70 83 126 178 251 323 344 379 341 255 242 217 112 33 41 16 32 0 4 1 1 2 1 1 0 0 1 0 1 0 1 0 0 0 0
1 1 0 0 0 0 2 27 54 52 43 124 264 418 388 384 230 201 151 133 91 134 8 10 11 0 0 0 1 1 0 1 0 1 1 0 2 3 0 0 0 0 0
0 0 0 0 0 0 0 0 0 0 6 22 55 204 257 207 238 16 53 70 107 112 83 74 18 2 1 0 0 0 0 0 0 1 0 0 2 0 0 0 0 0 0
0 0 0 0 0 0 0 0 0 0 0 2 10 6 7 4 59 125 60 17 21 64 44 145 8 0 0 0 2 0 0 0 0 0 0 0 0 0 0 0 0 0 0
0 0 0 0 0 0 0 0 0 0 0 0 0 0 0 0 4 103 221 240 93 26 0 19 8 0 0 0 0 0 0 0 0 0 0 0 0 0 0 0 0 0 0
0 0 0 0 0 0 0 0 0 0 0 0 0 1 1 4 97 185 169 63 33 13 15 1 1 0 0 0 0 0 0 0 0 0 0 0 0 0 0 0 0 0 0
0 0 0 0 0 0 0 0 0 0 0 1 1 4 21 6 5 23 59 14 51 13 2 0 0 2 0 0 0 0 0 0 0 0 0 0 0 0 0 0 0 0 0
0 0 0 0 2 0 2 2 4 3 1 0 2 3 6 7 8 18 6 7 11 6 0 0 0 0 0 0 0 0 0 0 0 0 0 0 0 0 0 0 0 0 0
0 0 0 0 0 0 0 0 0 0 0 0 0 0 0 3 0 0 2 0 0 0 0 0 0 0 0 0 0 0 0 0 0 0 0 0 0 0 0 0 0 0 0
0 0 0 0 0 0 0 0 0 0 0 0 0 8 1 1 2 2 0 0 0 0 0 0 0 0 0 0 0 0 0 0 0 0 0 0 0 0 0 0 0 0 0
0 0 0 0 0 0 0 0 0 0 0 0 0 0 0 0 0 0 0 0 0 0 0 0 0 0 0 0 0 0 0 0 0 0 0 0 0 0 0 0 0 0 0
0 0 0 0 0 0 0 0 0 0 0 0 0 0 0 0 0 0 0 0 0 0 0 0 0 0 0 0 0 0 0 0 0 0 0 0 0 0 0 0 0 0 0

GFSMA_con_mucape_042.txt.gz
CAPE
0 0 9 21 61 65 42 18 0 0 0 0 0 0 0 0 0 0 0 0 52 27 1 6 5 7 6 0 3 1 5 1 1 2 1 0 0 0 0 1 2 4 4
29 26 25 19 47 48 41 31 0 0 0 0 0 0 0 0 0 0 0 0 1 29 0 0 2 0 8 2 6 2 4 0 0 0 0 0 0 0 0 0 0 0 0
81 59 52 48 67 68 49 54 48 31 15 8 12 0 0 0 0 0 0 0 0 0 0 0 0 0 0 6 8 2 4 0 0 0 0 0 0 0 0 0 0 0 0
78 72 92 101 102 106 84 67 54 22 31 31 21 0 0 0 0 0 0 0 0 0 0 0 0 0 0 0 5 4 0 0 0 0 0 0 0 0 0 0 0 0 0
174 88 98 82 82 128 140 130 126 87 75 0 11 37 0 0 0 0 0 0 0 0 0 0 0 0 0 0 4 1 0 0 0 0 0 0 0 0 0 0 0 0 0
350 250 183 156 136 156 178 195 253 222 233 158 109 126 33 0 5 0 0 0 0 0 0 0 0 0 0 0 0 0 0 0 0 0 0 0 0 0 0 0 0 0 0
462 274 201 215 212 233 201 168 199 294 247 249 181 118 42 30 9 17 9 0 0 0 0 0 0 0 0 0 0 0 0 0 0 0 0 0 0 0 0 0 0 0 0
543 522 441 316 288 186 235 202 220 204 240 300 242 120 47 0 1 52 25 20 15 17 11 15 12 0 0 0 0 0 0 0 0 0 0 0 0 0 0 0 0 0 0
373 287 228 200 186 177 165 234 224 261 214 173 108 83 26 0 1 4 15 19 19 14 30 33 45 29 0 0 0 0 0 0 0 0 0 0 0 0 0 0 0 0 0
30 108 161 160 118 148 209 202 208 230 276 224 171 142 137 89 62 3 0 15 31 23 21 34 35 47 2 2 4 0 0 0 0 0 0 0 0 0 0 0 0 0 0
0 0 40 290 233 162 120 106 121 260 240 201 159 202 186 144 115 158 112 35 71 62 44 34 41 56 77 30 5 2 0 0 0 0 0 0 0 0 0 0 0 0 0
0 0 0 57 221 193 122 65 85 88 73 70 103 258 258 175 67 132 134 44 5 21 47 124 86 56 75 10 3 5 4 0 0 0 0 0 0 0 0 0 0 1 0
0 0 0 22 138 223 80 57 29 21 67 70 33 59 161 100 76 141 74 42 6 1 0 23 81 61 27 14 8 5 6 1 0 0 0 0 0 0 0 0 0 2 3
0 0 0 0 4 4 12 12 7 1 10 26 36 63 73 81 83 170 134 109 52 8 15 23 3 79 26 5 24 13 1 2 1 1 0 0 0 1 0 0 1 0 0
0 0 0 0 0 0 0 0 0 0 6 13 49 68 68 61 41 72 151 228 288 55 4 28 17 14 44 6 0 2 3 1 0 0 0 0 0 0 0 0 0 0 0
0 0 0 0 0 0 0 0 0 0 0 0 0 2 13 27 28 49 110 141 7 0 0 0 20 28 9 12 5 1 1 0 4 0 0 0 0 0 0 0 0 0 0
0 0 0 0 0 0 0 0 0 0 0 0 0 1 4 14 21 28 25 18 22 69 0 0 0 46 39 7 0 2 0 0 1 1 0 0 0 0 0 0 0 0 0
0 0 0 0 0 0 0 0 0 0 0 0 0 0 1 4 1 0 0 0 0 36 14 0 0 1 1 0 0 0 0 0 0 0 0 1 0 0 0 0 0 0 0
0 0 0 0 0 0 0 0 0 0 0 0 0 0 0 0 0 0 0 0 3 12 29 16 0 1 0 0 0 0 0 0 0 0 0 0 4 0 0 0 0 0 0
0 0 0 0 0 0 0 0 0 0 0 0 0 0 0 0 0 1 2 3 9 20 11 9 0 0 0 0 0 0 0 0 0 6 4 0 0 0 0 0 0 0 0
0 0 0 0 0 0 0 0 0 0 0 0 0 0 0 2 3 3 1 3 0 0 11 2 0 0 0 0 0 0 0 0 0 0 0 0 0 0 0 0 0 0 0
0 0 0 0 0 0 0 0 0 0 0 0 0 0 0 0 0 0 0 0 0 2 4 0 0 0 0 0 0 0 0 0 0 0 0 0 0 0 0 0 0 0 0
0 0 0 0 0 0 0 0 0 0 0 0 0 0 0 0 0 0 0 0 0 0 0 0 0 0 0 0 0 0 0 0 0 0 0 0 0 0 0 0 0 0 0
0 0 0 0 0 0 0 0 0 0 0 0 0 0 0 0 0 0 0 0 0 0 0 0 0 0 0 0 0 0 0 0 0 0 0 0 0 0 0 0 0 0 0
0 0 0 0 0 0 0 0 0 0 0 0 0 0 0 0 0 0 0 0 0 0 0 0 0 0 0 0 0 0 0 0 0 0 0 0 0 0 0 0 0 0 0
0 0 0 0 0 0 0 0 0 0 0 0 0 0 0 0 0 0 0 0 0 0 0 0 0 0 0 0 0 0 0 0 0 0 0 0 0 0 0 0 0 0 0

GFSMA_con_mucape_045.txt.gz
CAPE
0 0 0 10 21 29 47 34 17 0 0 0 0 0 0 0 0 0 16 52 72 164 36 19 10 11 0 0 3 1 3 1 1 4 2 2 2 2 3 3 2 3 3
10 0 0 0 0 18 41 35 31 6 0 0 0 0 0 0 0 0 0 0 4 92 105 20 9 10 5 0 1 3 5 2 4 4 0 0 0 0 0 1 1 1 3
14 25 18 28 44 37 53 54 49 27 15 0 0 0 0 0 0 0 0 0 0 15 74 18 7 6 11 0 0 7 9 5 4 0 0 0 0 0 0 0 0 0 0
145 50 28 35 47 59 52 46 59 57 26 17 16 24 20 8 0 0 0 0 0 0 0 68 70 4 7 0 0 0 8 9 0 0 0 0 0 0 0 0 0 0 0
127 167 147 86 69 46 31 47 91 101 97 78 60 55 37 45 26 11 0 0 0 0 0 0 0 14 12 10 0 0 20 14 0 0 0 0 0 0 0 0 0 0 0
311 312 318 220 164 136 128 122 97 152 162 167 141 143 103 51 1 1 2 5 15 12 10 3 0 0 0 9 0 0 21 20 7 0 0 0 0 0 0 0 0 0 0
342 369 295 203 129 123 164 189 156 136 178 202 123 70 75 83 75 72 42 8 1 71 31 29 19 14 3 0 21 0 0 24 23 3 0 0 0 0 0 0 0 0 0
511 399 320 226 202 170 162 162 164 115 124 146 119 88 18 0 0 1 31 6 5 35 25 40 18 18 32 15 3 0 0 0 37 21 0 0 0 0 0 0 0 0 0
546 340 348 348 249 177 136 147 115 138 155 147 181 91 39 4 1 2 1 0 11 34 25 36 34 30 36 41 73 9 0 0 2 21 18 0 0 0 0 0 0 0 0
0 0 8 34 107 124 101 70 64 127 163 62 43 54 107 87 45 29 23 17 12 62 25 49 53 28 37 55 80 43 5 10 0 0 8 38 0 0 0 0 0 0 0
0 0 0 0 0 160 180 118 93 80 52 45 39 37 174 46 30 5 4 3 7 5 17 21 0 25 35 17 27 52 41 4 4 0 0 41 45 12 0 0 0 0 0
0 0 0 0 0 1 127 117 72 47 63 65 58 34 49 48 42 29 25 17 17 6 10 27 0 1 0 0 3 2 6 3 1 3 1 1 0 23 0 0 0 0 0
0 0 0 0 0 14 64 77 66 34 27 26 22 3 13 17 41 48 58 14 17 3 3 7 4 5 4 1 8 2 2 4 1 1 0 0 3 1 4 0 0 0 0
0 0 0 0 0 1 44 43 18 3 0 10 11 11 23 41 40 32 79 19 13 19 6 4 4 6 3 7 2 1 0 5 1 1 0 1 0 0 0 0 0 0 0
0 0 0 0 0 0 0 0 1 0 2 4 4 19 27 41 44 23 2 16 14 5 2 0 0 0 0 0 0 0 1 1 1 7 0 0 0 3 0 0 0 0 0
0 0 0 0 0 0 0 0 0 0 0 0 0 1 2 3 3 3 5 6 4 5 4 3 1 1 0 0 0 7 0 0 0 0 3 1 2 0 0 0 0 0 0
0 0 0 0 0 0 0 0 0 0 0 0 0 0 0 0 2 4 3 2 3 3 3 0 0 0 1 0 0 10 0 0 0 1 0 0 0 0 0 0 0 5 0
0 0 0 0 0 0 0 0 0 0 0 0 0 0 0 0 0 0 0 0 0 0 0 0 0 0 2 0 0 0 0 0 0 0 0 0 0 0 0 0 0 0 1
0 0 0 0 0 0 0 0 0 0 0 0 0 0 0 0 0 0 0 0 0 0 0 2 2 1 1 0 0 0 0 0 0 0 0 0 0 0 0 0 0 0 0
0 0 0 0 0 0 0 0 0 0 0 0 0 0 0 0 0 0 0 0 0 0 0 0 0 1 0 0 0 0 0 0 0 2 0 0 0 0 0 0 0 0 0
0 0 0 0 0 0 0 0 0 0 0 0 0 0 0 0 0 0 0 0 0 0 0 0 0 0 0 0 0 0 0 0 0 0 0 0 0 0 0 0 0 0 0
0 0 0 0 0 0 0 0 0 0 0 0 0 0 0 0 0 0 0 0 0 0 0 0 0 0 0 0 0 0 0 0 0 0 0 0 0 0 0 0 0 0 0
0 0 0 0 0 0 0 0 0 0 0 0 0 0 0 0 0 0 0 0 0 0 0 0 0 0 0 0 0 0 0 0 0 0 0 0 0 0 0 0 0 0 0
0 0 0 0 0 0 0 0 0 0 0 0 0 0 0 0 0 0 0 0 0 0 0 0 0 0 0 0 0 0 0 0 0 0 0 0 0 0 0 0 0 0 0
0 0 0 0 0 0 0 0 0 0 0 0 0 0 0 0 0 0 0 0 0 0 0 0 0 0 0 0 0 0 0 0 0 0 0 0 0 0 0 0 0 0 0
0 0 0 0 0 0 0 0 0 0 0 0 0 0 0 0 0 0 0 0 0 0 0 0 0 0 0 0 0 0 0 0 0 0 0 0 0 0 0 0 0 0 0

GFSMA_con_mucape_048.txt.gz
CAPE
0 0 0 0 10 18 15 10 0 0 0 0 0 0 0 0 0 0 0 0 49 214 159 48 35 5 4 6 0 0 1 0 1 4 1 1 2 3 3 3 4 4 7
0 0 0 0 0 0 0 7 11 7 7 0 0 0 0 0 0 0 0 0 1 70 148 70 43 12 7 6 0 0 0 6 6 8 4 0 0 0 5 5 4 5 8
0 0 9 0 0 0 0 0 30 40 49 33 14 0 0 0 0 0 0 0 0 1 63 104 48 32 15 8 11 0 0 13 9 13 9 0 0 0 0 0 0 3 8
77 86 90 34 21 20 9 39 43 53 69 73 77 53 41 36 27 47 37 29 1 0 0 100 244 59 16 12 17 10 0 0 8 9 5 5 0 0 0 0 0 0 0
128 93 114 132 152 106 83 81 77 70 74 89 113 134 111 94 84 27 20 9 16 11 9 18 20 53 110 5 16 20 17 0 0 10 6 5 0 0 0 0 0 0 0
289 253 207 281 281 246 192 131 104 110 127 122 115 105 135 112 87 117 116 111 87 58 19 4 31 18 0 17 0 23 29 0 0 0 11 8 0 0 0 0 0 0 0
461 418 305 262 249 196 171 112 133 100 92 98 99 0 0 5 16 27 78 68 41 22 34 0 3 17 7 0 60 1 0 0 0 0 0 7 0 0 0 0 0 0 0
495 520 482 368 264 187 114 133 154 111 118 110 86 129 18 0 0 0 0 0 0 0 0 0 5 9 4 9 15 65 27 11 5 0 0 5 12 0 0 0 0 0 0
532 561 526 435 338 292 285 238 149 109 77 19 38 69 30 8 8 3 13 8 4 1 0 0 0 26 17 15 25 50 47 37 8 3 59 0 31 24 12 0 0 0 0
0 0 0 0 4 18 67 93 101 63 49 52 79 27 20 19 46 9 10 7 7 18 8 6 6 3 11 19 7 14 9 28 50 4 0 16 31 63 42 35 0 0 0
0 0 0 0 0 0 0 36 149 89 70 62 93 58 20 10 17 6 5 9 8 6 15 3 6 4 1 12 4 10 2 9 0 61 1 5 2 8 0 5 43 18 0
0 0 0 0 0 0 0 0 107 102 110 76 43 38 30 2 3 10 6 2 8 0 1 5 1 1 2 0 8 12 30 21 6 0 0 0 35 36 0 0 0 0 0
0 0 0 0 0 0 0 13 73 84 58 50 52 52 59 41 43 18 16 22 11 6 0 1 1 0 0 0 0 0 1 2 21 0 0 1 74 0 0 1 2 1 0
0 0 0 0 0 0 0 40 66 58 36 12 22 15 13 4 40 17 13 19 3 3 2 2 0 0 0 0 0 0 0 0 7 0 77 144 0 0 0 2 2 1 0
0 0 0 0 3 0 0 0 0 13 9 6 0 1 3 1 6 5 3 0 4 0 0 0 0 0 0 0 0 0 0 0 4 3 5 1 0 0 0 0 0 0 4
0 0 0 0 0 0 0 0 0 0 0 0 0 1 1 1 1 1 1 1 1 0 0 0 0 0 0 0 0 0 0 0 2 2 0 0 0 0 0 0 0 0 0
0 0 0 0 0 0 0 0 0 0 0 0 0 0 0 0 0 0 0 0 0 0 0 0 0 0 0 0 0 0 0 0 0 0 0 0 0 0 0 0 0 0 0
0 0 0 0 0 0 0 0 0 0 0 0 0 0 0 0 0 0 0 0 0 0 0 0 0 0 0 0 0 0 0 0 0 0 0 0 0 0 0 0 0 0 0
0 0 0 0 0 0 0 0 0 0 0 0 0 0 0 0 0 0 0 0 0 0 0 0 0 0 0 0 0 0 0 0 0 0 0 0 0 0 0 0 0 1 0
0 0 0 0 0 0 0 0 0 0 0 0 0 0 0 0 0 0 0 0 0 0 0 0 0 0 0 0 0 0 0 0 0 1 1 4 3 1 0 0 0 0 0
0 0 0 0 0 0 0 0 0 0 0 0 0 0 0 0 0 0 0 0 0 0 0 0 0 0 0 0 0 0 0 0 0 0 0 0 0 0 0 0 0 0 0
0 0 0 0 0 0 0 0 0 0 0 0 0 0 0 0 0 0 0 0 0 0 0 0 0 0 0 0 0 0 0 0 0 0 0 0 0 0 0 0 0 0 0
0 0 0 0 0 0 0 0 0 0 0 0 0 0 0 0 0 0 0 0 0 0 0 0 0 0 0 0 0 0 0 0 0 0 0 0 0 0 0 0 0 0 0
0 0 0 0 0 0 0 0 0 0 0 0 0 0 0 0 0 0 0 0 0 0 0 0 0 0 0 0 0 0 0 0 0 0 0 0 0 0 0 0 0 0 0
0 0 0 0 0 0 0 0 0 0 0 0 0 0 0 0 0 0 0 0 0 0 0 0 0 0 0 0 0 0 0 0 0 0 0 0 0 0 0 0 0 0 0
0 0 0 0 0 0 0 0 0 0 0 0 0 0 0 0 0 0 0 0 0 0 0 0 0 0 0 0 0 0 0 0 0 0 0 0 0 0 0 0 0 0 0

GFSMA_con_mucape_051.txt.gz
CAPE
0 0 0 0 2 11 14 16 0 0 0 0 0 0 0 0 0 0 0 0 0 92 270 148 48 18 8 6 4 1 0 0 0 2 2 0 4 5 5 4 6 7 8
0 0 0 0 0 0 0 0 0 0 0 0 0 0 0 0 0 0 0 0 0 2 99 150 49 37 11 10 8 6 1 0 0 6 1 0 0 0 3 3 3 4 7
0 0 0 0 0 0 0 0 0 0 0 0 23 24 18 10 0 0 0 17 10 0 0 106 105 58 30 19 12 4 9 0 0 0 7 5 0 0 0 0 1 4 5
32 49 43 48 37 7 0 0 0 0 0 4 27 48 60 80 79 78 62 32 1 0 0 6 166 172 78 44 26 10 0 0 0 0 0 11 4 0 0 0 0 0 0
75 100 98 91 85 82 101 93 69 33 43 39 50 63 74 83 88 84 91 96 57 46 38 25 2 115 269 99 32 0 0 0 0 0 0 9 11 5 0 0 0 0 0
133 154 233 260 157 167 199 187 132 74 35 42 38 38 53 66 34 10 43 72 121 105 66 45 22 1 1 89 69 23 0 0 0 0 0 0 7 9 6 0 0 0 0
266 308 351 401 336 223 171 118 85 61 21 44 34 0 0 0 0 0 0 0 0 0 0 0 0 0 0 0 31 72 14 7 10 3 0 0 0 0 16 13 0 0 0
470 450 441 459 491 408 332 205 108 62 78 129 46 20 5 0 0 0 0 0 0 0 0 0 0 0 0 0 7 38 126 31 41 130 34 1 9 0 4 20 22 6 0
423 410 437 470 443 401 354 338 264 208 148 34 1 5 8 3 3 0 0 2 0 2 2 2 2 0 4 0 4 14 31 128 104 48 120 95 2 3 0 7 31 37 27
0 0 0 0 2 1 0 4 55 71 63 17 2 8 1 10 22 3 3 3 5 3 0 0 0 0 0 0 6 6 10 19 72 91 117 129 157 73 40 0 4 49 41
0 0 0 0 0 0 0 2 3 1 90 86 20 33 20 11 2 2 0 3 2 0 0 0 0 0 1 1 6 6 7 1 9 107 200 163 60 27 72 78 73 0 0
0 0 0 0 0 0 1 0 2 2 81 100 73 28 12 3 0 5 3 3 4 2 0 0 0 0 0 0 0 0 0 0 0 67 226 378 46 1 1 11 95 74 35
0 0 0 0 0 0 1 3 2 19 82 83 88 35 68 27 6 2 6 2 5 0 0 0 0 0 0 0 0 0 0 0 0 19 122 521 87 21 0 107 92 30 0
0 0 0 0 0 0 0 8 27 67 36 55 37 10 7 0 0 2 4 2 0 0 0 0 0 0 0 0 0 0 0 0 0 0 54 141 201 63 74 48 0 0 0
0 0 0 0 0 2 0 0 0 9 18 25 7 0 2 0 1 1 1 3 2 0 0 0 0 0 0 0 0 0 0 0 0 0 2 2 1 0 0 0 0 0 0
0 0 0 0 0 0 0 0 0 0 0 0 0 0 0 1 0 1 0 1 1 0 0 0 0 0 0 0 0 0 0 0 0 0 0 0 0 0 0 0 1 0 0
0 0 0 0 0 0 0 0 0 0 0 0 0 0 0 0 0 0 0 0 0 0 0 0 0 0 0 0 0 0 0 0 0 0 0 0 0 0 0 0 0 0 0
0 0 0 0 0 0 0 0 0 0 0 0 0 0 0 0 0 0 0 0 0 0 0 0 0 0 0 0 0 0 0 0 0 0 0 0 0 0 0 0 0 0 0
0 0 0 0 0 0 0 0 0 0 0 0 0 0 0 0 0 0 0 0 0 0 0 0 0 0 0 0 0 0 0 0 0 0 0 0 0 0 0 0 0 0 0
0 0 0 0 0 0 0 0 0 0 0 0 0 0 0 0 0 0 0 0 0 0 0 0 0 0 0 0 0 0 0 0 0 0 0 0 0 0 0 0 0 0 0
0 0 0 0 0 0 0 0 0 0 0 0 0 0 0 0 0 0 0 0 0 0 0 0 0 0 0 0 0 0 0 0 0 0 0 0 0 0 0 0 0 0 0
0 0 0 0 0 0 0 0 0 0 0 0 0 0 0 0 0 0 0 0 0 0 0 0 0 0 0 0 0 0 0 0 0 0 0 0 0 0 0 0 0 0 0
0 0 0 0 0 0 0 0 0 0 0 0 0 0 0 0 0 0 0 0 0 0 0 0 0 0 0 0 0 0 0 0 0 0 0 0 0 0 0 0 0 0 0
0 0 0 0 0 0 0 0 0 0 0 0 0 0 0 0 0 0 0 0 0 0 0 0 0 0 0 0 0 0 0 0 0 0 0 0 0 0 0 0 0 0 0
0 0 0 0 0 0 0 0 0 0 0 0 0 0 0 0 0 0 0 0 0 0 0 0 0 0 0 0 0 0 0 0 0 0 0 0 0 0 0 0 0 0 0
0 0 0 0 0 0 0 0 0 0 0 0 0 0 0 0 0 0 0 0 0 0 0 0 0 0 0 0 0 0 0 0 0 0 0 0 0 0 0 0 0 0 0

GFSMA_con_mucape_054.txt.gz
CAPE
0 0 0 0 0 0 0 11 13 0 0 0 0 0 0 0 0 0 0 0 0 0 117 254 142 44 3 1 1 0 0 0 0 0 0 0 0 0 0 0 0 3 4
24 0 0 0 0 0 0 0 5 16 18 7 11 0 0 0 0 0 0 0 0 0 4 100 120 57 64 17 14 8 0 0 0 0 0 0 0 0 2 1 0 2 4
52 20 25 0 0 0 0 0 0 1 15 19 19 21 0 12 0 19 18 24 21 0 0 1 80 98 73 65 33 20 0 0 0 0 0 0 0 2 1 0 1 4 5
66 80 77 72 37 0 0 0 0 38 63 94 95 109 120 63 54 50 31 23 27 30 13 1 0 108 134 105 92 47 15 0 0 0 0 0 0 1 2 2 0 0 0
141 144 183 186 146 94 36 53 63 64 119 208 195 140 141 138 71 42 58 17 1 58 63 46 33 16 157 264 120 75 45 42 0 0 0 0 0 0 3 5 0 0 0
227 262 306 367 367 329 241 196 142 111 101 181 128 56 112 93 65 51 4 0 0 0 0 43 40 8 0 26 238 170 75 55 64 0 0 0 0 0 0 2 8 2 0
250 270 409 387 422 363 317 281 223 234 276 172 10 26 120 3 37 2 0 0 0 0 0 0 0 0 0 0 2 197 198 100 84 142 67 5 2 13 10 10 0 10 14
661 584 544 524 457 373 367 341 259 166 121 96 79 51 12 2 8 0 0 0 0 0 0 0 0 0 0 0 0 7 98 211 160 136 216 156 14 4 3 3 3 0 19
453 435 433 424 406 448 610 561 342 260 167 159 110 77 21 6 11 11 0 0 0 0 0 0 0 0 0 0 0 0 1 4 68 182 162 140 322 64 29 24 0 0 0
0 0 0 0 0 1 15 17 74 168 124 123 7 3 3 25 24 8 2 0 0 0 0 0 0 0 0 0 0 0 0 0 9 14 141 174 205 104 221 65 69 66 15
0 0 0 0 0 0 0 0 0 2 4 55 5 22 7 4 24 30 9 11 1 0 2 0 0 0 0 0 0 0 0 0 0 0 29 115 197 220 239 263 186 99 56
0 0 0 0 0 0 1 1 3 2 4 17 16 160 27 7 0 0 0 3 1 2 5 1 0 0 0 0 0 0 0 0 0 0 13 109 177 384 256 151 215 261 115
0 0 0 0 0 2 3 5 3 7 7 20 9 41 68 44 43 40 26 11 18 9 5 4 0 0 0 0 0 0 0 0 0 0 19 40 79 114 253 159 37 69 274
0 0 0 0 0 0 2 4 4 3 7 9 54 77 61 53 13 4 8 20 1 10 2 11 0 0 0 0 0 0 0 0 0 0 0 0 0 4 31 46 5 1 0
0 0 0 0 0 0 0 0 2 7 12 9 15 10 11 8 1 0 2 5 11 0 0 0 0 0 0 0 0 0 0 0 0 0 0 0 0 19 18 0 2 0 0
0 0 0 0 0 0 0 0 0 0 0 1 1 0 0 0 0 0 0 0 0 11 0 0 0 0 0 0 0 0 0 0 0 0 0 0 0 10 12 8 4 0 1
0 0 0 0 0 0 0 0 0 0 0 0 0 0 0 0 0 0 0 0 0 0 0 0 0 0 0 0 0 0 0 0 0 0 0 0 0 0 0 0 1 0 0
0 0 0 0 0 0 0 0 0 0 0 0 0 0 0 0 0 0 0 0 0 0 0 0 0 0 0 0 0 0 0 0 0 0 0 0 0 0 0 0 0 0 0
0 0 0 0 0 0 0 0 0 0 0 0 0 0 0 0 0 0 0 0 0 0 0 0 0 0 0 0 0 0 0 0 0 0 0 0 0 0 0 0 0 0 0
0 0 0 0 0 0 0 0 0 0 0 0 0 0 0 0 0 0 0 0 0 0 0 0 0 0 0 0 0 0 0 0 0 0 0 0 0 0 0 0 0 0 0
0 0 0 0 0 0 0 0 0 0 0 0 0 0 0 0 0 0 0 0 0 0 0 0 0 0 0 0 0 0 0 0 0 0 0 0 0 0 0 0 0 0 0
0 0 0 0 0 0 0 0 0 0 0 0 0 0 0 0 0 0 0 0 0 0 0 0 0 0 0 0 0 0 0 0 0 0 0 0 0 0 0 0 0 0 0
0 0 0 0 0 0 0 0 0 0 0 0 0 0 0 0 0 0 0 0 0 0 0 0 0 0 0 0 0 0 0 0 0 0 0 0 0 0 0 0 0 0 0
0 0 0 0 0 0 0 0 0 0 0 0 0 0 0 0 0 0 0 0 0 0 0 0 0 0 0 0 0 0 0 0 0 0 0 0 0 0 0 0 0 0 0
0 0 0 0 0 0 0 0 0 0 0 0 0 0 0 0 0 0 0 0 0 0 0 0 0 0 0 0 0 0 0 0 0 0 0 0 0 0 0 0 0 0 0
0 0 0 0 0 0 0 0 0 0 0 0 0 0 0 0 0 0 0 0 0 0 0 0 0 0 0 0 0 0 0 0 0 0 0 0 0 0 0 0 0 0 0

GFSMA_con_mucape_057.txt.gz
CAPE
0 0 0 0 0 0 0 0 5 0 0 1 0 0 0 0 0 0 0 0 0 0 0 62 185 94 12 0 0 0 0 0 0 0 0 0 0 1 0 1 2 3 1
30 0 0 0 0 0 0 0 1 28 33 29 27 2 2 0 0 0 0 0 0 0 0 0 10 10 55 110 10 0 0 0 0 0 0 0 0 0 0 0 0 0 2
69 42 42 45 5 0 0 0 1 24 40 36 31 45 34 30 42 31 0 0 0 0 0 0 0 0 26 55 111 50 4 0 0 0 0 0 0 0 0 0 0 1 4
138 188 182 180 150 98 64 49 35 61 85 126 132 171 210 91 80 110 125 112 32 0 0 0 0 0 5 49 70 148 78 12 0 0 0 0 0 0 0 0 0 0 4
209 249 294 336 324 317 245 182 197 187 239 273 245 187 163 158 136 72 75 85 86 16 0 0 0 11 13 43 97 86 139 119 32 2 0 0 0 1 0 0 0 0 0
457 444 419 331 534 597 398 410 465 367 307 238 141 112 205 189 155 105 48 8 4 2 0 0 0 0 0 0 0 76 153 167 133 112 58 12 0 0 4 0 1 8 0
495 549 648 453 399 506 626 391 417 290 335 251 108 32 126 100 42 7 24 7 0 0 0 0 0 0 0 0 1 3 59 185 168 163 229 126 51 0 0 3 0 1 14
797 1055 884 903 870 620 634 668 596 321 296 210 89 165 9 0 26 19 0 0 0 0 0 0 0 0 0 0 0 0 2 51 167 162 214 166 261 125 20 20 29 0 5
468 414 413 951 396 715 478 728 573 376 303 80 53 61 36 4 19 21 14 0 0 0 0 0 0 0 0 0 0 0 0 0 0 2 41 104 110 164 172 74 71 6 1
37 21 3 0 0 3 15 3 8 20 57 20 8 6 17 41 27 11 6 3 5 0 8 13 0 0 0 0 0 0 0 0 0 0 0 36 81 110 210 157 117 83 28
0 0 0 0 0 0 0 0 0 0 10 4 5 26 29 25 15 29 10 6 0 0 0 10 0 0 0 0 0 0 0 0 0 0 6 9 33 115 134 312 230 163 146
0 0 0 0 0 0 0 0 1 0 3 8 6 21 35 12 14 6 2 12 0 0 0 4 0 0 0 0 0 0 0 0 0 0 4 8 11 38 42 182 326 187 186
0 0 0 0 0 0 1 4 1 6 6 18 26 18 47 49 50 17 20 7 3 0 0 3 0 0 0 0 0 0 0 0 0 0 2 8 14 0 0 26 109 94 150
0 0 0 0 0 0 1 3 11 9 11 13 23 40 41 43 28 14 19 5 0 3 5 5 0 0 0 0 0 0 0 0 0 0 0 0 0 0 0 57 39 1 7
0 0 0 0 0 0 2 0 11 16 29 20 24 7 13 20 16 11 17 1 5 0 0 0 1 0 0 0 0 0 0 0 0 0 0 0 0 0 0 39 17 2 0
0 0 0 0 0 0 0 0 0 0 1 5 7 8 22 12 4 0 0 0 0 0 0 0 0 0 0 0 0 0 0 0 0 0 0 0 0 0 0 2 17 22 13
0 0 0 0 0 0 0 0 0 0 0 0 0 0 0 0 0 0 0 0 0 0 0 0 0 0 0 0 0 0 0 0 0 0 0 0 0 0 0 0 8 12 12
0 0 0 0 0 0 0 0 0 0 0 0 0 0 0 0 0 0 0 0 0 0 0 0 0 0 0 0 0 0 0 0 0 0 0 0 0 0 0 0 0 0 0
0 0 0 0 0 0 0 0 0 0 0 0 0 0 0 0 0 0 0 0 0 0 0 0 0 0 0 0 0 0 0 0 0 0 0 0 0 0 0 0 0 0 0
0 0 0 0 0 0 0 0 0 0 0 0 0 0 0 0 0 0 0 0 0 0 0 0 0 0 0 0 0 0 0 0 0 0 0 0 0 0 0 0 0 0 0
0 0 0 0 0 0 0 0 0 0 0 0 0 0 0 0 0 0 0 0 0 0 0 0 0 0 0 0 0 0 0 0 0 0 0 0 0 0 0 0 0 0 0
0 0 0 0 0 0 0 0 0 0 0 0 0 0 0 0 0 0 0 0 0 0 0 0 0 0 0 0 0 0 0 0 0 0 0 0 0 0 0 0 0 0 0
0 0 0 0 0 0 0 0 0 0 0 0 0 0 0 0 0 0 0 0 0 0 0 0 0 0 0 0 0 0 0 0 0 0 0 0 0 0 0 0 0 0 0
0 0 0 0 0 0 0 0 0 0 0 0 0 0 0 0 0 0 0 0 0 0 0 0 0 0 0 0 0 0 0 0 0 0 0 0 0 0 0 0 0 0 0
0 0 0 0 0 0 0 0 0 0 0 0 0 0 0 0 0 0 0 0 0 0 0 0 0 0 0 0 0 0 0 0 0 0 0 0 0 0 0 0 0 0 0
0 0 0 0 0 0 0 0 0 0 0 0 0 0 0 0 0 0 0 0 0 0 0 0 0 0 0 0 0 0 0 0 0 0 0 0 0 0 0 0 0 0 0

GFSMA_con_mucape_060.txt.gz
CAPE
0 0 0 0 0 0 0 0 0 0 0 0 0 0 0 0 0 0 0 0 0 0 0 0 179 73 22 0 0 0 0 0 0 0 0 0 0 0 0 1 0 1 1
4 0 0 0 0 0 0 0 0 0 0 0 1 0 0 0 0 0 0 0 0 0 0 0 0 2 29 136 122 3 0 0 0 0 0 0 0 0 0 0 0 2 2
22 10 0 0 0 0 0 0 0 0 0 0 0 0 4 11 9 8 6 1 3 0 0 0 0 0 13 39 73 145 44 0 0 0 0 0 0 0 0 0 0 0 0
31 60 39 54 59 29 7 0 0 0 1 4 2 10 53 23 38 43 39 38 42 14 11 1 0 0 0 19 81 111 115 106 4 0 0 0 0 0 0 0 0 0 0
61 148 222 257 257 201 251 162 273 80 353 133 115 23 64 3 26 24 0 0 0 13 16 10 0 0 0 3 26 71 123 178 113 81 23 0 0 2 0 0 0 0 0
340 263 284 286 485 556 676 371 340 130 127 91 61 82 61 59 42 39 0 0 9 0 0 0 0 0 0 0 0 0 11 97 142 126 127 104 13 3 0 0 0 0 0
501 441 441 270 591 401 463 304 303 147 13 120 43 37 55 25 17 0 0 13 4 0 0 0 0 0 0 0 7 0 5 34 94 125 128 176 193 101 20 10 8 0 4
631 934 711 759 820 790 634 425 418 387 331 160 55 43 9 0 0 0 3 7 0 0 0 0 0 0 0 0 0 0 0 0 4 6 22 94 115 179 202 111 49 3 14
772 529 465 394 547 531 612 282 410 193 109 84 57 35 7 4 0 1 11 0 0 0 0 0 0 0 0 0 0 0 0 0 0 1 1 3 40 75 160 256 129 40 17
338 327 206 44 6 0 12 9 0 0 10 7 13 44 21 17 8 7 2 12 0 3 3 1 1 0 0 0 0 0 0 0 0 2 4 7 6 24 76 165 198 91 75
0 0 0 0 0 0 0 0 0 0 0 0 0 8 7 15 8 27 23 16 14 8 11 2 0 0 0 0 0 0 0 0 0 0 4 5 4 17 100 72 134 231 120
0 0 0 0 0 0 0 0 0 0 0 0 6 6 6 11 2 14 29 10 25 2 7 0 0 0 0 0 0 0 0 0 0 2 5 6 9 11 10 15 44 47 486
0 0 0 0 0 0 0 0 0 0 1 0 3 3 12 38 45 44 57 19 11 3 4 1 0 0 0 0 0 0 0 0 0 0 4 4 0 6 8 4 8 18 239
0 0 0 0 0 0 0 0 3 9 5 5 9 27 35 47 45 24 29 4 14 19 6 0 0 0 0 0 0 0 0 0 0 0 0 0 0 0 18 7 24 11 28
0 0 0 0 0 0 0 2 2 3 6 7 3 14 24 23 30 10 10 14 14 8 0 0 0 0 0 0 0 0 0 0 0 0 0 0 0 0 0 27 30 0 14
0 0 0 0 0 0 0 0 2 4 6 3 7 7 11 10 9 8 19 6 0 0 0 0 0 0 0 0 0 0 0 0 0 0 0 0 0 0 0 0 0 0 1
0 0 0 0 0 0 0 0 0 1 1 0 0 1 0 1 0 0 0 0 0 0 0 0 0 0 0 0 0 0 0 0 0 0 0 0 0 0 0 0 0 3 9
0 0 0 0 0 0 0 0 0 0 0 0 0 0 0 0 0 0 0 0 0 0 0 0 0 0 0 0 0 0 0 0 0 0 0 0 0 0 0 0 0 0 0
0 0 0 0 0 0 0 0 0 0 0 0 0 0 0 0 0 0 0 0 0 0 0 0 0 0 0 0 0 0 0 0 0 0 0 0 0 0 0 0 0 0 0
0 0 0 0 0 0 0 0 0 0 0 0 0 0 0 0 0 0 0 0 0 0 0 0 0 0 0 0 0 0 0 0 0 0 0 0 0 0 0 0 0 0 0
0 0 0 0 0 0 0 0 0 0 0 0 0 0 0 0 0 0 0 0 0 0 0 0 0 0 0 0 0 0 0 0 0 0 0 0 0 0 0 0 0 0 0
0 0 0 0 0 0 0 0 0 0 0 0 0 0 0 0 0 0 0 0 0 0 0 0 0 0 0 0 0 0 0 0 0 0 0 0 0 0 0 0 0 0 0
0 0 0 0 0 0 0 0 0 0 0 0 0 0 0 0 0 0 0 0 0 0 0 0 0 0 0 0 0 0 0 0 0 0 0 0 0 0 0 0 0 0 0
0 0 0 0 0 0 0 0 0 0 0 0 0 0 0 0 0 0 0 0 0 0 0 0 0 0 0 0 0 0 0 0 0 0 0 0 0 0 0 0 0 0 0
0 0 0 0 0 0 0 0 0 0 0 0 0 0 0 0 0 0 0 0 0 0 0 0 0 0 0 0 0 0 0 0 0 0 0 0 0 0 0 0 0 0 0
0 0 0 0 0 0 0 0 0 0 0 0 0 0 0 0 0 0 0 0 0 0 0 0 0 0 0 0 0 0 0 0 0 0 0 0 0 0 0 0 0 0 0

GFSMA_con_mucape_063.txt.gz
CAPE
0 0 0 0 0 0 0 0 0 0 0 0 0 0 0 0 0 0 0 0 0 0 0 0 80 104 45 21 0 0 0 0 0 0 0 0 0 0 0 0 0 0 2
0 0 0 0 0 0 0 0 0 0 0 0 0 0 0 0 0 0 0 0 0 0 0 1 0 1 45 90 105 76 2 0 0 0 0 0 0 0 0 0 0 0 0
13 0 0 0 0 0 0 0 0 0 0 0 0 0 10 20 8 20 13 17 19 15 8 14 12 9 10 45 78 100 97 54 2 0 0 0 0 0 0 0 0 0 0
57 27 8 15 3 4 2 0 0 0 0 1 6 10 10 31 38 29 46 58 72 60 33 4 20 22 1 14 32 87 132 126 106 42 1 0 0 0 0 0 0 0 0
84 99 121 128 163 164 171 136 209 80 102 18 12 11 9 11 43 0 54 53 66 15 9 6 0 1 0 0 1 8 17 92 99 108 112 36 1 0 0 0 0 0 0
203 133 216 266 218 388 313 276 203 155 141 20 36 51 12 12 10 0 25 62 29 8 2 0 0 0 0 0 0 0 7 38 54 81 96 129 92 21 7 0 0 0 0
512 341 287 271 607 569 462 633 344 176 111 16 44 31 28 26 17 0 0 21 15 0 7 1 0 0 0 0 0 0 0 0 0 8 61 73 111 142 165 25 22 12 3
515 429 647 741 760 468 520 541 396 301 137 62 33 39 40 5 0 0 0 7 22 25 10 0 0 0 0 0 0 0 0 0 1 3 2 3 25 94 146 288 148 21 1
496 682 808 588 516 576 433 422 294 416 25 20 23 50 33 4 2 0 21 35 23 4 0 0 0 0 0 0 0 0 0 0 0 7 7 8 5 4 56 131 232 170 33
548 443 553 547 505 342 196 27 4 0 0 0 0 14 37 43 24 6 1 5 3 0 0 1 1 0 0 0 0 0 0 0 0 2 6 9 6 9 34 96 146 257 133
460 161 12 0 0 0 0 0 0 0 0 0 0 0 0 2 7 19 13 0 16 26 13 3 2 3 0 0 0 0 0 0 2 2 2 5 11 9 27 12 9 89 276
129 0 0 0 0 0 0 0 0 0 0 0 0 0 3 0 0 4 8 13 12 38 22 17 13 0 0 0 0 0 0 0 9 7 6 8 3 8 8 6 8 7 40
0 0 0 0 0 0 0 0 0 0 0 0 0 0 1 0 5 19 15 24 31 50 24 2 12 0 0 0 0 0 0 0 2 41 32 22 0 20 21 2 1 9 11
0 0 0 0 0 0 0 0 0 0 2 1 5 4 15 28 43 60 55 45 9 6 1 8 0 0 0 0 0 0 0 0 0 0 0 0 0 2 5 19 11 27 30
1 0 0 0 0 0 0 0 0 0 3 4 8 11 13 20 26 36 15 10 7 9 8 1 0 0 0 0 0 0 0 0 0 0 0 0 0 0 0 2 4 24 20
0 0 0 0 0 0 0 0 0 0 2 3 6 2 3 10 4 17 21 5 4 18 23 0 0 0 0 0 0 0 0 0 0 0 0 0 0 0 0 0 0 0 0
0 0 0 0 0 0 0 0 0 0 1 4 0 1 2 0 1 2 3 4 1 0 0 0 0 0 0 0 0 0 0 0 0 0 0 0 0 0 0 0 0 0 0
5 0 0 0 0 0 0 0 0 0 0 0 0 0 0 0 0 0 0 0 0 0 0 0 0 0 0 0 0 0 0 0 0 0 0 0 0 0 0 0 0 0 0
0 0 0 0 0 0 0 0 0 0 0 0 0 0 0 0 0 0 0 0 0 0 0 0 0 0 0 0 0 0 0 0 0 0 0 0 0 0 0 0 0 0 0
0 0 0 0 0 0 0 0 0 0 0 0 0 0 0 0 0 0 0 0 0 0 0 0 0 0 0 0 0 0 0 0 0 0 0 0 0 0 0 0 0 0 0
0 0 0 0 0 0 0 0 0 0 0 0 0 0 0 0 0 0 0 0 0 0 0 0 0 0 0 0 0 0 0 0 0 0 0 0 0 0 0 0 0 0 0
0 0 0 0 0 0 0 0 0 0 0 0 0 0 0 0 0 0 0 0 0 0 0 0 0 0 0 0 0 0 0 0 0 0 0 0 0 0 0 0 0 0 0
0 0 0 0 0 0 0 0 0 0 0 0 0 0 0 0 0 0 0 0 0 0 0 0 0 0 0 0 0 0 0 0 0 0 0 0 0 0 0 0 0 0 0
0 0 0 0 0 0 0 0 0 0 0 0 0 0 0 0 0 0 0 0 0 0 0 0 0 0 0 0 0 0 0 0 0 0 0 0 0 0 0 0 0 0 0
0 0 0 0 0 0 0 0 0 0 0 0 0 0 0 0 0 0 0 0 0 0 0 0 0 0 0 0 0 0 0 0 0 0 0 0 0 0 0 0 0 0 0
0 0 0 0 0 0 0 0 0 0 0 0 0 0 0 0 0 0 0 0 0 0 0 0 0 0 0 0 0 0 0 0 0 0 0 0 0 0 0 0 0 0 0

GFSMA_con_mucape_066.txt.gz
CAPE
12 2 0 0 0 0 0 0 0 0 0 0 0 0 0 0 0 0 0 0 0 2 1 0 39 187 98 89 48 0 1 0 0 0 0 0 0 0 0 0 0 0 2
0 0 0 0 0 0 0 0 0 0 0 0 0 0 0 0 8 15 13 7 16 14 21 9 7 30 53 78 100 105 69 3 4 1 0 0 0 0 0 0 0 0 0
17 0 0 0 0 0 0 0 0 0 0 0 0 0 8 23 22 18 35 25 40 25 11 22 51 25 30 30 38 108 170 106 91 7 1 0 0 0 0 0 0 0 0
50 28 0 0 7 2 0 0 0 0 0 0 5 3 11 10 22 37 30 46 48 17 32 16 75 40 19 13 0 7 59 159 95 106 70 2 0 0 0 0 0 0 0
130 82 44 31 65 60 73 38 62 16 6 22 36 10 13 12 11 7 18 61 58 41 0 0 0 3 0 0 0 3 22 36 66 73 91 118 22 6 0 0 0 0 0
265 130 124 177 224 206 170 392 120 145 116 72 43 32 8 30 11 4 0 6 40 43 0 0 4 0 0 0 0 6 15 9 4 28 69 93 151 113 60 8 0 0 0
243 271 164 235 316 190 236 352 132 277 126 42 30 11 8 4 10 6 0 0 0 21 12 10 15 0 0 0 0 0 0 0 3 6 0 7 44 83 154 191 59 30 9
423 537 428 374 471 355 273 282 239 313 222 77 21 6 8 0 0 0 0 0 8 6 9 17 8 0 0 0 0 0 0 0 4 8 4 5 7 7 90 96 212 140 44
756 781 650 739 518 578 542 382 310 127 36 22 2 11 12 0 0 0 0 5 7 7 13 14 0 0 0 0 0 0 0 0 0 5 7 8 6 5 17 55 92 222 223
499 453 506 462 407 321 478 333 324 174 21 0 0 0 10 64 22 5 0 1 9 5 2 2 4 0 2 1 0 0 0 0 0 2 4 7 6 7 14 54 53 88 204
399 412 449 447 485 454 16 0 0 0 0 0 0 0 0 0 15 29 3 0 0 7 4 8 13 0 15 1 0 0 0 0 8 8 5 6 11 10 23 19 11 56 82
235 392 272 110 0 0 0 0 0 0 0 0 0 0 0 0 0 0 7 1 2 12 12 11 3 14 7 2 0 0 0 0 4 40 13 18 14 11 12 15 9 8 6
195 211 34 0 0 0 0 0 0 0 0 0 0 0 0 0 3 4 7 15 32 26 19 10 9 6 2 0 0 0 0 0 0 18 35 41 20 34 43 6 6 9 8
80 2 0 0 0 0 0 0 0 0 0 0 0 1 3 10 16 13 13 29 31 27 12 20 10 10 0 0 0 0 0 0 0 0 0 0 0 0 3 43 42 48 41
0 0 0 0 0 0 0 0 0 0 0 0 0 0 6 11 11 31 53 43 51 26 13 12 7 1 0 0 0 0 0 0 0 0 0 0 0 0 5 5 2 0 0
0 0 0 0 0 0 0 0 0 0 0 2 3 5 9 10 16 24 24 15 9 11 6 6 0 5 0 0 0 0 0 0 0 0 0 0 0 0 0 2 2 1 0
0 1 0 1 0 0 0 0 0 0 0 0 0 2 5 10 9 7 12 5 4 10 5 2 5 1 0 0 0 0 0 0 0 0 0 0 0 0 0 0 3 0 0
3 3 0 0 0 0 0 0 0 0 0 0 0 0 0 0 0 0 0 0 0 2 0 0 0 0 0 0 0 0 0 0 0 0 0 0 0 0 0 0 0 1 4
1 0 0 0 0 0 0 0 0 0 0 0 0 0 0 0 0 0 0 0 0 0 0 0 0 0 0 0 0 0 0 0 0 0 0 0 0 0 0 0 0 0 0
0 0 0 0 0 0 0 0 0 0 0 0 0 0 0 0 0 0 0 0 0 0 0 0 0 0 0 0 0 0 0 0 0 0 0 0 0 0 0 0 0 0 0
0 0 0 0 0 0 0 0 0 0 0 0 0 0 0 0 0 0 0 0 0 0 0 0 0 0 0 0 0 0 0 0 0 0 0 0 0 0 0 0 0 0 0
0 0 0 0 0 0 0 0 0 0 0 0 0 0 0 0 0 0 0 0 0 0 0 0 0 0 0 0 0 0 0 0 0 0 0 0 0 0 0 0 0 0 0
0 0 0 0 0 0 0 0 0 0 0 0 0 0 0 0 0 0 0 0 0 0 0 0 0 0 0 0 0 0 0 0 0 0 0 0 0 0 0 0 0 0 0
0 0 0 0 0 0 0 0 0 0 0 0 0 0 0 0 0 0 0 0 0 0 0 0 0 0 0 0 0 0 0 0 0 0 0 0 0 0 0 0 0 0 0
0 0 0 0 0 0 0 0 0 0 0 0 0 0 0 0 0 0 0 0 0 0 0 0 0 0 0 0 0 0 0 0 0 0 0 0 0 0 0 0 0 0 0
0 0 0 0 0 0 0 0 0 0 0 0 0 0 0 0 0 0 0 0 0 0 0 0 0 0 0 0 0 0 0 0 0 0 0 0 0 0 0 0 0 0 0

GFSMA_con_mucape_069.txt.gz
CAPE
22 17 0 0 0 0 0 0 0 0 0 0 0 0 0 0 0 0 1 4 11 17 18 7 21 101 119 93 101 75 13 1 1 1 0 0 0 0 0 0 0 0 0
19 19 0 0 0 0 0 0 0 0 0 0 0 0 0 0 2 18 23 11 20 23 35 23 24 38 44 48 75 103 105 91 58 9 2 0 0 0 0 0 0 0 0
43 4 0 0 0 0 0 0 0 0 0 0 0 0 2 6 19 34 10 26 24 42 22 18 62 40 34 25 37 53 72 95 113 119 42 2 0 0 0 0 0 0 0
116 28 17 0 0 0 0 0 0 0 0 0 2 1 9 9 10 4 24 39 39 41 34 31 41 32 26 16 0 12 29 41 94 66 96 79 13 1 0 0 0 0 0
163 76 38 0 5 31 51 63 73 16 9 5 7 8 10 14 10 2 6 0 11 23 52 22 0 0 1 0 4 21 39 16 9 36 66 76 99 46 12 0 0 0 0
216 189 87 66 59 111 158 122 42 166 105 116 62 20 12 7 0 2 0 0 4 16 35 7 0 6 15 14 8 2 0 1 3 2 0 5 40 69 109 70 11 0 0
270 305 267 123 204 278 241 229 277 321 147 79 40 10 0 0 0 0 0 0 0 0 25 15 17 15 4 0 0 0 0 1 4 5 2 4 1 3 42 74 143 52 11
386 249 224 203 272 344 274 228 205 187 170 126 36 8 12 0 0 0 0 0 0 1 3 11 10 15 1 0 0 0 0 0 0 4 3 2 4 4 5 16 47 169 159
384 320 338 426 375 413 555 400 356 251 215 58 16 22 10 0 0 0 0 0 0 0 10 11 8 5 0 0 0 0 0 0 0 1 3 6 6 7 5 30 64 58 174
321 284 383 387 344 377 423 394 343 381 270 202 33 0 0 11 8 3 0 0 5 5 4 6 2 4 5 1 6 0 0 0 4 5 4 5 8 5 17 41 37 34 37
214 348 265 170 92 92 43 284 371 0 0 0 0 0 0 0 0 17 12 2 6 3 11 3 5 6 10 0 13 1 0 0 3 8 9 7 15 11 11 8 9 13 17
250 212 133 101 41 11 46 0 0 0 0 0 0 0 0 0 0 0 9 7 9 5 7 10 7 1 11 3 5 0 0 0 4 9 38 36 28 16 18 6 4 5 4
122 43 50 6 2 42 0 0 0 0 0 0 0 0 0 0 0 10 7 6 15 11 20 23 17 1 5 4 12 0 0 0 0 4 24 7 0 32 39 22 7 2 6
40 45 10 22 48 0 0 0 0 0 0 0 0 0 1 0 2 11 17 12 1 23 31 13 8 15 16 14 11 0 0 0 0 0 0 0 0 1 2 25 18 27 36
101 67 22 0 0 6 0 0 0 0 0 0 0 0 0 0 4 9 7 47 51 5 14 4 8 9 32 12 8 0 0 0 0 0 0 0 0 0 1 4 2 10 8
1 0 1 0 0 0 0 0 0 0 0 0 0 0 0 4 11 4 28 44 29 53 28 13 6 11 7 7 0 0 0 0 0 0 0 0 0 0 0 4 3 0 0
3 1 6 0 0 0 0 0 0 0 0 0 0 0 0 0 0 3 21 35 33 20 34 7 4 3 2 0 0 0 0 0 0 0 0 0 0 0 0 0 2 1 0
18 6 2 0 0 0 0 0 0 0 0 0 0 0 0 0 0 0 0 0 0 0 0 0 1 0 0 0 0 0 0 0 0 0 0 0 0 0 0 0 0 0 0
10 15 19 2 0 0 0 0 0 0 0 0 0 0 0 0 0 0 0 0 0 0 0 0 0 0 0 0 0 0 0 0 0 0 0 0 0 0 0 0 0 0 0
4 0 0 0 0 0 0 0 0 0 0 0 0 0 0 0 0 0 0 0 0 0 0 0 0 0 0 0 0 0 0 0 0 0 0 0 0 0 0 0 0 0 0
0 0 0 0 0 0 0 0 0 0 0 0 0 0 0 0 0 0 0 0 0 0 0 0 0 0 0 0 0 0 0 0 0 0 0 0 0 0 0 0 0 0 0
0 0 0 0 0 0 0 0 0 0 0 0 0 0 0 0 0 0 0 0 0 0 0 0 0 0 0 0 0 0 0 0 0 0 0 0 0 0 0 0 0 0 0
0 0 0 0 0 0 0 0 0 0 0 0 0 0 0 0 0 0 0 0 0 0 0 0 0 0 0 0 0 0 0 0 0 0 0 0 0 0 0 0 0 0 0
0 0 0 0 0 0 0 0 0 0 0 0 0 0 0 0 0 0 0 0 0 0 0 0 0 0 0 0 0 0 0 0 0 0 0 0 0 0 0 0 0 0 0
0 0 0 0 0 0 0 0 0 0 0 0 0 0 0 0 0 0 0 0 0 0 0 0 0 0 0 0 0 0 0 0 0 0 0 0 0 0 0 0 0 0 0
0 0 0 0 0 0 0 0 0 0 0 0 0 0 0 0 0 0 0 0 0 0 0 0 0 0 0 0 0 0 0 0 0 0 0 0 0 0 0 0 0 0 0

GFSMA_con_mucape_072.txt.gz
CAPE
5 2 2 0 0 0 0 0 0 0 0 0 0 0 0 0 0 0 2 10 15 12 13 8 23 73 118 104 91 90 81 49 8 2 0 0 0 0 0 0 0 0 0
24 26 12 0 0 0 0 0 0 0 0 0 0 0 0 0 0 3 18 11 20 27 30 31 27 49 51 71 74 77 56 47 87 91 13 0 0 0 0 0 0 0 0
9 22 11 0 0 0 0 0 0 0 0 0 0 0 0 0 0 15 20 28 31 39 39 34 40 52 39 33 55 33 32 34 81 86 119 35 10 0 0 0 0 0 0
115 65 20 5 0 0 0 0 0 0 0 0 0 0 0 4 4 7 10 0 6 20 29 38 49 41 25 10 0 0 32 36 33 76 90 79 87 34 2 0 0 0 0
168 130 73 45 0 0 16 23 46 55 21 19 6 7 2 6 4 0 0 0 0 0 10 31 26 1 5 10 29 54 16 0 0 0 1 40 71 103 80 12 0 0 0
209 173 125 82 29 31 69 96 85 65 159 113 57 33 14 0 0 0 0 0 0 0 0 20 33 19 48 47 14 1 0 2 5 3 4 1 7 10 70 124 68 9 0
386 346 186 169 111 84 107 194 216 240 169 130 49 8 0 0 0 0 0 0 0 0 0 33 12 13 9 5 0 0 0 1 6 8 3 2 4 2 2 20 67 128 49
259 254 245 206 174 221 303 317 240 223 168 164 59 54 1 0 0 0 0 0 0 0 0 9 1 7 10 5 0 0 0 0 0 1 3 4 12 5 3 5 20 49 141
219 265 238 225 217 259 348 286 291 286 248 174 93 75 10 0 0 0 0 0 0 0 0 0 5 4 1 0 0 0 0 0 0 3 3 4 6 4 6 7 35 61 84
250 271 204 169 210 218 143 156 245 188 132 111 67 65 16 25 0 0 0 0 0 0 0 4 4 8 1 1 0 1 8 4 0 7 5 8 11 15 19 13 13 33 68
217 251 196 128 81 37 14 10 8 16 39 25 0 0 0 0 2 2 0 0 0 1 5 12 6 5 4 9 2 10 12 0 0 29 35 29 31 30 14 9 9 1 16
118 107 118 127 57 8 0 3 11 7 0 0 0 0 0 0 0 0 0 2 7 5 5 12 8 6 0 9 3 13 9 3 0 1 15 17 12 34 65 10 4 6 11
67 104 144 72 23 9 6 4 31 0 0 0 0 0 0 0 0 0 0 0 0 3 8 9 5 5 14 10 3 16 14 12 0 0 5 19 10 22 30 43 53 50 18
94 71 39 5 15 1 30 6 0 0 0 0 0 0 0 0 0 1 2 0 0 6 18 26 7 1 11 11 25 23 11 14 0 0 0 0 0 0 1 33 25 31 45
99 41 18 12 14 3 0 0 0 0 0 0 0 0 0 0 0 0 4 10 13 0 11 11 4 5 10 5 12 20 4 6 0 0 0 0 0 0 4 0 0 7 1
61 43 52 26 3 0 0 0 0 0 0 0 0 0 0 0 0 0 0 16 10 29 29 2 10 8 11 26 9 8 6 0 0 0 0 0 0 0 0 0 3 0 1
41 5 0 1 1 0 0 0 0 0 0 0 0 0 0 0 0 0 0 0 31 32 10 2 0 7 9 9 15 3 0 0 0 0 0 0 0 0 0 0 0 1 0
0 4 4 17 20 14 3 0 0 0 0 0 0 0 0 0 0 0 0 0 0 0 0 0 4 7 7 0 8 0 1 0 0 0 0 0 0 0 0 0 0 0 0
0 3 12 16 18 19 8 4 0 0 0 0 0 0 0 0 0 0 0 0 0 0 0 0 0 0 0 0 0 0 0 0 0 0 0 0 0 0 0 0 0 0 0
0 0 4 12 15 2 1 0 0 0 0 0 0 0 0 0 0 0 0 0 0 0 0 0 0 0 0 0 0 0 0 0 0 0 0 0 0 0 0 0 0 0 0
0 0 0 0 0 0 0 0 0 0 0 0 0 0 0 0 0 0 0 0 0 0 0 0 0 0 0 0 0 0 0 0 0 0 0 0 0 0 0 0 0 0 0
0 0 0 0 0 0 0 0 0 0 0 0 0 0 0 0 0 0 0 0 0 0 0 0 0 0 0 0 0 0 0 0 0 0 0 0 0 0 0 0 0 0 0
0 0 0 0 0 0 0 0 0 0 0 0 0 0 0 0 0 0 0 0 0 0 0 0 0 0 0 0 0 0 0 0 0 0 0 0 0 0 0 0 0 0 0
0 0 0 0 0 0 0 0 0 0 0 0 0 0 0 0 0 0 0 0 0 0 0 0 0 0 0 0 0 0 0 0 0 0 0 0 0 0 0 0 0 0 0
0 0 0 0 0 0 0 0 0 0 0 0 0 0 0 0 0 0 0 0 0 0 0 0 0 0 0 0 0 0 0 0 0 0 0 0 0 0 0 0 0 0 0
0 0 0 0 0 0 0 0 0 0 0 0 0 0 0 0 0 0 0 0 0 0 0 0 0 0 0 0 0 0 0 0 0 0 0 0 0 0 0 0 0 0 0

GFSMA_con_mucape_075.txt.gz
CAPE
0 0 0 0 0 0 0 0 0 0 0 0 0 0 0 0 0 0 1 4 9 17 25 23 27 38 65 81 76 79 80 69 56 8 1 0 0 0 0 0 0 0 0
11 9 16 3 0 0 0 0 0 0 0 0 0 0 0 0 0 0 0 7 2 21 33 52 52 40 49 45 62 58 37 58 79 104 61 0 0 0 0 0 0 0 0
35 27 30 16 0 0 0 0 0 0 0 0 0 0 0 0 0 0 8 8 6 4 18 22 69 66 70 48 55 26 22 48 61 73 93 98 30 8 0 0 0 0 0
52 24 32 23 0 0 0 0 0 0 0 0 0 1 6 3 8 7 1 2 0 0 0 0 15 51 50 25 15 19 42 0 0 0 50 85 77 84 12 0 0 0 0
87 114 82 34 11 0 0 0 0 0 21 13 14 26 9 12 8 0 0 0 0 0 0 0 7 14 17 9 45 42 1 0 0 0 0 0 27 58 104 67 5 0 0
185 197 156 80 30 0 0 18 41 41 24 40 44 43 39 7 0 0 0 0 0 0 0 0 0 2 28 34 27 15 2 0 1 1 3 3 2 2 5 70 102 32 1
198 247 197 148 92 31 12 67 103 51 45 75 115 46 17 0 0 0 0 0 0 0 0 0 10 0 9 4 5 1 0 0 0 1 0 1 2 1 0 2 11 109 71
117 218 234 194 114 110 81 161 187 231 281 157 87 23 9 0 0 0 0 0 0 0 0 0 0 0 0 4 1 0 0 0 0 2 2 2 5 2 4 1 4 26 80
145 127 206 195 192 197 257 238 264 207 249 123 103 84 19 0 0 0 0 0 0 0 0 0 0 0 0 1 4 2 0 0 0 0 4 6 7 9 18 18 13 33 59
65 71 115 180 177 157 142 228 106 76 84 172 109 68 11 1 0 0 0 0 0 0 0 1 3 4 2 4 0 1 0 0 5 0 23 25 25 17 19 11 2 17 37
82 75 67 85 107 101 61 47 49 8 6 6 4 0 0 0 0 0 0 0 0 0 0 2 4 6 12 7 6 9 6 8 12 2 20 25 20 19 43 50 28 16 6
83 77 70 64 67 54 52 28 24 10 16 16 16 4 0 0 0 0 0 0 0 0 2 1 3 6 11 10 12 15 24 10 10 18 2 18 14 23 43 45 15 10 10
74 85 41 67 97 84 52 40 18 8 11 12 0 0 0 0 0 0 0 0 0 0 0 0 5 9 5 4 7 20 13 4 20 14 4 0 0 13 28 41 40 42 52
83 90 74 79 49 26 6 7 4 1 0 0 0 0 0 0 0 0 0 0 0 0 0 0 0 3 2 0 0 14 11 14 1 9 3 0 0 0 2 23 28 31 39
111 90 60 73 15 3 0 2 5 1 0 0 0 0 0 0 0 0 0 2 28 0 0 0 10 12 7 0 2 11 1 9 6 5 2 0 0 0 0 2 11 10 31
90 122 27 19 5 0 3 7 0 0 0 0 0 0 0 0 0 0 0 11 20 0 0 0 10 1 9 9 9 2 13 2 2 2 0 0 0 0 0 0 0 12 3
86 143 27 9 20 24 5 0 0 0 0 0 0 0 0 0 0 0 0 0 0 0 0 30 0 5 4 0 9 11 5 6 1 0 0 0 0 0 0 0 0 1 0
67 100 78 38 1 0 8 14 16 7 0 0 0 0 0 0 0 0 0 0 0 0 0 0 0 6 8 7 1 2 1 0 0 0 0 0 0 0 0 0 0 0 0
0 0 0 0 0 1 0 0 3 4 1 0 0 0 0 0 0 0 0 0 0 0 0 0 0 0 0 0 0 0 0 0 0 0 0 0 0 0 0 0 0 0 0
0 0 0 0 0 1 2 0 0 0 0 0 0 0 0 0 0 0 0 0 0 0 0 0 0 0 0 0 0 0 0 0 0 0 0 0 0 0 0 0 0 0 0
0 0 0 0 0 0 0 1 0 0 0 0 0 0 0 0 0 0 0 0 0 0 0 0 0 0 0 0 0 0 0 0 0 0 0 0 0 0 0 0 0 0 0
0 0 0 0 0 0 0 0 0 0 0 0 0 0 0 0 0 0 0 0 0 0 0 0 0 0 0 0 0 0 0 0 0 0 0 0 0 0 0 0 0 0 0
0 0 0 0 0 0 0 0 0 0 0 0 0 0 0 0 0 0 0 0 0 0 0 0 0 0 0 0 0 0 0 0 0 0 0 0 0 0 0 0 0 0 0
0 0 0 0 0 0 0 0 0 0 0 0 0 0 0 0 0 0 0 0 0 0 0 0 0 0 0 0 0 0 0 0 0 0 0 0 0 0 0 0 0 0 0
0 0 0 0 0 0 0 0 0 0 0 0 0 0 0 0 0 0 0 0 0 0 0 0 0 0 0 0 0 0 0 0 0 0 0 0 0 0 0 0 0 0 0
0 0 0 0 0 0 0 0 0 0 0 0 0 0 0 0 0 0 0 0 0 0 0 0 0 0 0 0 0 0 0 0 0 0 0 0 0 0 0 0 0 0 0

GFSMA_con_mucape_078.txt.gz
CAPE
0 0 0 0 0 0 0 0 0 0 0 0 0 0 1 3 2 4 6 0 0 0 11 26 32 40 43 59 59 55 60 65 45 35 0 0 0 0 0 0 0 0 0
23 0 5 0 1 0 0 0 0 0 0 0 2 1 3 5 9 14 16 19 0 0 6 45 68 57 59 53 64 48 26 22 51 61 77 28 0 0 0 0 0 0 0
82 82 97 77 42 7 0 0 0 25 28 31 26 49 15 23 17 10 15 10 11 0 0 20 46 90 67 57 44 35 58 40 0 23 41 63 93 7 0 0 0 0 0
207 105 98 106 49 26 1 5 30 25 0 15 57 58 31 25 19 24 27 23 17 16 12 0 4 32 64 48 25 54 45 0 0 0 0 3 30 89 63 7 0 0 0
257 133 110 113 69 37 27 9 8 5 12 52 83 72 54 17 41 21 13 14 11 1 6 4 0 0 34 15 44 59 15 0 0 0 0 1 3 5 52 95 18 1 0
108 85 123 123 69 23 11 10 0 2 48 111 38 27 97 69 36 21 0 0 0 0 0 0 0 0 12 42 24 19 13 5 0 0 0 0 0 3 3 21 55 82 3
285 247 116 150 140 89 22 0 7 24 66 97 151 104 86 49 28 0 0 0 0 0 0 0 10 22 0 2 2 4 0 0 0 0 0 0 0 2 1 1 12 33 131
217 219 160 90 159 142 109 22 57 170 171 212 150 106 68 22 2 0 0 0 0 0 0 0 0 6 0 2 0 1 0 0 0 0 0 0 1 2 5 6 6 10 45
156 197 132 73 82 135 275 425 389 370 426 280 136 158 63 7 0 0 0 0 0 0 0 0 0 4 0 0 1 2 1 0 0 0 0 0 9 11 18 18 17 22 44
100 63 92 63 44 98 99 250 611 547 321 216 181 127 164 123 1 0 0 0 0 0 0 0 0 0 1 2 0 5 1 0 0 12 19 17 11 11 22 23 18 3 11
5 8 21 91 70 45 52 64 91 76 61 55 48 1 0 0 0 0 0 0 0 0 0 0 0 0 0 6 3 4 6 0 9 5 0 1 0 1 10 74 9 21 32
32 45 64 86 60 65 58 42 60 30 46 36 16 7 2 0 5 0 0 0 0 0 0 0 0 2 0 0 9 4 5 7 16 6 0 5 0 0 13 67 60 49 25
67 45 62 68 51 42 31 32 44 28 8 26 16 9 13 4 0 0 0 0 0 0 0 0 0 0 0 0 7 3 3 7 23 3 3 6 2 0 12 31 34 21 39
92 98 88 53 65 56 61 42 67 8 4 6 6 10 0 0 0 0 0 0 0 0 1 1 0 0 0 0 1 3 0 3 3 10 1 11 3 0 0 7 8 8 17
131 141 131 107 102 59 57 22 3 0 0 0 0 0 0 0 0 0 0 0 2 0 0 13 1 0 0 3 4 1 6 1 10 2 4 1 6 0 0 0 4 18 14
45 97 112 112 115 50 39 1 0 0 0 0 0 0 0 0 0 0 0 0 21 9 25 6 5 5 13 8 6 19 9 11 0 8 12 5 9 0 0 0 0 0 0
2 22 162 191 73 0 0 0 0 0 0 0 0 0 0 0 0 0 0 4 12 20 2 3 0 0 0 0 5 9 2 8 5 10 1 0 0 0 0 0 0 0 0
0 59 182 242 6 4 11 24 3 0 0 0 0 0 0 0 0 0 0 0 0 0 0 0 0 0 0 3 9 12 14 9 5 0 0 0 0 0 0 0 0 0 0
0 0 90 158 92 36 3 0 0 0 0 0 0 0 0 0 0 0 0 0 0 0 0 0 0 0 0 0 0 5 3 2 0 0 0 0 0 0 0 0 0 0 0
0 0 1 116 92 0 0 0 0 0 0 0 0 0 0 0 0 0 0 0 0 0 0 0 0 0 0 0 0 0 0 0 0 0 0 0 0 0 0 0 0 0 0
0 0 0 0 0 0 0 0 0 0 0 0 0 0 0 0 0 0 0 0 0 0 0 0 0 0 0 0 0 0 0 0 0 0 0 0 0 0 0 0 0 0 0
0 0 0 0 0 0 0 0 0 0 0 0 0 0 0 0 0 0 0 0 0 0 0 0 0 0 0 0 0 0 0 0 0 0 0 0 0 0 0 0 0 0 0
0 0 0 0 0 0 0 0 0 0 0 0 0 0 0 0 0 0 0 0 0 0 0 0 0 0 0 0 0 0 0 0 0 0 0 0 0 0 0 0 0 0 0
0 0 0 0 0 0 0 0 0 0 0 0 0 0 0 0 0 0 0 0 0 0 0 0 0 0 0 0 0 0 0 0 0 0 0 0 0 0 0 0 0 0 0
0 0 0 0 0 0 0 0 0 0 0 0 0 0 0 0 0 0 0 0 0 0 0 0 0 0 0 0 0 0 0 0 0 0 0 0 0 0 0 0 0 0 0
0 0 0 0 0 0 0 0 0 0 0 0 0 0 0 0 0 0 0 0 0 0 0 0 0 0 0 0 0 0 0 0 0 0 0 0 0 0 0 0 0 0 0

GFSMA_con_mucape_081.txt.gz
CAPE
8 0 0 0 0 0 0 0 0 0 0 0 0 0 1 6 7 14 24 8 0 0 13 31 63 54 58 83 93 91 77 83 26 23 18 0 0 0 0 0 0 0 0
0 0 0 0 0 0 0 0 0 0 0 0 1 5 7 10 10 27 26 18 3 0 1 30 74 99 84 71 60 77 61 41 44 31 34 68 12 0 0 0 0 0 0
18 0 1 3 10 0 0 0 0 0 0 1 3 24 15 20 24 21 17 24 14 6 4 20 30 52 82 77 69 57 64 43 22 1 4 45 85 86 3 0 0 0 0
98 82 113 127 84 31 2 0 0 1 24 16 26 46 34 34 18 14 24 20 21 11 7 20 5 3 30 74 48 60 52 25 8 0 0 0 29 56 95 81 0 0 0
326 198 94 149 123 92 27 5 10 23 28 28 60 86 44 38 2 14 7 8 7 6 8 4 0 0 13 41 23 83 28 14 7 0 0 0 1 3 4 60 82 20 0
468 264 161 207 237 185 60 42 19 24 19 45 48 62 39 13 76 18 7 0 0 0 0 0 3 0 0 21 27 9 10 5 2 0 0 0 0 0 1 2 13 42 81
329 358 368 213 191 204 108 51 36 25 32 158 97 96 66 39 48 35 0 0 0 0 0 0 10 8 0 0 0 0 0 0 0 0 0 0 0 0 0 1 2 6 35
346 309 369 397 191 135 101 154 45 47 54 170 158 180 133 74 19 0 0 0 0 0 0 0 0 12 1 0 0 0 0 0 0 0 0 0 0 0 1 5 7 9 11
292 333 345 337 259 89 56 100 101 175 263 242 242 199 87 66 29 0 0 0 0 0 0 0 0 0 0 0 0 0 0 0 0 0 0 0 3 5 10 12 8 7 12
192 235 279 303 247 104 36 27 81 35 179 156 149 107 169 126 1 0 0 0 0 0 0 0 0 0 0 0 0 0 0 0 1 5 16 11 0 0 0 5 61 20 15
85 76 58 110 156 118 74 43 43 71 74 110 53 32 44 44 16 0 0 0 0 0 0 0 0 0 0 0 0 0 9 5 2 3 2 5 0 1 0 52 64 6 4
25 10 41 23 101 59 14 14 21 44 64 48 55 39 11 1 0 4 1 0 0 0 0 0 0 0 0 0 0 0 0 17 2 6 15 8 0 5 5 39 66 47 49
151 106 46 28 76 25 2 4 35 51 60 59 46 61 19 25 44 20 1 0 0 0 0 0 0 1 0 0 0 0 0 8 4 4 13 16 1 3 13 0 34 20 22
238 145 97 72 60 51 21 0 31 29 68 62 63 25 34 0 22 5 1 0 0 0 0 0 0 0 0 0 0 0 0 1 3 0 9 22 3 4 5 0 0 17 4
236 264 102 92 73 106 43 47 21 57 48 13 11 0 2 2 0 0 0 0 0 0 0 0 1 0 0 0 0 1 3 6 0 6 9 18 6 11 12 8 0 1 2
110 206 74 67 102 131 154 125 108 34 14 5 3 0 0 0 0 0 0 0 0 0 0 1 0 3 0 0 0 1 2 4 9 9 8 1 12 9 10 1 0 0 0
0 0 10 36 116 170 214 137 76 5 2 0 0 0 0 0 0 0 0 0 0 0 0 1 6 4 0 0 0 0 1 7 11 9 7 7 9 3 0 0 0 0 0
0 0 3 25 127 268 198 87 0 0 0 0 0 0 0 0 0 0 0 0 0 0 0 0 0 0 0 0 0 0 10 7 7 12 5 1 3 0 0 0 0 0 0
0 0 1 38 96 135 133 23 3 25 38 3 2 2 1 0 0 0 0 0 0 0 0 0 0 0 0 0 0 0 0 6 13 9 6 2 0 0 0 0 0 0 0
0 0 0 2 37 92 93 19 59 46 3 11 8 1 2 0 0 0 0 0 0 0 0 0 0 0 0 0 0 0 0 0 0 2 0 0 0 0 0 0 0 0 0
0 0 0 0 0 21 111 110 11 0 0 0 1 2 1 0 0 0 0 0 0 0 0 0 0 0 0 0 0 0 0 0 0 0 0 0 0 0 0 0 0 0 0
0 0 0 0 0 0 2 44 69 9 3 0 0 0 0 0 0 0 0 0 0 0 0 0 0 0 0 0 0 0 0 0 0 0 0 0 0 0 0 0 0 0 0
0 0 0 0 0 0 0 0 0 0 0 0 0 0 0 0 0 0 0 0 0 0 0 0 0 0 0 0 0 0 0 0 0 0 0 0 0 0 0 0 0 0 0
0 0 0 0 0 0 0 0 0 0 0 0 0 0 0 0 0 0 0 0 0 0 0 0 0 0 0 0 0 0 0 0 0 0 0 0 0 0 0 0 0 0 0
0 0 0 0 0 0 0 0 0 0 0 0 0 0 0 0 0 0 0 0 0 0 0 0 0 0 0 0 0 0 0 0 0 0 0 0 0 0 0 0 0 0 0
0 0 0 0 0 0 0 0 0 0 0 0 0 0 0 0 0 0 0 0 0 0 0 0 0 0 0 0 0 0 0 0 0 0 0 0 0 0 0 0 0 0 0

GFSMA_con_mucape_084.txt.gz
CAPE
0 0 0 0 0 0 0 0 0 0 0 0 0 0 0 0 0 0 1 2 5 11 4 18 37 68 56 68 88 72 76 55 19 37 49 15 0 0 0 0 0 0 0
0 0 0 0 0 0 0 0 0 0 0 0 0 0 0 0 1 6 9 4 2 6 27 21 41 52 73 63 57 70 51 20 20 0 1 4 45 2 0 0 0 0 0
0 0 0 0 0 0 0 0 0 0 0 0 0 0 2 0 10 7 9 4 4 0 7 20 29 21 31 36 60 52 35 22 0 0 0 0 1 29 68 15 0 0 0
0 0 0 0 0 1 1 0 0 0 0 0 1 6 11 23 8 9 8 12 4 0 0 3 9 0 0 33 62 59 30 8 0 0 0 0 0 0 4 77 61 5 0
73 62 85 99 81 52 28 1 0 2 1 0 0 16 29 39 23 9 2 4 1 1 0 0 0 0 0 80 42 56 4 0 0 0 0 0 0 0 0 4 22 80 54
317 293 98 88 131 107 62 31 10 6 9 15 7 19 31 18 18 7 14 12 0 0 0 0 0 0 0 7 28 18 0 0 0 0 0 0 0 0 0 1 2 2 61
345 343 191 145 180 186 240 72 58 31 3 0 63 32 33 35 23 5 13 5 0 0 0 0 0 0 0 0 9 0 0 0 0 0 0 0 0 0 0 0 1 2 5
249 251 240 201 203 198 229 177 142 80 32 21 66 92 60 50 30 16 10 5 0 0 0 0 0 0 0 0 0 0 0 0 0 0 0 0 0 1 7 11 10 12 12
275 309 292 323 291 180 101 219 185 125 94 74 115 95 58 14 34 19 2 0 0 0 0 0 0 1 1 0 0 0 0 0 0 0 0 0 1 3 2 2 6 20 22
206 243 276 243 244 236 203 116 99 68 85 47 42 66 72 53 25 2 0 0 0 0 0 0 0 0 0 0 0 0 1 6 4 21 40 7 3 0 0 3 35 50 5
36 88 191 226 224 200 169 124 92 88 60 65 38 23 72 40 26 0 0 1 2 6 2 2 4 4 0 0 0 0 0 2 3 7 12 5 2 3 0 14 58 37 40
14 37 33 40 50 108 136 120 113 106 125 20 21 60 47 63 51 18 10 0 0 1 0 0 0 0 0 0 0 0 0 0 1 5 8 2 0 3 0 0 11 8 18
36 13 14 6 5 47 91 80 41 75 107 60 34 16 12 19 32 10 19 0 0 0 0 0 0 0 0 0 0 0 0 0 0 5 2 1 2 3 0 0 10 1 0
124 139 127 91 73 54 31 20 20 61 79 23 80 46 37 32 42 8 3 0 0 0 0 0 0 0 0 0 0 0 0 0 1 6 1 0 8 10 0 0 3 0 0
208 239 205 140 78 64 72 39 43 74 77 78 63 53 63 80 52 45 39 2 0 0 0 0 0 0 0 0 0 0 0 4 5 15 9 2 10 9 9 1 8 2 0
91 148 287 180 203 52 96 79 103 101 144 143 71 45 31 19 4 5 3 0 0 0 0 0 0 0 3 5 2 0 0 0 5 0 0 6 2 3 3 6 1 0 0
0 0 1 13 10 18 32 118 195 180 174 120 110 21 6 1 0 0 0 0 0 0 0 0 0 1 7 2 2 0 0 0 0 1 5 9 6 11 10 4 0 0 0
0 0 0 3 3 4 13 54 167 195 159 95 21 0 3 0 0 0 0 0 0 0 0 0 0 0 4 0 0 0 0 0 0 2 3 8 9 4 0 0 0 0 0
0 0 0 0 4 6 18 49 156 54 80 8 0 0 0 0 1 5 0 0 0 0 0 0 0 0 0 0 0 0 0 0 0 0 3 8 12 1 0 0 0 0 0
0 0 0 0 0 8 17 55 23 91 53 8 24 45 4 4 5 0 0 0 0 0 0 0 0 0 0 0 0 0 0 0 0 0 2 4 1 0 0 0 0 0 0
0 0 0 0 0 0 4 20 46 58 81 63 77 6 12 17 14 10 3 0 0 0 0 0 0 0 0 0 0 0 0 0 0 0 0 0 0 0 0 0 0 0 0
0 0 0 0 0 0 0 1 15 45 59 61 41 38 28 16 2 0 0 0 0 0 0 0 0 0 0 0 0 0 0 0 0 0 0 0 0 0 0 0 0 0 0
0 0 0 0 0 0 0 0 0 1 8 24 57 27 24 19 8 0 0 0 0 0 0 0 0 0 0 0 0 0 0 0 0 0 0 0 0 0 0 0 0 0 0
0 0 0 0 0 0 0 0 0 0 0 0 5 14 11 6 0 0 0 0 0 0 0 0 0 0 0 0 0 0 0 0 0 0 0 0 0 0 0 0 0 0 0
0 0 0 0 0 0 0 0 0 0 0 0 0 0 0 0 0 0 0 0 0 0 0 0 0 0 0 0 0 0 0 0 0 0 0 0 0 0 0 0 0 0 0
0 0 0 0 0 0 0 0 0 0 0 0 0 0 0 0 0 0 0 0 0 0 0 0 0 0 0 0 0 0 0 0 0 0 0 0 0 0 0 0 0 0 0

GFSMA_con_mucape_087.txt.gz
CAPE
7 0 0 0 0 0 0 0 0 0 0 0 0 0 0 0 0 0 0 1 3 17 12 12 23 35 56 49 67 69 48 33 0 0 0 19 1 0 0 0 0 0 0
7 0 0 0 0 0 0 0 0 0 0 0 0 0 0 0 0 3 4 1 3 8 36 25 29 42 42 58 60 62 47 9 0 0 0 2 53 57 12 0 0 0 0
1 6 0 0 0 0 0 0 0 0 0 0 0 0 0 0 0 4 7 5 5 1 11 66 30 24 21 28 36 48 24 4 0 0 0 0 1 3 5 68 13 0 0
21 0 0 0 0 0 0 0 0 0 0 0 0 0 0 1 13 19 29 7 4 3 0 28 106 4 0 15 96 66 28 0 0 0 0 0 0 1 0 12 82 58 0
0 0 0 0 0 0 0 0 0 0 0 2 6 10 17 7 27 36 16 8 6 5 0 0 0 0 0 0 142 87 6 0 0 0 0 0 0 0 0 2 6 32 75
0 0 20 10 48 58 43 25 0 0 1 5 4 9 15 15 51 38 43 9 25 0 0 0 0 0 3 140 145 73 4 0 0 0 0 0 0 0 0 0 0 4 13
125 69 109 127 139 119 95 82 54 10 8 18 29 13 17 48 19 8 75 17 9 1 0 0 0 0 0 13 138 34 4 0 0 0 0 0 0 0 0 2 3 3 5
320 325 242 160 214 220 209 186 126 78 59 32 19 31 92 96 38 33 24 1 5 9 0 0 0 0 0 0 0 0 0 0 0 0 0 0 0 0 0 1 1 8 9
218 203 223 233 232 234 233 203 174 164 146 129 93 43 79 84 27 28 16 16 43 14 0 0 0 0 0 0 0 0 0 0 0 0 2 10 0 0 0 0 12 46 27
60 123 172 214 291 267 213 152 134 117 105 118 93 91 83 62 34 10 25 53 42 0 0 0 0 0 0 0 0 0 0 4 4 15 39 15 5 2 0 0 18 46 55
48 60 92 164 178 189 174 161 147 107 73 64 72 74 70 35 18 41 0 23 31 0 0 0 1 7 9 4 0 0 0 0 2 10 12 20 2 6 0 1 21 21 30
16 13 30 72 155 193 231 176 166 116 94 81 60 55 33 30 40 33 38 20 11 2 1 6 7 0 0 0 0 0 0 0 0 0 12 13 0 3 0 0 7 8 10
37 6 10 14 32 32 69 143 152 154 71 100 115 40 68 66 33 47 11 21 7 1 0 0 0 0 0 0 0 0 0 0 0 0 1 29 5 0 0 3 0 0 0
60 31 21 9 18 33 30 50 59 123 40 99 103 90 52 52 44 69 28 0 2 0 1 2 4 0 0 0 0 0 0 0 0 0 6 4 3 0 2 5 0 0 0
83 91 90 111 88 65 61 74 68 38 7 50 48 60 66 58 53 48 45 12 1 5 20 5 0 0 0 0 0 0 0 0 0 4 6 10 15 5 11 14 6 1 0
41 71 120 106 71 100 265 175 109 66 45 88 87 58 55 97 90 81 51 45 28 21 2 0 0 0 0 0 5 5 4 2 0 0 3 5 0 11 5 1 2 0 0
0 0 0 0 0 2 8 10 59 62 113 145 62 67 76 52 88 44 40 29 0 0 0 0 0 0 0 2 3 3 0 2 0 0 0 0 3 5 9 13 8 2 0
0 0 0 0 0 1 4 5 6 32 103 198 125 111 94 44 14 1 0 0 0 0 0 0 0 0 0 0 0 0 0 0 0 0 0 1 5 11 3 0 0 0 0
0 0 0 0 0 0 2 8 7 8 45 113 38 99 40 22 8 0 0 0 0 0 0 0 0 0 0 0 0 0 0 0 0 0 0 0 10 3 10 6 0 0 0
0 0 0 0 0 0 0 4 14 9 22 53 48 65 9 1 0 0 4 10 1 0 0 0 0 0 0 0 0 0 0 0 0 0 0 0 0 0 0 0 0 0 0
0 0 0 0 0 0 0 0 4 5 13 31 67 45 27 25 43 9 10 8 1 0 0 0 0 0 0 0 0 0 0 0 0 0 0 0 0 0 0 0 0 0 0
0 0 0 0 0 0 0 0 0 5 11 4 12 29 49 33 71 42 47 19 12 0 0 0 0 0 0 0 0 0 0 0 0 0 0 0 0 0 0 0 0 0 0
0 0 0 0 0 0 0 0 0 0 0 1 2 8 18 2 33 45 30 25 22 7 0 0 0 0 0 0 0 0 0 0 0 0 0 0 0 0 0 0 0 0 0
0 0 0 0 0 0 0 0 0 0 0 0 0 6 7 6 5 18 10 3 22 10 0 0 0 0 0 0 0 0 0 0 0 0 0 0 0 0 0 0 0 0 0
0 0 0 0 0 0 0 0 0 0 0 0 0 0 0 1 10 8 3 0 0 0 0 0 0 0 0 0 0 0 0 0 0 0 0 0 0 0 0 0 0 0 0
0 0 0 0 0 0 0 0 0 0 0 0 0 0 0 0 0 0 0 0 0 0 0 0 0 0 0 0 0 0 0 0 0 0 0 0 0 0 0 0 0 0 0

GFSMA_con_mucape_090.txt.gz
CAPE
77 44 5 1 0 0 0 0 0 0 0 0 0 0 0 0 0 0 0 0 0 54 78 40 35 28 33 40 62 58 45 31 20 3 3 42 17 0 0 0 0 0 0
120 48 4 8 0 2 0 0 0 0 0 0 0 0 0 0 0 0 0 0 2 8 66 46 32 31 50 26 55 75 71 54 8 0 0 0 1 16 47 10 0 0 0
15 53 5 1 1 0 0 0 0 0 0 0 0 0 0 0 0 0 0 2 4 2 20 76 134 56 32 17 39 38 46 12 0 0 0 0 0 0 0 38 51 2 0
37 39 15 3 0 0 0 0 0 0 0 0 0 0 0 0 0 0 8 7 5 3 7 16 142 144 8 0 27 112 43 2 0 0 0 0 0 0 0 0 0 31 40
49 50 10 7 1 0 0 0 0 0 0 0 0 0 0 0 0 2 12 12 4 3 1 0 0 6 0 0 50 138 42 0 0 0 0 0 0 0 0 0 0 0 1
91 43 56 9 0 0 0 0 0 0 0 0 11 15 13 12 4 4 8 3 6 0 1 0 0 0 0 0 68 137 34 0 0 0 0 0 0 0 0 0 0 0 0
81 106 63 2 0 0 0 0 0 0 0 16 15 15 20 17 22 32 30 13 8 1 1 0 0 0 0 46 240 195 18 2 0 0 0 0 0 0 0 0 2 2 1
136 126 41 27 16 7 55 81 73 45 16 22 44 50 31 25 39 61 22 5 6 4 2 0 0 0 0 5 55 99 38 5 0 0 0 0 0 0 0 0 0 23 43
155 188 138 200 221 224 211 185 186 156 106 100 82 45 37 43 83 93 66 26 22 36 11 32 5 0 0 0 14 28 13 6 0 0 0 2 3 1 7 6 27 55 61
70 96 183 204 272 276 274 261 271 194 163 112 76 55 63 72 59 36 28 41 43 32 18 35 1 0 0 0 0 0 0 3 4 9 24 41 8 2 12 10 32 45 51
58 53 57 69 84 135 129 133 142 154 138 111 104 77 77 61 38 15 29 14 20 16 46 15 0 1 0 1 1 0 0 0 2 6 42 47 11 0 3 12 23 30 14
44 44 53 52 51 76 94 137 88 80 92 90 92 84 51 57 52 27 10 9 6 6 1 6 26 2 4 6 0 0 0 0 0 2 11 39 27 1 0 0 5 6 7
15 17 23 14 29 61 60 101 110 94 84 70 83 82 114 108 61 39 42 21 19 15 0 1 0 1 4 0 0 0 0 0 0 0 1 31 6 0 2 0 0 1 2
30 48 32 21 11 21 41 50 51 56 117 95 88 46 66 64 81 83 73 58 59 29 2 4 5 2 6 1 0 0 0 0 0 0 4 2 2 7 5 2 0 5 0
40 78 107 75 53 32 33 51 36 38 29 60 54 27 47 6 8 65 80 83 6 5 36 3 0 0 1 0 0 0 0 3 0 0 0 0 18 10 16 2 14 5 5
36 34 46 92 110 69 106 152 123 106 103 55 32 27 30 38 26 57 35 28 33 10 23 0 4 7 0 0 0 0 3 3 2 1 0 0 0 4 2 0 3 1 0
16 15 10 14 11 17 30 31 78 93 130 47 79 82 29 75 49 77 73 23 30 53 24 39 2 0 0 0 0 0 3 4 2 0 0 0 0 0 0 6 3 8 2
0 0 0 0 0 0 0 0 0 12 26 37 11 145 84 6 26 19 31 31 21 25 16 21 1 0 0 0 0 0 0 0 0 0 0 0 0 9 5 12 6 0 0
0 0 0 0 0 0 0 4 10 13 6 5 10 32 92 43 57 32 13 31 15 10 0 0 0 0 0 0 0 0 0 0 0 0 0 0 0 0 0 1 8 5 0
0 0 0 0 0 0 0 0 1 6 9 4 4 12 21 21 41 44 32 26 0 0 0 0 1 0 0 0 0 0 0 0 0 0 0 0 0 0 0 0 0 0 0
0 0 0 0 0 0 0 0 0 0 6 6 9 5 20 20 30 16 26 2 7 14 35 9 0 0 0 0 0 0 0 0 0 0 0 0 0 0 0 0 0 0 0
0 0 0 0 0 0 0 0 0 0 0 1 8 4 7 2 66 41 24 12 19 28 22 5 3 4 0 0 0 0 0 0 0 0 0 0 0 0 0 0 0 0 0
0 0 0 0 0 0 0 0 0 0 0 0 0 9 6 13 12 0 27 4 50 0 3 3 7 5 0 0 0 0 0 0 0 0 0 0 0 0 0 0 0 0 0
0 0 0 0 0 0 0 0 0 0 0 0 0 0 3 3 3 3 7 3 0 0 6 0 3 1 0 0 0 0 0 0 0 0 0 0 0 0 0 0 0 0 0
0 0 0 0 0 0 0 0 0 0 0 0 0 0 0 0 7 11 7 7 5 0 0 4 1 1 0 0 0 0 0 0 0 0 0 0 0 0 0 0 0 0 0
0 0 0 0 0 0 0 0 0 0 0 0 0 0 0 0 0 0 1 7 3 5 3 1 0 0 0 0 0 0 0 0 0 0 0 0 0 0 0 0 0 0 0

GFSMA_con_mucape_093.txt.gz
CAPE
151 157 147 99 31 25 25 3 0 0 0 0 0 0 0 0 0 0 0 0 0 171 213 45 34 39 45 59 74 77 40 14 18 0 0 3 39 3 0 0 0 0 0
61 97 97 114 10 8 32 0 0 0 0 0 0 0 0 0 0 0 0 0 0 5 159 156 52 33 28 45 30 87 64 44 1 0 0 0 0 0 10 51 28 0 0
39 54 12 204 7 11 53 0 0 0 0 0 0 0 0 0 0 0 0 0 0 1 19 108 130 72 36 19 9 67 92 50 0 0 0 0 0 0 0 0 3 56 27
55 9 5 94 47 88 118 1 0 0 0 0 0 0 0 0 0 0 0 0 1 6 1 33 165 242 126 11 1 94 84 14 0 0 0 0 0 0 0 0 0 1 38
41 22 2 12 26 6 99 24 0 0 0 0 0 0 0 0 0 0 0 0 4 5 0 0 2 45 78 2 0 114 65 1 0 0 0 0 0 0 0 0 0 0 1
57 62 22 2 72 101 83 8 0 0 0 0 0 0 0 0 0 8 0 0 3 0 0 0 0 1 0 0 0 102 119 10 0 0 0 0 0 0 0 0 0 0 0
36 72 64 36 36 93 101 3 0 0 0 0 0 0 10 23 21 24 15 23 32 7 5 7 0 0 0 0 46 210 188 31 2 0 0 0 0 0 0 0 0 0 29
43 62 99 67 58 18 45 71 42 0 0 0 0 25 32 28 36 31 23 35 29 9 0 3 0 5 2 0 63 189 158 68 11 0 0 0 0 0 0 0 10 44 52
90 3 84 111 71 37 20 71 33 1 0 0 52 52 47 29 42 36 40 36 23 17 5 7 8 9 10 0 27 40 23 33 3 1 0 0 1 0 3 9 29 44 47
50 74 77 93 97 88 73 37 37 57 121 94 40 53 57 59 54 19 39 51 48 22 33 41 27 20 6 0 8 32 12 3 6 5 20 31 17 0 1 7 19 33 30
56 69 45 85 102 123 157 185 151 158 162 174 108 73 64 67 51 35 30 14 35 46 54 24 31 22 9 1 0 8 0 0 0 0 30 47 50 1 0 0 10 25 10
31 38 51 61 99 107 110 93 95 103 125 118 90 71 55 51 16 62 51 32 34 34 15 9 12 9 2 4 0 0 0 0 0 0 14 49 44 1 0 0 1 5 11
27 14 36 63 58 66 76 66 90 76 69 56 62 65 59 63 82 71 61 73 49 31 30 23 27 14 16 12 0 0 0 0 0 0 2 22 42 4 0 4 0 0 0
32 47 37 29 22 5 15 9 53 12 73 64 51 52 67 43 45 86 94 82 74 53 7 29 47 34 18 16 4 3 4 0 0 0 0 9 7 8 0 5 5 0 0
35 23 53 52 47 42 29 14 13 30 38 31 28 45 52 69 42 30 31 13 32 20 0 9 28 5 13 2 4 17 8 0 0 0 0 0 0 5 4 2 5 1 0
35 42 36 28 55 34 51 41 34 43 51 42 33 23 45 41 24 19 37 25 14 8 28 1 33 40 13 18 2 0 0 0 0 0 1 0 0 0 0 0 1 0 0
17 23 29 26 1 8 10 37 51 88 84 69 65 67 84 61 68 43 36 48 36 20 9 4 20 4 6 7 1 0 0 0 0 4 2 1 0 0 0 0 0 0 3
0 0 0 0 1 3 0 4 9 15 15 8 8 13 18 25 35 55 66 43 46 31 37 32 44 13 19 7 4 0 0 0 0 0 0 0 0 0 0 0 0 0 6
0 0 0 0 0 0 0 0 0 1 0 1 3 3 1 14 71 47 74 32 67 1 15 9 1 11 0 6 0 0 0 0 0 0 0 0 0 0 0 0 0 0 0
0 0 0 0 0 0 0 0 0 0 2 4 9 12 5 5 12 22 77 19 27 12 9 31 37 16 3 0 0 0 0 0 0 0 0 0 0 0 0 0 0 0 0
0 0 0 0 0 0 0 0 0 0 0 0 4 12 4 4 14 11 15 21 26 16 0 0 9 0 0 0 1 0 0 0 0 0 0 0 0 0 0 0 0 0 0
0 0 0 0 0 0 0 0 0 0 0 0 0 2 6 6 6 4 32 29 43 28 11 0 2 4 16 0 0 0 0 0 0 0 0 0 0 0 0 0 0 0 0
0 0 0 0 0 0 0 0 0 0 0 0 0 0 0 0 21 6 3 18 16 29 21 15 16 12 21 3 1 0 0 0 0 0 0 0 0 0 0 0 0 0 0
0 0 0 0 0 0 0 0 0 0 0 0 0 0 0 0 4 15 11 20 22 19 0 0 0 6 0 0 6 2 0 0 0 0 0 0 0 0 0 0 0 0 0
0 0 0 0 0 0 0 0 0 0 0 0 0 0 0 0 0 6 10 7 23 35 1 8 13 1 0 0 0 0 0 0 0 0 0 0 0 0 0 0 0 0 0
0 0 0 0 0 0 0 0 0 0 0 0 0 0 0 0 0 0 0 5 9 3 7 18 5 6 0 0 0 0 0 0 0 0 0 0 0 0 0 0 0 0 0

GFSMA_con_mucape_096.txt.gz
CAPE
165 185 182 179 137 173 67 150 65 38 23 0 0 0 0 0 0 0 0 0 0 86 193 66 56 51 59 53 66 72 53 15 11 0 0 0 8 6 8 2 0 0 0
108 172 176 145 135 116 132 65 75 47 16 0 0 0 0 0 0 0 0 0 0 0 91 216 158 109 75 51 58 39 93 46 27 0 0 0 0 0 2 12 29 33 1
66 99 151 156 148 116 91 62 86 82 0 0 0 0 0 0 0 0 0 0 0 0 3 35 341 196 123 58 48 12 127 53 8 0 0 0 0 0 0 0 0 0 40
42 55 88 98 49 45 80 23 32 104 8 0 0 0 0 0 0 0 0 0 0 0 0 5 113 358 253 128 55 22 110 71 1 0 0 0 0 0 0 0 0 0 2
17 36 30 66 69 37 36 59 6 75 43 0 0 0 0 0 0 0 0 0 0 0 2 0 0 45 144 221 65 26 108 37 0 0 0 0 0 0 0 0 0 0 0
0 22 35 77 54 59 5 1 9 99 60 19 0 0 0 0 0 0 0 0 0 0 8 2 0 0 12 122 78 64 155 25 1 0 0 0 0 0 0 0 0 0 0
3 20 59 85 82 77 9 0 1 64 93 14 0 0 0 0 0 0 0 13 17 22 23 12 0 0 0 4 29 55 229 109 5 0 0 0 0 0 0 0 0 5 15
32 120 94 101 64 62 28 3 2 0 50 23 15 1 11 4 3 20 12 26 41 41 33 28 0 0 2 1 8 105 353 157 14 0 0 0 0 0 0 0 0 14 31
43 38 44 75 87 63 23 7 6 61 1 11 68 40 50 22 36 50 52 56 62 49 62 49 17 0 0 5 21 153 154 187 45 9 1 0 0 0 0 0 4 20 18
24 44 75 32 18 24 5 3 26 72 60 74 80 53 66 56 44 38 52 64 68 88 96 77 57 20 19 15 24 126 96 64 108 22 24 16 7 0 1 0 0 5 4
20 22 33 26 16 4 43 27 78 80 100 120 90 83 115 114 89 69 61 69 70 101 105 115 75 48 38 33 18 28 17 11 31 18 14 35 54 31 7 0 0 0 13
33 44 13 9 34 60 41 35 70 71 111 151 173 114 128 88 77 72 82 46 30 20 33 74 54 50 46 17 37 32 18 7 4 5 2 43 59 52 1 0 0 0 8
30 45 12 29 14 24 56 60 50 64 68 84 96 103 87 78 60 70 59 18 16 16 16 32 32 46 43 32 29 51 17 5 12 2 6 20 28 15 1 0 0 0 1
4 10 32 12 34 28 38 35 37 46 68 80 60 68 60 58 62 34 23 16 0 0 19 30 34 40 28 26 19 21 15 4 3 2 3 2 3 3 0 2 0 0 0
1 36 37 45 9 42 49 68 74 51 44 53 26 25 50 38 22 10 60 56 7 0 0 0 14 4 25 14 13 7 4 3 8 0 0 0 0 3 2 2 2 0 0
40 27 2 24 8 50 46 43 43 32 29 39 31 27 17 11 31 26 50 42 15 2 0 10 5 9 15 3 5 6 21 7 2 1 0 0 0 0 0 0 0 0 0
7 1 0 4 17 2 14 2 15 38 31 45 39 49 55 52 39 17 27 31 14 31 5 0 8 7 17 25 6 10 3 2 1 0 0 0 0 0 0 0 0 0 0
0 0 0 0 0 0 0 0 0 0 24 43 30 30 41 30 23 32 44 2 44 26 44 0 0 39 18 17 19 17 5 1 0 0 0 0 0 0 0 0 0 0 0
0 0 0 0 0 0 0 0 0 0 0 0 0 0 0 0 2 7 5 7 29 37 12 52 54 4 28 16 14 10 6 0 0 0 0 0 0 0 0 0 0 0 0
0 0 0 0 0 0 0 0 0 0 0 0 0 3 4 4 6 11 6 12 20 14 49 46 24 0 10 28 0 13 2 0 0 0 0 0 0 0 0 0 0 0 0
0 0 0 0 0 0 0 0 0 0 0 0 0 0 2 4 3 17 14 1 22 46 55 17 2 0 0 0 3 2 0 0 0 0 0 0 0 0 0 0 0 0 0
0 0 0 0 0 0 0 0 0 0 0 0 0 0 0 0 1 12 8 8 5 2 32 29 24 9 0 0 0 0 0 0 0 0 0 0 0 0 0 0 0 0 0
0 0 0 0 0 0 0 0 0 0 0 0 0 0 0 0 3 7 4 5 13 14 45 22 64 49 24 0 0 2 0 1 1 0 0 0 0 0 0 0 0 0 0
0 0 0 0 0 0 0 0 0 0 0 0 0 0 0 0 0 0 4 5 16 22 46 20 32 37 9 2 0 3 1 1 0 0 0 0 0 0 0 0 0 0 0
0 0 0 0 0 0 0 0 0 0 0 0 0 0 0 0 0 0 1 4 6 17 19 27 38 53 21 3 0 1 1 0 0 0 0 0 0 0 0 0 0 0 0
0 0 0 0 0 0 0 0 0 0 0 0 0 0 0 0 0 6 7 7 10 7 9 26 7 5 11 1 0 0 0 0 0 0 0 0 0 0 0 0 0 0 0

GFSMA_con_mucape_099.txt.gz
CAPE
137 185 276 244 152 110 106 306 138 119 83 28 0 0 0 0 0 0 0 0 0 52 189 142 86 67 59 60 68 71 58 11 2 0 0 0 2 1 3 9 1 0 0
111 117 184 207 261 189 216 140 144 146 93 61 33 0 0 0 0 0 0 0 0 0 69 214 190 170 152 135 77 81 83 58 24 0 0 0 0 0 0 0 3 8 21
29 148 240 172 178 203 194 93 86 127 104 101 58 0 0 0 0 0 0 0 0 0 0 11 160 251 256 157 108 104 132 122 37 0 0 0 0 0 0 0 0 0 0
0 33 137 159 245 159 168 146 59 83 64 109 140 2 0 0 0 0 0 0 0 0 0 0 25 199 355 183 132 68 104 186 55 0 0 0 0 0 0 0 0 0 0
0 7 51 59 161 153 104 97 128 86 40 29 101 16 0 0 0 0 0 0 0 0 0 0 0 1 124 426 181 114 119 208 42 0 0 0 0 0 0 0 0 0 0
2 28 38 46 94 98 46 76 26 81 98 26 4 0 0 0 0 0 0 0 0 0 0 0 0 0 0 184 411 165 125 215 49 1 0 0 0 0 0 0 0 0 0
1 22 59 63 99 78 28 53 77 35 77 23 20 4 0 0 0 0 0 0 0 0 7 26 28 22 0 49 240 268 140 117 102 2 0 0 0 0 0 0 0 1 6
20 10 67 37 33 41 35 43 65 45 101 36 21 3 0 5 1 0 0 0 0 25 48 56 56 56 29 46 112 147 183 236 213 41 0 0 0 0 0 0 0 0 3
73 35 127 106 47 40 15 9 51 54 75 19 17 9 0 0 37 63 50 38 23 39 65 88 84 84 54 33 26 16 40 320 320 137 11 0 0 0 0 0 0 8 3
76 79 102 104 59 62 49 3 22 62 90 28 3 5 36 34 98 96 46 76 87 101 119 139 131 147 95 53 21 40 37 176 440 217 40 9 0 0 0 0 0 9 0
33 70 27 96 32 55 12 6 42 34 6 3 0 0 0 73 90 103 104 121 141 153 158 165 106 108 83 80 58 54 112 203 415 256 129 75 35 4 0 0 0 0 6
25 29 30 5 100 24 13 12 2 2 3 6 7 31 0 17 82 131 118 132 120 122 100 107 135 95 57 53 48 40 60 144 275 173 142 173 133 99 49 19 1 0 0
10 25 40 25 22 14 5 12 6 25 4 3 24 61 49 69 79 87 76 87 73 91 51 55 59 28 30 45 44 43 48 70 57 127 116 110 93 95 7 1 0 0 0
6 3 3 14 3 3 8 8 11 10 32 56 51 62 70 61 51 59 79 70 75 43 33 22 7 13 16 33 33 37 50 31 27 21 15 17 44 10 2 4 0 0 0
0 5 15 1 15 11 17 18 13 47 56 65 62 60 61 66 64 60 56 56 61 0 0 0 3 18 6 4 6 24 23 29 17 8 6 0 6 1 0 0 1 1 0
41 20 3 14 4 17 10 1 0 15 37 57 53 59 62 64 59 44 30 40 68 76 0 0 0 3 5 4 13 11 6 3 4 5 9 5 1 1 0 0 0 0 0
0 0 1 2 0 0 0 8 6 0 1 28 2 8 39 27 35 37 34 50 36 20 0 2 12 7 3 2 3 2 11 4 6 12 16 1 0 0 0 0 0 0 0
0 0 0 0 0 0 0 0 0 0 0 0 3 51 36 12 0 2 1 16 1 44 0 0 0 0 1 0 23 23 3 16 18 6 1 0 0 0 0 1 0 0 0
0 0 0 0 0 0 0 0 0 0 0 0 0 0 0 0 0 0 0 0 0 0 40 0 0 0 2 9 31 0 28 13 9 4 0 0 0 0 0 0 0 0 0
0 0 0 0 0 0 0 0 0 0 0 0 0 0 0 0 1 5 2 1 2 1 31 29 4 0 23 30 9 3 0 0 7 2 0 0 0 0 0 0 0 0 0
0 0 0 0 0 0 0 0 0 0 0 0 0 0 0 0 0 0 6 6 1 4 11 18 23 3 25 43 44 16 1 0 0 0 0 0 0 0 0 0 0 0 0
0 0 0 0 0 0 0 0 0 0 0 0 0 0 0 0 0 0 0 1 4 10 12 8 34 0 0 6 16 10 0 0 0 0 0 0 0 0 0 0 0 0 0
0 0 0 0 0 0 0 0 0 0 0 0 0 0 0 0 0 0 0 0 3 12 11 9 4 3 0 28 29 20 12 0 0 0 0 0 0 0 0 0 0 0 0
0 0 0 0 0 0 0 0 0 0 0 0 0 0 0 0 0 0 0 0 0 4 11 8 22 10 1 5 29 36 11 11 0 0 0 0 0 0 0 0 0 0 0
0 0 0 0 0 0 0 0 0 0 0 0 0 0 0 0 0 0 0 0 0 0 7 24 18 9 6 25 2 8 2 5 0 0 0 0 0 0 0 0 0 0 0
0 0 0 0 0 0 0 0 0 0 0 0 0 0 0 0 0 0 0 0 0 0 0 0 10 0 28 4 0 6 5 0 2 0 0 0 0 0 0 0 0 0 0

GFSMA_con_mucape_102.txt.gz
CAPE
115 180 528 404 565 910 251 101 125 123 269 230 10 0 0 0 0 0 0 0 0 27 180 210 146 51 33 39 54 65 47 8 0 0 0 0 1 0 2 7 3 1 0
41 107 143 249 407 444 306 189 163 182 78 181 108 20 0 0 0 0 0 0 0 0 11 171 162 164 155 130 122 124 136 90 13 2 0 0 0 0 0 0 1 0 2
8 12 78 173 272 526 472 431 389 297 348 97 59 28 0 0 0 0 0 0 0 0 0 0 104 182 178 171 183 209 278 252 88 17 0 0 0 0 0 0 0 0 0
3 0 17 51 125 370 536 613 551 313 198 63 65 52 7 0 0 0 0 0 0 0 0 0 85 201 295 178 202 242 250 323 256 70 0 0 0 0 0 0 0 0 0
15 0 12 27 49 175 246 287 248 286 181 127 72 69 19 6 0 0 0 0 0 0 0 0 0 0 70 248 251 293 231 363 318 92 0 0 0 0 0 0 0 0 0
41 44 3 4 20 43 128 100 122 87 157 112 78 70 66 7 0 0 0 0 0 0 0 0 0 0 0 48 217 318 318 337 352 138 2 0 0 0 0 0 0 0 0
39 39 41 32 39 52 69 89 146 67 106 132 81 83 6 18 24 1 0 0 0 0 0 0 11 55 37 14 46 361 361 324 339 202 18 0 0 0 0 0 0 1 1
135 94 85 65 69 205 140 105 143 87 73 75 72 76 74 25 13 6 1 0 0 6 7 9 27 94 141 107 59 114 310 333 270 287 104 1 0 0 0 0 0 4 0
148 173 136 133 105 301 336 175 185 34 52 34 51 39 55 16 10 25 19 0 8 51 48 82 91 94 118 181 167 75 183 255 286 343 272 39 0 0 0 0 0 0 0
119 127 227 250 358 400 275 203 48 14 42 11 8 57 48 34 36 24 1 44 59 45 86 137 132 156 187 186 172 198 181 155 300 464 390 184 11 8 0 10 0 0 0
30 134 147 192 286 189 190 51 20 43 30 20 0 3 50 43 14 3 9 81 48 88 126 158 182 164 169 133 107 88 85 87 188 341 441 316 107 32 27 31 0 0 22
21 68 120 130 102 106 94 35 46 40 17 4 2 19 27 0 0 0 0 0 24 84 84 78 64 91 102 70 75 76 56 50 227 368 457 369 192 96 85 69 0 0 19
5 44 32 34 69 65 41 33 30 9 8 15 8 10 14 16 7 0 0 0 0 77 120 41 50 65 69 53 66 35 39 56 95 392 334 409 303 208 169 115 23 0 0
1 19 31 4 3 4 2 8 2 2 3 4 0 0 8 5 6 0 0 0 0 3 82 34 48 72 57 6 12 22 19 21 24 204 417 331 114 38 17 21 4 1 0
6 6 0 0 7 3 5 16 24 31 8 7 8 1 3 12 40 12 52 69 8 0 0 0 30 21 34 37 18 17 28 16 20 29 91 65 19 12 7 4 4 0 0
19 7 0 0 0 0 0 4 21 21 0 24 24 46 52 0 39 50 60 60 73 66 0 9 4 30 16 24 30 22 10 8 10 13 51 20 20 5 3 2 4 0 0
0 0 0 0 0 0 0 0 0 0 0 0 0 0 6 18 45 70 76 65 61 54 0 0 31 31 38 13 6 5 3 3 2 8 31 3 5 2 3 6 3 0 0
0 0 0 0 0 0 0 0 0 0 0 0 0 1 0 3 45 1 0 0 9 7 0 0 0 0 0 2 0 3 0 1 0 17 16 6 2 2 3 1 0 0 0
0 0 0 0 0 0 0 0 0 0 0 0 0 0 0 0 0 0 0 0 6 4 15 0 0 0 0 0 0 0 0 6 14 2 3 9 8 3 0 3 0 0 0
0 0 0 0 0 0 0 0 0 0 0 0 0 0 0 0 0 0 0 0 0 0 0 0 0 0 0 0 0 1 0 8 0 11 3 9 0 3 0 0 0 0 0
0 0 0 0 0 0 0 0 0 0 0 0 0 0 0 0 0 0 0 0 0 0 3 6 9 4 0 8 8 0 7 44 16 0 0 0 0 1 0 0 0 0 0
0 0 0 0 0 0 0 0 0 0 0 0 0 0 0 0 0 0 0 0 0 0 0 9 8 0 2 1 15 17 13 3 0 12 0 0 0 0 0 0 0 0 0
0 0 0 0 0 0 0 0 0 0 0 0 0 0 0 0 0 0 0 0 0 0 0 0 0 0 5 0 17 16 3 10 31 4 19 0 0 0 0 0 0 0 0
0 0 0 0 0 0 0 0 0 0 0 0 0 0 0 0 0 0 0 0 0 0 0 0 0 0 11 7 0 7 21 30 15 28 24 0 0 0 0 0 0 0 0
0 0 0 0 0 0 0 0 0 0 0 0 0 0 0 0 0 0 0 0 0 0 0 0 0 0 0 2 3 11 7 8 31 23 18 11 0 0 1 0 0 0 0
0 0 0 0 0 0 0 0 0 0 0 0 0 0 0 0 0 0 0 0 0 0 0 0 0 0 0 0 1 1 12 14 49 25 14 4 1 0 0 0 0 0 0

GFSMA_con_mucape_105.txt.gz
CAPE
290 334 258 404 817 638 720 281 230 159 279 123 16 0 0 0 0 0 0 0 0 0 0 250 228 145 8 12 14 4 3 2 0 0 0 0 0 0 1 4 2 0 2
38 87 102 161 240 435 615 264 255 231 78 110 155 9 2 0 0 0 0 0 0 0 27 14 369 178 178 138 117 127 231 141 68 9 2 0 0 0 0 0 0 0 0
45 51 98 127 123 125 187 559 224 212 328 182 106 151 12 1 0 0 0 0 0 0 0 0 6 204 338 222 224 189 278 341 284 128 41 0 0 0 0 0 0 0 0
64 25 33 72 126 180 227 281 499 517 473 608 258 209 78 6 3 0 0 0 0 0 0 0 5 99 321 289 205 290 359 340 351 389 143 2 0 0 0 0 0 0 0
112 68 40 59 64 169 199 335 454 371 436 431 362 315 112 53 32 11 2 0 0 0 0 0 0 0 41 262 191 229 361 433 415 468 306 34 0 0 0 0 0 0 0
66 68 48 61 86 148 164 221 218 346 315 357 136 159 133 69 67 40 5 0 0 0 0 0 0 0 0 13 107 141 279 372 423 368 373 109 0 0 0 0 0 0 0
127 183 160 101 139 123 115 123 75 193 183 222 123 109 45 39 21 32 26 1 0 1 0 0 6 19 4 0 8 138 201 279 428 377 359 190 18 0 0 0 0 0 0
286 268 282 253 275 213 129 156 187 117 210 159 128 114 47 30 39 3 4 2 14 18 0 0 4 4 15 59 76 44 206 225 315 477 436 291 77 3 0 0 0 0 0
258 203 281 264 320 318 253 284 281 213 127 129 173 96 53 14 15 10 0 0 1 18 6 1 0 7 33 84 164 136 79 172 390 421 494 418 202 16 4 1 4 0 10
117 78 83 108 244 385 369 346 319 283 248 140 172 129 102 37 10 10 12 0 9 4 6 0 2 18 52 125 160 184 236 182 348 439 379 530 382 135 28 7 9 0 0
36 19 20 30 74 207 261 247 260 249 249 180 112 58 51 53 43 20 0 0 9 0 29 14 58 82 99 212 205 214 204 178 310 360 397 395 466 326 143 45 23 0 1
46 5 13 26 66 54 149 252 246 147 149 63 80 77 48 28 37 17 2 42 0 3 4 20 43 97 109 98 103 95 125 116 218 335 369 412 464 427 245 151 76 37 0
18 29 15 12 13 7 23 55 77 112 115 90 54 52 40 46 26 7 0 5 0 5 19 3 43 64 58 72 93 72 81 94 109 254 380 463 481 410 330 220 151 76 3
25 9 18 0 9 11 5 7 2 9 8 7 2 25 15 40 39 18 3 17 0 0 0 0 32 60 41 42 80 94 67 47 44 84 208 377 162 189 172 178 200 163 4
12 1 4 2 9 0 0 0 12 29 22 3 2 3 7 7 13 2 3 9 1 0 0 1 0 16 15 31 37 47 27 21 19 11 8 27 80 93 170 85 38 41 3
0 0 0 0 0 0 0 0 0 0 13 7 0 6 9 3 0 16 0 0 0 0 0 2 9 27 18 12 17 21 25 11 4 3 10 4 11 74 117 82 25 26 4
0 0 0 0 0 0 0 0 0 0 0 0 0 0 0 0 7 15 45 23 0 0 0 1 27 24 17 7 1 19 17 21 30 18 2 4 3 38 81 47 16 10 3
0 0 0 0 0 0 0 0 0 0 0 0 0 0 0 0 0 0 0 2 0 0 1 0 0 13 28 23 36 10 3 7 0 8 5 1 3 17 55 23 23 3 1
0 0 0 0 0 0 0 0 0 0 0 0 0 0 0 0 0 0 0 0 0 0 0 0 0 0 0 0 0 6 6 1 6 1 7 3 0 7 20 20 4 0 1
0 0 0 0 0 0 0 0 0 0 0 0 0 0 0 0 0 0 0 0 0 0 0 0 0 0 0 8 0 0 0 0 4 3 2 1 5 3 3 1 3 4 1
0 0 0 0 0 0 0 0 0 0 0 0 0 0 0 0 0 0 0 0 0 0 0 0 0 0 0 0 0 0 0 0 0 14 31 1 0 3 11 7 1 5 2
0 0 0 0 0 0 0 0 0 0 0 0 0 0 0 0 0 0 0 0 0 0 0 0 0 0 0 0 3 0 1 0 8 1 2 0 2 0 6 0 0 0 0
0 0 0 0 0 0 0 0 0 0 0 0 0 0 0 0 0 0 0 0 0 0 0 0 0 0 0 0 1 0 0 0 1 4 34 0 7 3 11 14 4 2 0
0 0 0 0 0 0 0 0 0 0 0 0 0 0 0 0 0 0 0 0 0 0 0 0 0 0 0 3 0 2 0 0 0 2 6 3 0 0 4 4 2 6 3
0 0 0 0 0 0 0 0 0 0 0 0 0 0 0 0 0 0 0 0 0 0 0 0 0 0 0 0 11 0 1 2 0 0 16 1 2 2 5 7 3 3 3
0 0 0 0 0 0 0 0 0 0 0 0 0 0 0 0 0 0 0 0 0 0 0 0 0 0 0 0 20 0 3 3 1 0 0 0 2 2 3 9 13 0 1

GFSMA_con_mucape_108.txt.gz
CAPE
164 201 166 148 188 276 258 171 107 81 50 33 4 0 0 0 0 0 0 0 18 93 87 162 413 167 17 4 8 7 5 4 1 0 0 0 0 0 0 0 1 1 1
63 107 106 67 106 168 272 225 164 149 145 124 96 59 14 0 0 0 0 0 0 31 116 43 204 453 312 112 68 54 182 20 17 8 1 1 0 0 0 0 0 6 0
53 44 82 70 63 61 40 73 187 159 149 155 125 119 97 69 20 0 0 0 0 4 36 100 86 199 480 355 231 230 517 498 403 294 95 44 0 0 0 0 0 0 0
114 83 54 53 86 81 72 98 162 139 197 179 157 135 124 106 48 22 19 1 0 0 0 52 129 213 280 394 491 339 468 431 343 411 454 207 18 0 0 0 0 0 0
281 141 105 109 66 35 54 96 181 216 257 207 216 196 113 103 78 47 48 40 0 0 0 0 2 49 124 350 253 393 344 407 510 427 449 441 119 0 0 0 0 0 0
250 235 104 88 73 60 59 104 171 197 234 258 209 227 222 151 107 65 53 56 38 21 2 0 0 0 11 83 254 270 326 790 418 401 522 457 257 27 0 0 0 0 0
163 128 101 110 104 100 103 89 85 142 136 174 317 132 103 167 112 70 53 27 74 60 7 15 0 0 0 3 95 229 296 364 452 703 570 467 333 114 2 0 0 0 0
245 226 174 142 138 123 101 94 104 89 85 193 224 143 51 35 74 52 46 41 38 20 47 6 1 0 0 1 8 92 267 244 441 664 692 550 426 214 51 1 0 0 0
161 133 128 89 112 126 91 115 172 179 124 117 213 132 69 13 11 2 0 0 0 15 23 50 24 1 0 0 32 51 78 191 506 518 525 698 461 348 173 46 5 2 0
121 146 78 62 58 42 48 97 147 151 164 66 124 150 130 85 52 17 16 0 0 7 15 10 15 4 1 3 30 98 166 159 230 343 392 517 692 466 329 162 45 13 0
47 52 14 22 17 14 0 6 6 80 84 98 74 130 161 157 123 68 18 5 15 1 3 1 0 10 20 0 35 105 169 178 187 306 341 413 358 390 392 270 135 28 2
18 23 54 35 7 0 4 1 1 14 84 134 130 139 148 79 144 116 58 45 17 15 14 8 0 4 19 18 55 176 209 161 147 235 275 295 230 276 414 429 254 114 74
11 19 8 14 11 27 21 11 13 110 54 165 129 117 100 49 47 57 39 20 7 14 33 16 4 14 34 40 47 29 38 55 135 207 261 343 308 334 290 446 496 199 85
10 11 15 12 1 9 14 0 27 24 71 31 71 64 46 50 55 28 53 42 1 4 51 41 25 18 8 15 14 39 61 99 93 171 270 264 256 247 242 213 361 364 200
0 0 0 0 0 0 0 2 1 4 0 1 2 14 10 16 3 0 4 11 22 20 0 10 15 9 1 5 53 72 89 73 84 71 71 90 77 40 44 52 113 154 153
0 0 0 0 0 0 0 0 0 0 0 0 0 0 0 1 2 4 8 19 4 0 0 12 9 0 2 7 18 26 47 42 32 23 7 15 11 7 3 7 20 104 116
0 0 0 0 0 0 0 0 0 0 0 0 0 0 0 0 0 0 0 0 0 20 0 1 0 3 13 35 34 32 31 15 7 9 5 1 9 9 5 9 14 68 93
0 0 0 0 0 0 0 0 0 0 0 0 0 0 0 0 0 0 0 0 0 0 0 1 0 0 3 41 31 72 25 30 33 12 1 10 14 4 0 2 2 43 58
0 0 0 0 0 0 0 0 0 0 0 0 0 0 0 0 0 0 0 0 0 0 0 0 0 0 0 6 0 0 2 6 11 6 1 5 1 1 3 8 8 41 28
0 0 0 0 0 0 0 0 0 0 0 0 0 0 0 0 0 0 0 0 0 0 0 0 0 0 0 0 0 0 0 0 1 5 3 1 2 3 4 1 2 18 41
0 0 0 0 0 0 0 0 0 0 0 0 0 0 0 0 0 0 0 0 0 0 0 0 0 0 0 0 0 0 0 0 8 6 2 8 3 1 5 1 0 9 4
0 0 0 0 0 0 0 0 0 0 0 0 0 0 0 0 0 0 0 0 0 0 0 0 0 0 0 0 0 0 0 0 0 0 0 0 4 0 2 2 3 3 7
0 0 0 0 0 0 0 0 0 0 0 0 0 0 0 0 0 0 0 0 0 0 0 0 0 0 0 0 0 0 0 0 0 0 0 0 0 2 2 1 8 6 6
0 0 0 0 0 0 0 0 0 0 0 0 0 0 0 0 0 0 0 0 0 0 0 0 0 0 0 0 0 0 0 0 2 0 0 0 0 6 0 0 5 10 9
0 0 0 0 0 0 0 0 0 0 0 0 0 0 0 0 0 0 0 0 0 0 0 0 0 0 0 0 0 0 0 0 0 0 2 9 0 0 1 0 0 0 1
0 0 0 0 0 0 0 0 0 0 0 0 0 0 0 0 0 0 0 0 0 0 0 0 0 0 0 0 0 0 0 0 0 0 1 0 7 0 0 0 1 0 0

GFSMA_con_mucape_111.txt.gz
CAPE
94 164 178 212 300 278 274 222 142 114 96 63 34 8 0 0 0 0 0 0 53 428 543 412 170 167 34 3 5 7 5 4 4 2 0 0 0 0 0 0 1 1 1
41 52 59 69 229 200 282 272 254 199 152 133 91 78 23 0 0 0 0 0 0 121 410 586 600 626 384 160 62 34 154 12 13 11 7 4 2 0 0 0 0 2 11
51 62 62 64 84 76 190 91 143 199 195 215 178 157 115 86 42 53 7 0 0 0 79 514 628 805 1027 694 350 135 387 368 307 282 168 79 38 0 0 0 0 0 0
112 76 72 106 99 77 51 37 64 127 138 158 184 173 168 146 114 49 28 44 1 12 13 96 240 445 761 839 673 570 763 632 495 420 323 280 247 29 0 0 0 0 0
134 168 136 142 161 106 82 74 87 120 145 162 177 162 144 150 123 118 64 40 22 18 22 20 24 102 188 659 803 615 957 846 523 505 467 468 409 177 9 0 0 0 0
150 162 195 174 121 107 85 68 92 130 138 139 120 118 122 143 154 112 90 71 24 33 41 22 5 19 40 238 545 849 1013 1115 878 629 584 552 565 404 116 1 0 0 0
193 117 183 120 85 89 91 96 97 87 112 188 161 92 74 75 79 99 113 103 77 42 35 37 19 28 43 50 195 432 741 1088 1248 958 707 711 679 467 285 48 0 0 0
141 149 111 145 141 128 142 123 92 77 82 80 116 138 31 2 4 8 91 78 57 59 27 27 37 40 28 10 25 114 315 534 1102 1211 834 693 762 682 421 199 24 1 0
114 76 57 57 53 72 55 43 39 63 63 54 101 174 64 7 4 16 38 75 67 48 49 76 60 12 0 0 19 14 40 210 563 971 955 1008 728 841 518 326 142 36 4
126 58 43 43 9 6 11 10 5 7 12 12 69 49 85 72 33 23 12 21 49 46 17 9 2 0 3 16 36 48 31 46 304 568 585 740 946 588 593 478 283 137 84
95 47 5 1 0 1 3 1 4 0 0 0 25 58 40 65 74 93 25 15 21 18 34 27 28 27 33 35 16 44 25 38 271 430 515 610 587 570 515 445 415 290 216
41 1 42 40 7 3 3 2 1 0 0 1 10 14 55 66 33 102 90 34 19 13 11 4 4 10 47 23 9 1 29 42 307 534 552 565 552 567 566 493 593 390 295
0 0 7 7 4 4 8 4 1 17 14 18 9 18 55 37 45 54 86 26 30 20 9 7 8 14 23 10 3 9 22 47 174 340 429 499 519 396 473 357 451 375 174
1 3 8 6 4 5 0 0 0 0 0 9 15 14 17 35 53 17 29 15 4 32 12 5 4 12 10 14 5 23 30 58 22 121 295 365 223 205 219 255 271 299 245
3 3 5 0 0 0 0 0 0 0 0 0 4 5 1 0 0 24 10 13 1 0 0 19 30 47 8 34 71 60 48 39 17 21 62 69 91 97 115 132 118 107 133
0 0 0 0 0 0 0 0 0 0 0 0 0 0 0 0 0 0 11 1 0 3 0 0 7 2 3 14 7 7 30 19 23 26 27 30 64 60 75 71 45 52 45
0 0 0 0 0 0 0 0 0 0 0 0 0 0 0 0 0 0 0 0 0 0 0 0 0 15 36 25 15 8 4 16 18 16 32 59 37 25 16 9 9 6 1
0 0 0 0 0 0 0 0 0 0 0 0 0 0 0 0 0 0 0 0 0 0 0 0 0 0 0 2 0 1 0 18 9 14 22 33 16 13 9 9 8 10 9
0 0 0 0 0 0 0 0 0 0 0 0 0 0 0 0 0 0 0 0 0 0 0 0 0 0 0 0 0 0 0 9 25 19 11 15 12 6 9 8 5 8 4
0 0 0 0 0 0 0 0 0 0 0 0 0 0 0 0 0 0 0 0 0 0 0 0 0 0 0 0 0 0 0 0 25 4 36 8 5 4 2 7 2 3 4
0 0 0 0 0 0 0 0 0 0 0 0 0 0 0 0 0 0 0 0 0 0 0 0 0 0 0 0 0 0 0 0 0 0 0 0 0 11 9 3 2 3 0
0 0 0 0 0 0 0 0 0 0 0 0 0 0 0 0 0 0 0 0 0 0 0 0 0 0 0 0 0 0 0 0 0 0 0 0 2 6 5 1 5 1 0
0 0 0 0 0 0 0 0 0 0 0 0 0 0 0 0 0 0 0 0 0 0 0 0 0 0 0 0 0 0 0 0 0 0 0 0 0 0 0 2 10 0 2
0 0 0 0 0 0 0 0 0 0 0 0 0 0 0 0 0 0 0 0 0 0 0 0 0 0 0 0 0 0 0 0 0 0 0 0 0 0 0 0 6 3 1
0 0 0 0 0 0 0 0 0 0 0 0 0 0 0 0 0 0 0 0 0 0 0 0 0 0 0 0 0 0 0 0 0 0 0 0 0 0 0 0 0 6 1
0 0 0 0 0 0 0 0 0 0 0 0 0 0 0 0 0 0 0 0 0 0 0 0 0 0 0 0 0 0 0 0 0 0 0 0 0 0 0 0 0 0 2

GFSMA_con_mucape_114.txt.gz
CAPE
110 104 174 246 270 296 303 437 304 221 216 175 132 88 41 12 8 1 0 0 0 234 825 913 354 193 107 59 29 17 8 4 3 3 2 1 3 0 1 0 0 0 0
174 30 68 162 213 334 360 343 367 214 257 190 167 130 76 64 41 23 2 0 0 44 425 779 899 626 282 163 128 160 202 73 8 10 10 6 6 6 0 4 2 4 6
124 94 36 36 38 90 291 283 284 185 201 169 161 188 119 114 139 93 72 33 25 0 104 476 657 578 825 563 384 287 376 334 263 220 192 143 110 74 2 2 3 0 3
144 103 105 46 55 79 76 98 132 128 140 155 137 159 178 185 143 124 108 86 62 39 8 119 298 650 653 966 511 850 793 499 458 429 421 369 328 236 80 1 4 0 0
93 97 99 143 105 110 73 55 45 45 62 73 83 78 68 66 70 82 91 102 91 45 14 55 15 127 245 664 1104 1069 1116 842 642 573 612 584 481 439 209 45 1 1 0
150 130 145 152 164 125 94 63 69 59 77 90 79 66 54 36 29 29 34 60 61 99 75 42 22 12 71 310 589 1022 1192 1255 981 792 739 700 594 625 423 170 47 1 0
5 64 90 115 129 211 78 81 66 75 89 79 56 50 39 34 40 28 41 52 45 31 119 93 47 2 8 21 250 442 891 1288 1206 1079 931 824 697 642 584 338 156 30 1
23 59 104 137 112 109 114 121 84 66 61 62 71 59 3 0 0 16 33 42 38 22 0 63 106 79 58 5 0 92 429 824 1247 1381 1246 1024 844 772 759 604 327 139 20
127 82 38 143 62 42 42 35 12 1 0 0 11 83 16 1 0 0 1 8 14 52 50 50 44 44 56 28 0 0 36 191 700 1069 1284 1249 1125 862 881 798 629 294 185
64 128 165 62 2 3 0 33 0 2 2 0 0 11 28 47 22 9 0 2 23 36 69 66 45 40 36 26 19 13 3 7 224 607 798 1291 1441 1063 938 721 880 595 369
25 12 46 29 2 0 0 0 0 14 0 0 0 0 0 0 18 49 24 3 10 24 40 58 56 41 54 46 19 1 1 1 174 461 462 623 1481 1273 1154 909 888 809 636
12 2 3 0 0 0 0 0 0 0 0 0 0 0 0 1 0 14 3 10 15 4 20 26 17 28 39 27 27 21 46 36 79 331 404 618 723 1058 1109 1098 924 811 652
0 2 0 0 0 0 0 0 0 0 0 0 0 0 4 9 7 0 1 10 1 0 23 43 42 69 57 56 13 30 35 55 31 289 429 603 337 359 466 839 994 1002 793
18 4 6 7 24 3 2 1 0 0 0 0 0 0 0 6 2 0 1 0 0 0 28 43 12 96 48 38 29 11 24 38 29 47 354 217 121 126 152 223 445 609 533
5 7 5 7 10 2 0 0 0 0 0 0 0 0 0 0 0 0 0 1 0 0 1 22 29 30 21 28 32 21 35 32 32 12 6 78 104 79 100 81 122 154 211
0 0 0 0 0 0 0 0 0 0 0 0 0 0 0 0 0 0 0 0 0 0 0 7 0 8 0 6 13 22 18 33 19 18 24 45 23 25 9 29 53 71 83
0 0 0 0 0 0 0 0 0 0 0 0 0 0 0 0 0 0 0 0 0 0 0 0 0 0 0 3 1 3 12 10 3 3 8 5 25 12 5 12 31 39 40
0 0 0 0 0 0 0 0 0 0 0 0 0 0 0 0 0 0 0 0 0 0 0 0 0 0 0 0 1 0 9 4 0 8 4 40 28 26 9 21 17 17 16
0 0 0 0 0 0 0 0 0 0 0 0 0 0 0 0 0 0 0 0 0 0 0 0 0 0 0 0 0 0 0 2 10 14 3 6 9 9 14 26 34 37 19
0 0 0 0 0 0 0 0 0 0 0 0 0 0 0 0 0 0 0 0 0 0 0 0 0 0 0 0 0 0 0 0 0 0 5 5 5 8 18 12 13 13 9
0 0 0 0 0 0 0 0 0 0 0 0 0 0 0 0 0 0 0 0 0 0 0 0 0 0 0 0 0 0 0 0 0 0 0 0 0 0 6 11 5 4 10
0 0 0 0 0 0 0 0 0 0 0 0 0 0 0 0 0 0 0 0 0 0 0 0 0 0 0 0 0 0 0 0 0 0 0 0 0 0 0 0 3 5 15
0 0 0 0 0 0 0 0 0 0 0 0 0 0 0 0 0 0 0 0 0 0 0 0 0 0 0 0 0 0 0 0 0 0 0 0 0 0 0 0 1 2 8
0 0 0 0 0 0 0 0 0 0 0 0 0 0 0 0 0 0 0 0 0 0 0 0 0 0 0 0 0 0 0 0 0 0 0 0 0 0 0 0 0 0 1
0 0 0 0 0 0 0 0 0 0 0 0 0 0 0 0 0 0 0 0 0 0 0 0 0 0 0 0 0 0 0 0 0 0 0 0 0 0 0 0 0 0 1
0 0 0 0 0 0 0 0 0 0 0 0 0 0 0 0 0 0 0 0 0 0 0 0 0 0 0 0 0 0 0 0 0 0 0 0 0 0 0 0 0 0 0

GFSMA_con_mucape_117.txt.gz
CAPE
80 157 139 91 181 233 211 270 263 279 274 241 253 210 158 105 53 30 24 7 0 3 33 189 788 404 314 155 80 106 119 10 13 10 6 2 0 1 2 1 1 1 1
4 15 90 131 71 124 290 310 337 377 288 211 254 251 228 177 114 79 57 41 1 0 68 105 400 777 413 437 224 231 288 165 30 18 15 15 7 6 6 2 3 3 4
0 4 14 58 48 76 75 269 319 395 335 243 240 232 164 144 135 109 108 124 96 19 16 60 393 724 913 465 509 493 256 372 303 235 216 125 162 130 60 10 2 3 5
0 14 3 23 89 66 41 58 174 191 152 124 154 157 132 135 166 168 151 129 110 75 64 52 179 475 636 898 591 685 771 603 505 430 362 316 255 253 202 121 24 6 3
0 41 60 38 68 98 82 112 110 107 83 91 142 126 83 57 53 41 61 61 54 41 49 53 61 87 268 523 937 1070 1163 935 727 641 591 480 428 413 384 272 173 47 6
1 1 7 46 83 69 114 132 82 75 51 93 79 70 69 67 49 28 32 37 35 19 2 1 32 78 33 269 524 955 1090 1122 1035 888 904 780 690 623 573 417 338 133 50
0 0 18 145 101 118 99 161 106 112 100 97 69 29 8 9 5 5 16 9 0 9 1 0 0 2 59 61 203 542 836 1035 1173 1150 1082 1078 935 797 816 765 586 390 120
0 2 1 68 177 173 118 133 96 87 54 68 20 1 0 0 0 1 4 3 0 0 0 0 0 0 0 12 80 131 540 925 1074 997 933 1172 1177 1065 933 853 805 544 391
4 14 42 122 39 110 77 118 14 7 7 6 6 0 0 0 0 0 0 0 5 3 0 0 0 0 0 0 0 15 81 215 692 912 897 1210 1237 1287 1255 1109 1017 810 551
5 9 6 15 31 29 9 13 5 0 0 0 0 0 0 0 0 0 0 0 3 5 5 20 32 18 12 18 0 0 0 0 211 572 778 769 1023 1408 1199 1287 1163 1044 776
8 9 1 12 10 24 95 20 5 0 0 0 0 0 0 0 0 0 0 0 0 1 8 31 59 50 41 11 29 28 1 4 50 326 493 811 865 990 1388 1270 1271 1054 1002
11 7 13 6 7 13 11 0 0 0 0 0 0 0 0 0 0 0 0 0 0 0 0 0 28 53 63 81 24 14 27 25 21 220 209 668 768 666 887 1287 1266 1041 924
2 10 3 3 0 0 0 0 8 0 0 0 0 0 0 0 0 0 0 0 0 0 0 0 3 56 33 29 30 35 40 57 22 29 120 494 591 472 464 446 1068 1085 931
5 6 11 9 9 8 2 1 0 3 12 1 0 0 0 0 0 0 0 0 0 0 0 0 11 10 38 26 40 26 32 55 49 25 160 308 214 178 132 204 178 472 711
0 0 0 0 0 0 0 0 0 0 0 0 0 0 0 0 0 0 0 0 0 0 0 0 0 26 39 51 30 71 55 17 5 39 32 23 84 54 40 64 54 90 90
0 0 0 0 0 0 0 0 0 0 0 0 0 0 0 0 0 0 0 0 0 0 0 0 0 1 0 4 60 19 5 15 15 41 36 92 73 37 6 22 21 9 10
0 0 0 0 0 0 0 0 0 0 0 0 0 0 0 0 0 0 0 0 0 0 0 0 0 0 0 0 0 8 4 3 24 17 16 24 25 16 6 10 18 12 46
0 0 0 0 0 0 0 0 0 0 0 0 0 0 0 0 0 0 0 0 0 0 0 0 0 0 0 0 0 0 4 6 4 4 0 13 3 8 11 14 10 2 27
0 0 0 0 0 0 0 0 0 0 0 0 0 0 0 0 0 0 0 0 0 0 0 0 0 0 0 0 0 0 0 1 1 1 2 8 2 5 5 8 18 6 0
0 0 0 0 0 0 0 0 0 0 0 0 0 0 0 0 0 0 0 0 0 0 0 0 0 0 0 0 0 0 0 0 1 0 0 1 2 2 20 16 7 18 19
0 0 0 0 0 0 0 0 0 0 0 0 0 0 0 0 0 0 0 0 0 0 0 0 0 0 0 0 0 0 0 0 0 0 0 0 0 0 1 4 3 11 13
0 0 0 0 0 0 0 0 0 0 0 0 0 0 0 0 0 0 0 0 0 0 0 0 0 0 0 0 0 0 0 0 0 0 0 0 0 0 0 0 2 3 1
0 0 0 0 0 0 0 0 0 0 0 0 0 0 0 0 0 0 0 0 0 0 0 0 0 0 0 0 0 0 0 0 0 0 0 0 0 0 0 0 1 1 1
0 0 0 0 0 0 0 0 0 0 0 0 0 0 0 0 0 0 0 0 0 0 0 0 0 0 0 0 0 0 0 0 0 0 0 0 0 0 0 0 0 0 0
0 0 0 0 0 0 0 0 0 0 0 0 0 0 0 0 0 0 0 0 0 0 0 0 0 0 0 0 0 0 0 0 0 0 0 0 0 0 0 0 0 0 0
0 0 0 0 0 0 0 0 0 0 0 0 0 0 0 0 0 0 0 0 0 0 0 0 0 0 0 0 0 0 0 0 0 0 0 0 0 0 0 0 0 0 0